     2              OBSERVATION DATA    GPS                 RINEX VERSION / TYPE
ASRINEXO V2.9.7 UX USGS/MENLO_PARK 04-JUN-01 13:58          PGM / RUN BY / DATE
                                                            COMMENT
BIT 2 OF LLI (+4) FLAGS DATA COLLECTED UNDER "AS" CONDITION COMMENT
BIT 2 OF LLI (+4) FLAGS DATA COLLECTED UNDER "AS" CONDITION COMMENT
BIT 2 OF LLI (+4) FLAGS DATA COLLECTED UNDER "AS" CONDITION COMMENT
BIT 2 OF LLI (+4) FLAGS DATA COLLECTED UNDER "AS" CONDITION COMMENT
BIT 2 OF LLI (+4) FLAGS DATA COLLECTED UNDER "AS" CONDITION COMMENT
BIT 2 OF LLI (+4) FLAGS DATA COLLECTED UNDER "AS" CONDITION COMMENT
BIT 2 OF LLI (+4) FLAGS DATA COLLECTED UNDER "AS" CONDITION COMMENT
BIT 2 OF LLI (+4) FLAGS DATA COLLECTED UNDER "AS" CONDITION COMMENT
Original Marker Name: shr2 Shade_Rm2_CDWR                   COMMENT
Campaign Name: USGS-Parkfield                               COMMENT
4-Character Station Name: SHR2                              COMMENT
6-Character Antenna Code: DMRCHT                            COMMENT
Vertical Measurement Point: BCR                             COMMENT
Vertical Offset to Rinex Ref. Point: 0.0348                 COMMENT
Radial Measurement Point: ECF                               COMMENT
Radial Offset to Rinex Ref. Point: 0.1897                   COMMENT
Antenna Height from Field Measurement: 1.3255 m             COMMENT
Additional Antenna Identification Info.:                    COMMENT
Turborogue and Ashtech Choke Ring                           COMMENT
Original XYZ: -2635410.2436 -4441649.6267 3731294.9086      COMMENT
New XYZ position is based on association with SCEC monument COMMENT
E1F1N7F5+0011. Position of that monument is believed to be  COMMENT
valid to within 1 m horizontally; vertical accuracy         COMMENT
should be no worse than 3-times this value.                 COMMENT
                                                            COMMENT
Revised Rinex header created by UCSD GPS archive for        COMMENT
GSAC on 18-Oct-2001 (2001:291) 15:33:52 GMT                 COMMENT
For assistance contact dagnew@ucsd.edu                      COMMENT
or anderson@python.ucsd.edu                                 COMMENT
                                                            COMMENT
SHADE RM2                                                   MARKER NAME
GDH US GEOLOGICAL SURVEY                                    OBSERVER / AGENCY
O4582 ASHTECH Z-XII3 CD00                                   REC # / TYPE / VERS
CR14333 DORNE-MARGOL. TYPE T                                ANT # / TYPE
 -2635402.5698 -4441632.2489  3731271.3605                  APPROX POSITION XYZ
        1.2771        0.0000        0.0000                  ANTENNA: DELTA H/E/N
     1     1     0                                          WAVELENGTH FACT L1/2
     5    C1    L1    L2    P1    P2                        # / TYPES OF OBSERV
    30                                                      INTERVAL
  2001     5    23     0     1    0.000000                  TIME OF FIRST OBS
  2001     5    23    23    59    0.000000                  TIME OF LAST OBS
                                                            END OF HEADER
 01  5 23  0  1  0.0000000  0 10 15 17 18 14 21 23 29 03 31 09
  22390230.831     -140359.896 8    -96490.97846  22390230.525    22390241.0384
  23929024.776    13054568.605 7  10177403.08445  23929024.350    23929039.3284
  22606565.765    -2748125.984 8  -2117738.83946  22606565.790    22606574.3304
  20331144.643   -25965866.449 9 -19575782.05347  20331144.602    20331151.2364
  21021479.330   -25236218.532 9 -19129341.28847  21021479.133    21021486.9604
  23497510.092     6622302.765 8   5169464.53145  23497509.852    23497520.2644
  20565760.393   -20950775.245 9 -16297590.65747  20565760.580    20565768.2544
  22144676.885    -7301466.489 8  -5674419.35746  22144676.909    22144686.8674
  22353229.647    -5495313.690 8  -4267049.51246  22353229.401    22353238.3854
  23913599.517    -4202965.941 8  -3263245.43345  23913599.420    23913610.0334
 01  5 23  0  1 30.0000000  0 10 15 17 18 14 21 23 29 03 31 09
  22406241.500      -56224.410 8    -30930.99546  22406241.132    22406251.6154
  23947728.350    13152855.471 7  10253989.93745  23947728.032    23947743.1014
  22619185.295    -2681810.770 8  -2066064.71746  22619185.304    22619193.8014
  20326098.680   -25992383.193 9 -19596444.41247  20326098.645    20326105.2244
  21022735.122   -25229619.124 9 -19124198.89447  21022734.934    21022742.7924
  23509237.783     6683931.244 8   5217486.64345  23509237.454    23509247.8244
  20558240.933   -20990289.922 9 -16328381.26347  20558241.126    20558248.7374
  22156480.075    -7239440.674 8  -5626087.65246  22156480.088    22156489.9634
  22353994.301    -5491295.369 8  -4263918.37846  22353994.141    22354003.0284
  23921507.765    -4161406.581 8  -3230861.55845  23921507.694    23921518.6774
 01  5 23  0  2  0.0000000  0 10 15 17 18 14 21 23 29 03 31 09
  22422308.989       28210.649 8     34862.42546  22422308.688    22422319.1844
  23966473.646    13251362.549 7  10330748.39745  23966473.416    23966488.6594
  22631821.642    -2615408.376 8  -2014322.67346  22631821.516    22631829.9014
  20321153.382   -26018370.991 9 -19616694.61548  20321153.348    20321159.8964
  21024020.050   -25222866.710 9 -19118937.28147  21024019.864    21024027.7964
  23520971.692     6745594.052 8   5265535.52045  23520971.460    23520982.0804
  20550810.284   -21029337.659 9 -16358808.02947  20550810.490    20550818.0764
  22168358.427    -7177019.666 8  -5577448.00346  22168358.454    22168368.3494
  22354867.690    -5486706.407 8  -4260342.58946  22354867.428    22354876.3084
  23929520.219    -4119300.463 8  -3198051.63545  23929520.228    23929531.3864
 01  5 23  0  2 30.0000000  0 10 15 17 18 14 21 23 29 03 31 09
  22438433.244      112943.872 8    100888.18446  22438432.966    22438443.5694
  23985260.777    13350088.084 7  10407677.07245  23985260.489    23985275.8374
  22644474.086    -2548919.294 8  -1962513.05346  22644473.997    22644482.4344
  20316308.676   -26043830.172 9 -19636532.90048  20316308.602    20316315.1264
  21025334.090   -25215961.582 9 -19113556.66347  21025333.914    21025341.8484
  23532712.308     6807290.984 8   5313610.95745  23532712.142    23532722.5584
  20543468.475   -21067918.604 9 -16388871.05547  20543468.693    20543476.3184
  22180311.383    -7114206.671 8  -5528502.90446  22180311.400    22180321.4354
  22355849.340    -5481548.047 8  -4256323.11046  22355849.048    22355857.9564
  23937636.519    -4076648.962 8  -3164816.72945  23937636.499    23937647.9444
 01  5 23  0  3  0.0000000  0 10 15 17 18 14 21 23 29 03 31 09
  22454613.992      197973.616 8    167144.99546  22454613.635    22454624.5154
  24004089.230    13449030.409 7  10484774.65945  24004088.974    24004104.1294
  22657142.808    -2482344.816 8  -1910636.91146  22657142.766    22657151.0934
  20311564.478   -26068761.229 9 -19655959.66448  20311564.387    20311570.9054
  21026677.076   -25208904.307 9 -19108057.49047  21026676.865    21026684.8194
  23544459.436     6869021.642 8   5361712.68645  23544459.110    23544469.4634
  20536215.567   -21106032.873 9 -16418570.43647  20536215.774    20536223.4134
  22192338.408    -7051004.488 8  -5479254.54846  22192338.394    22192348.5434
  22356939.030    -5475821.545 8  -4251860.93646  22356938.714    22356947.7604
  23945856.162    -4033453.671 8  -3131158.10045  23945856.268    23945867.7954
 01  5 23  0  3 30.0000000  0 10 15 17 18 14 21 23 29 03 31 09
  22470851.015      283299.460 8    233632.54046  22470850.644    22470861.6634
  24022958.871    13548188.631 7  10562040.49245  24022958.641    24022973.4564
  22669827.996    -2415684.529 8  -1858693.90346  22669827.915    22669836.0504
  20306920.752   -26093163.659 9 -19674974.51448  20306920.681    20306927.2654
  21028049.042   -25201694.363 9 -19102439.34947  21028048.845    21028056.8514
  23556212.816     6930786.416 8   5409840.99645  23556212.544    23556223.0664
  20529051.573   -21143679.941 9 -16447905.76747  20529051.783    20529059.3314
  22204439.005    -6987415.387 8  -5429704.69046  22204439.016    22204449.1964
  22358136.719    -5469527.109 8  -4246956.20546  22358136.504    22358145.5014
  23954179.310    -3989715.235 8  -3097076.23745  23954179.347    23954191.0334
 01  5 23  0  4  0.0000000  0 10 15 17 18 14 21 23 29 03 31 09
  22487144.314      368920.954 8    300350.45246  22487143.994    22487154.9994
  24041869.305    13647561.920 7  10639473.89845  24041868.960    24041884.0214
  22682529.460    -2348938.217 8  -1806683.85646  22682529.412    22682537.4574
  20302377.844   -26117036.990 9 -19693577.07648  20302377.747    20302384.3204
  21029450.238   -25194331.251 9 -19096701.86747  21029450.045    21029458.0054
  23567972.710     6992586.232 8   5457996.62345  23567972.512    23567983.2544
  20521976.696   -21180858.753 9 -16476876.22347  20521976.851    20521984.4094
  22216612.997    -6923441.246 8  -5379854.82046  22216612.988    22216623.1274
  22359442.688    -5462664.561 8  -4241608.78946  22359442.450    22359451.4514
  23962605.789    -3945433.935 8  -3062571.37145  23962605.953    23962617.4404
 01  5 23  0  4 30.0000000  0 10 15 17 18 14 21 23 29 03 31 09
  22503493.274      454835.100 8    367296.39546  22503493.006    22503504.0684
  24060820.093    13747147.443 7  10717072.67945  24060819.691    24060835.2104
  22695246.884    -2282107.789 8  -1754608.27546  22695246.838    22695254.9574
  20297935.151   -26140382.735 9 -19711768.54547  20297935.102    20297941.7014
  21030880.356   -25186816.119 9 -19090845.93547  21030880.135    21030888.0894
  23579738.864     7054419.285 8   5506178.14645  23579738.796    23579749.7934
  20514990.544   -21217570.923 9 -16505483.06547  20514990.738    20514998.3264
  22228859.250    -6859086.640 8  -5329708.48546  22228859.301    22228869.4294
  22360856.294    -5455236.544 8  -4235820.75446  22360856.002    22360864.9924
  23971135.053    -3900613.010 8  -3027646.01345  23971135.199    23971146.5444
 01  5 23  0  5  0.0000000  0 10 15 17 18 14 21 23 29 03 31 09
  22519898.397      541042.885 8    434471.15546  22519898.008    22519908.9714
  24079811.210    13846945.630 7  10794837.16845  24079810.933    24079826.5004
  22707980.473    -2215192.015 8  -1702466.18446  22707980.403    22707988.5264
  20293593.270   -26163199.477 9 -19729547.79047  20293593.208    20293599.7294
  21032339.598   -25179147.388 9 -19084870.30647  21032339.385    21032347.3854
  23591512.206     7116287.326 8   5554386.91745  23591512.026    23591522.7554
  20508093.625   -21253814.367 9 -16533724.66547  20508093.772    20508101.3514
  22241177.811    -6794352.357 8  -5279266.26546  22241177.893    22241188.0354
  22362377.611    -5447241.930 8  -4229591.21646  22362377.338    22362386.4064
  23979767.097    -3855251.661 8  -2992299.54145  23979767.163    23979778.5314
 01  5 23  0  5 30.0000000  0 10 15 17 18 14 21 23 29 03 31 09
  22536358.719      627541.264 8    501872.35546  22536358.293    22536369.2594
  24098842.125    13946953.089 7  10872764.73145  24098841.909    24098857.8004
  22720729.949    -2148193.050 8  -1650259.26246  22720729.965    22720737.9454
  20289351.571   -26185489.357 9 -19746916.50147  20289351.494    20289358.0594
  21033827.610   -25171327.354 9 -19078776.77647  21033827.424    21033835.4754
  23603291.619     7178188.408 8   5602621.44445  23603291.470    23603302.3764
  20501285.479   -21289590.978 9 -16561602.50047  20501285.685    20501293.2594
  22253567.853    -6729243.021 8  -5228531.81246  22253567.806    22253578.1534
  22364006.094    -5438683.799 8  -4222922.56546  22364005.881    22364015.0214
  23988501.254    -3809353.320 7  -2956534.65145  23988501.256    23988512.8334
 01  5 23  0  6  0.0000000  0 11 15 17 18 14 21 23 29 03 31 25 09
  22552873.599      714327.410 8    569497.80346  22552873.220    22552884.3284
  24117912.457    14047166.886 7  10950853.06545  24117912.216    24117928.5264
  22733495.054    -2081112.926 8  -1597989.11046  22733494.998    22733502.9764
  20285209.826   -26207254.046 9 -19763875.96447  20285209.752    20285216.3474
  21035344.268   -25163357.376 9 -19072566.40747  21035344.094    21035352.1654
  23615077.407     7240121.135 8   5650880.62045  23615077.212    23615087.8774
  20494565.997   -21324902.095 9 -16589117.60647  20494566.157    20494573.7514
  22266028.302    -6663762.775 8  -5177508.33246  22266028.329    22266038.7954
  22365741.453    -5429564.457 8  -4215816.61046  22365741.249    22365750.3774
  24621372.999    -3734378.020 7  -2627916.21445  24621373.360    24621394.9404
  23997336.994    -3762920.915 7  -2920353.58145  23997337.010    23997348.4334
 01  5 23  0  6 30.0000000  0 11 15 17 18 14 21 23 29 03 31 25 09
  22569442.989      801399.988 8    637346.44346  22569442.660    22569453.7814
  24137021.710    14147585.505 7  11029101.01645  24137021.507    24137037.6974
  22746275.342    -2013951.975 8  -1545655.96546  22746275.351    22746283.5564
  20281167.988   -26228493.821 9 -19780426.40547  20281167.940    20281174.4974
  21036889.401   -25155237.760 9 -19066239.43847  21036889.225    21036897.2724
  23626868.986     7302085.507 8   5699164.44045  23626868.739    23626879.3594
  20487934.988   -21359747.735 9 -16616270.01147  20487935.188    20487942.8034
  22278558.952    -6597914.736 8  -5126198.26846  22278558.954    22278569.2714
  22367583.621    -5419884.686 8  -4208273.97246  22367583.344    22367592.4104
  24602977.243    -3831045.124 7  -2703240.68945  24602977.763    24602999.4644
  24006274.160    -3715955.677 8  -2883757.36645  24006274.292    24006285.4104
 01  5 23  0  7  0.0000000  0 11 15 17 18 14 21 23 29 03 31 25 09
  22586067.972      888763.691 8    705421.89446  22586067.521    22586078.6294
  24156170.762    14248213.418 7  11107512.01445  24156170.570    24156186.5454
  22759072.039    -1946705.037 8  -1493255.82246  22759072.062    22759080.4014
  20277227.271   -26249202.947 9 -19796563.36248  20277227.158    20277233.7314
  21038464.142   -25146962.396 9 -19059791.12047  21038463.955    21038471.9764
  23638667.432     7364087.317 8   5747477.45945  23638667.142    23638678.0344
  20481393.737   -21394121.968 9 -16643055.08947  20481393.956    20481401.5294
  22291160.095    -6531695.596 8  -5074599.04446  22291160.101    22291170.4274
  22369533.098    -5409639.832 8  -4200290.99746  22369532.835    22369541.9244
  24584569.796    -3927775.917 7  -2778614.79245  24584570.237    24584591.8604
  24015313.956    -3668453.157 7  -2846742.44145  24015313.834    24015324.6054
 01  5 23  0  7 30.0000000  0 11 15 17 18 14 21 23 29 03 31 25 09
  22602747.654      976415.794 8    773722.10546  22602747.224    22602758.3564
  24175359.436    14349047.763 7  11186083.91045  24175359.096    24175374.7614
  22771885.044    -1879373.530 8  -1440789.79246  22771884.992    22771893.2484
  20273386.991   -26269383.334 9 -19812288.30448  20273386.916    20273393.5274
  21040068.217   -25138532.817 9 -19053222.62847  21040068.044    21040076.0674
  23650472.766     7426125.022 8   5795818.43445  23650472.588    23650483.5044
  20474941.977   -21428026.161 9 -16669473.89447  20474942.192    20474949.7464
  22303830.966    -6465109.938 8  -5022714.20146  22303831.039    22303841.3404
  22371589.698    -5398832.310 8  -4191869.58146  22371589.491    22371598.5494
  24566150.587    -4024569.180 7  -2854037.56145  24566150.898    24566172.2474
  24024454.916    -3620416.374 7  -2809311.21045  24024454.836    24024465.6664
 01  5 23  0  8  0.0000000  0 11 15 17 18 14 21 23 29 03 31 25 09
  22619481.614     1064353.431 8    842244.79046  22619481.289    22619492.4834
  24194586.685    14450085.082 7  11264813.95545  24194586.256    24194602.1244
  22784713.532    -1811960.017 8  -1388259.85646  22784713.401    22784721.6224
  20269646.986   -26289037.288 9 -19827603.04148  20269646.876    20269653.4694
  21041701.290   -25129951.080 9 -19046535.57647  21041701.123    21041709.1364
  23662284.934     7488196.957 8   5844186.07045  23662284.591    23662295.5944
  20468579.280   -21461462.253 9 -16695527.95247  20468579.458    20468587.0394
  22316570.851    -6398162.327 8  -4970547.33146  22316570.859    22316581.1374
  22373752.909    -5387465.099 8  -4183012.03546  22373752.603    22373761.6664
  24547719.491    -4121424.561 7  -2929508.74345  24547719.588    24547740.5124
  24033696.772    -3571848.538 7  -2771466.20645  24033696.848    24033708.0554
 01  5 23  0  8 30.0000000  0 11 15 17 18 14 21 23 29 03 31 25 09
  22636270.303     1152578.352 8    910991.34146  22636270.026    22636281.1584
  24213852.745    14551327.121 7  11343703.49845  24213852.127    24213868.4574
  22797558.109    -1744461.458 8  -1335663.65446  22797557.999    22797566.2364
  20266007.578   -26308161.931 9 -19842505.33748  20266007.495    20266014.1244
  21043363.906   -25121213.942 9 -19039727.42747  21043363.712    21043371.8004
  23674103.946     7550306.122 8   5892582.71745  23674103.619    23674114.8144
  20462306.213   -21494427.211 9 -16721214.89747  20462306.410    20462313.9874
  22329379.622    -6330852.288 8  -4918098.05046  22329379.652    22329389.8854
  22376022.952    -5375535.830 8  -4173716.53046  22376022.672    22376031.7664
  24529277.734    -4218336.234 7  -3005023.77245  24529277.685    24529298.3204
  24043040.514    -3522748.107 7  -2733206.18745  24043040.509    24043051.8084
 01  5 23  0  9  0.0000000  0 11 15 17 18 14 21 23 29 03 31 25 09
  22653112.704     1241084.758 8    979957.22946  22653112.406    22653123.4654
  24233156.778    14652767.984 7  11422747.96745  24233156.334    24233172.1674
  22810417.858    -1676882.944 8  -1283005.13846  22810417.786    22810426.1034
  20262468.079   -26326761.967 9 -19856998.84148  20262468.005    20262474.6234
  21045055.223   -25112325.753 9 -19032801.57547  21045055.072    21045063.2444
  23685929.185     7612448.198 8   5941005.01045  23685928.872    23685940.0244
  20456122.006   -21526925.260 9 -16746538.00547  20456122.191    20456129.7584
  22342255.909    -6263187.090 8  -4865372.01646  22342255.978    22342266.1194
  22378398.775    -5363050.314 8  -4163987.57946  22378398.517    22378407.7014
  24510824.583    -4315305.954 7  -3080584.02545  24510824.480    24510844.9274
  24052484.362    -3473120.791 7  -2694535.62345  24052484.271    24052495.5804
 01  5 23  0  9 30.0000000  0 11 15 17 18 14 21 23 29 03 31 25 09
  22670008.965     1329874.481 8   1049143.88746  22670008.699    22670019.7494
  24252498.664    14754409.233 7  11501948.54544  24252498.245    24252513.8094
  22823293.310    -1609221.557 8  -1230282.07646  22823293.243    22823301.5234
  20259028.981   -26344834.743 9 -19871081.49448  20259028.896    20259035.4054
  21046775.889   -25103283.580 9 -19025755.73547  21046775.740    21046783.8934
  23697761.350     7674626.355 8   5989455.42945  23697761.121    23697772.1684
  20450027.221   -21558953.361 9 -16771494.92947  20450027.421    20450034.9814
  22355199.884    -6195166.341 8  -4812368.93446  22355199.947    22355210.0994
  22380881.036    -5350006.276 8  -4153823.41946  22380880.779    22380889.9334
  24492361.229    -4412328.496 7  -3156185.44245  24492361.253    24492381.5564
  24062028.789    -3422965.072 7  -2655453.28645  24062028.633    24062040.1524
 01  5 23  0 10  0.0000000  0 11 15 17 18 14 21 23 29 03 31 25 09
  22686958.617     1418944.934 8   1118549.28646  22686958.335    22686969.4044
  24271877.868    14856248.224 7  11581303.24244  24271877.708    24271893.4424
  22836184.011    -1541479.022 8  -1177495.74946  22836184.088    22836192.4144
  20255689.853   -26362381.720 9 -19884754.43348  20255689.778    20255696.2674
  21048525.695   -25094088.370 9 -19018590.64847  21048525.559    21048533.6184
  23709600.201     7736839.402 8   6037933.02845  23709599.885    23709610.9984
  20444021.616   -21590512.701 9 -16796086.58247  20444021.818    20444029.3884
  22368210.745    -6126794.319 8  -4759092.13446  22368210.790    22368221.0284
  22383469.102    -5336406.230 8  -4143226.02446  22383468.827    22383477.9294
  24473888.151    -4509402.579 7  -3231827.01845  24473888.071    24473908.1624
  24071673.223    -3372283.738 7  -2615961.37945  24071673.168    24071684.2794
 01  5 23  0 10 30.0000000  0 11 15 17 18 14 21 23 29 03 31 25 09
  22703961.730     1508296.052 8   1188173.38746  22703961.404    22703972.4284
  24291295.044    14958284.524 7  11660811.68444  24291294.796    24291310.9164
  22849090.646    -1473654.717 8  -1124645.73746  22849090.733    22849099.0124
  20252450.862   -26379402.297 9 -19898017.20547  20252450.820    20252457.2894
  21050304.895   -25084738.922 9 -19011305.37847  21050304.707    21050312.7474
  23721445.822     7799088.531 8   6086438.74245  23721445.574    23721456.6634
  20438105.335   -21621602.587 9 -16820312.43247  20438105.574    20438113.1354
  22381288.201    -6058072.726 8  -4705542.94646  22381288.206    22381298.5084
  22386162.935    -5322250.082 8  -4132195.29746  22386162.652    22386171.7914
  24455406.085    -4606524.651 7  -3307505.98745  24455406.055    24455425.6324
  24081417.579    -3321077.120 7  -2576060.16145  24081417.591    24081428.6964
 01  5 23  0 11  0.0000000  0 11 15 17 18 14 21 23 29 03 31 25 09
  22721017.726     1597925.019 8   1258013.98446  22721017.357    22721028.4014
  24310749.138    15060515.182 7  11740471.55545  24310748.869    24310765.5234
  22862012.602    -1405750.326 8  -1071733.30246  22862012.618    22862020.9094
  20249311.804   -26395898.460 9 -19910871.33648  20249311.713    20249318.1704
  21052112.985   -25075237.056 9 -19003901.33947  21052112.816    21052120.9514
  23733298.139     7861372.291 8   6134971.44045  23733297.990    23733308.8094
  20432278.253   -21652224.332 9 -16844173.49247  20432278.468    20432285.9794
  22394431.251    -5989005.691 8  -4651724.57146  22394431.228    22394441.5864
  22388962.107    -5307540.525 8  -4120733.32346  22388961.784    22388970.9594
  24436915.133    -4703693.605 7  -3383221.47845  24436914.967    24436934.4444
  24091261.234    -3269348.447 7  -2535752.18045  24091261.127    24091272.5284
 01  5 23  0 11 30.0000000  0 11 15 17 18 14 21 23 29 03 31 25 09
  22738126.519     1687831.775 8   1328071.04846  22738126.103    22738137.1744
  24330240.032    15162939.731 7  11820282.51544  24330239.855    24330256.9544
  22874949.791    -1337764.950 8  -1018757.73946  22874949.812    22874958.2824
  20246272.551   -26411869.474 9 -19923316.26347  20246272.477    20246278.9084
  21053950.272   -25065581.753 9 -18996377.74247  21053950.144    21053958.3174
  23745157.431     7923691.811 8   6183531.99745  23745157.219    23745167.9944
  20426540.287   -21682377.275 9 -16867669.25847  20426540.500    20426548.0214
  22407639.531    -5919595.237 8  -4597638.61546  22407639.594    22407649.9704
  22391866.639    -5292277.510 8  -4108840.09246  22391866.274    22391875.4574
  24418415.645    -4800906.047 7  -3458970.86545  24418415.604    24418434.8134
  24101204.141    -3217098.041 7  -2495037.60945  24101204.183    24101215.3854
 01  5 23  0 12  0.0000000  0 11 15 17 18 14 21 23 29 03 31 25 09
  22755287.670     1778014.789 8   1398343.37446  22755287.363    22755298.4324
  24349767.656    15265556.431 7  11900243.20345  24349767.417    24349784.6804
  22887902.296    -1269699.606 8   -965719.90746  22887902.305    22887910.9164
  20243333.150   -26427316.120 9 -19935352.59348  20243333.082    20243339.5004
  21055816.860   -25055772.962 9 -18988734.54947  21055816.741    21055824.8294
  23757023.372     7986046.827 8   6232120.20645  23757023.025    23757033.8374
  20420891.530   -21712061.344 9 -16890799.66347  20420891.741    20420899.2184
  22420912.826    -5849844.334 8  -4543287.37446  22420912.835    22420923.1364
  22394876.057    -5276462.752 8  -4096516.93646  22394875.760    22394884.9194
  24399908.063    -4898159.899 7  -3534752.50945  24399908.266    24399927.5764
  24111245.903    -3164327.838 7  -2453918.01045  24111245.972    24111257.1334
 01  5 23  0 12 30.0000000  0 10 15 18 14 21 23 29 03 31 25 09
  22772501.351     1868472.775 8   1468829.96746  22772501.065    22772512.1284
  22900870.029    -1201554.130 8   -912619.59646  22900869.988    22900878.6924
  20240493.491   -26442238.852 9 -19946980.68148  20240493.408    20240499.8164
  21057712.691   -25045810.479 9 -18980971.58747  21057712.529    21057720.5624
  23768895.844     8048437.521 8   6280736.23745  23768895.496    23768906.2794
  20415332.044   -21741276.680 9 -16913564.81947  20415332.230    20415339.6434
  22434250.396    -5779755.627 8  -4488672.91246  22434250.402    22434260.6914
  22397990.403    -5260097.190 8  -4083764.58446  22397990.074    22397999.2564
  24381393.242    -4995452.173 7  -3610564.09445  24381393.604    24381412.8724
  24121386.244    -3111039.236 7  -2412394.49945  24121386.132    24121397.7234
 01  5 23  0 13  0.0000000  0 10 15 18 14 21 23 29 03 31 25 09
  22789767.197     1959204.856 8   1539530.14546  22789766.893    22789778.0094
  22913852.987    -1133328.280 8   -859456.68246  22913852.959    22913861.7134
  20237753.547   -26456637.415 9 -19958200.31948  20237753.475    20237759.8284
  21059637.770   -25035693.857 9 -18973088.51947  21059637.616    21059645.7164
  23780775.024     8110864.463 8   6329380.52945  23780774.871    23780785.7664
  20409861.696   -21770022.984 9 -16935964.50647  20409861.907    20409869.3294
  22447651.705    -5709331.617 8  -4433797.16146  22447651.714    22447662.0804
  22401209.261    -5243181.420 8  -4070583.49546  22401209.016    22401218.2284
  24362871.833    -5092779.832 7  -3686403.25145  24362872.246    24362891.4294
  24131625.189    -3057233.525 7  -2370468.04545  24131625.293    24131636.7984
 01  5 23  0 13 30.0000000  0 10 15 18 14 21 23 29 03 31 25 09
  22807084.887     2050208.737 8   1610442.11146  22807084.523    22807095.6684
  22926851.118    -1065023.496 8   -806232.26046  22926851.051    22926859.6884
  20235113.030   -26470513.337 9 -19969012.70748  20235112.953    20235119.3374
  21061592.053   -25025424.011 9 -18965086.05247  21061591.913    21061600.0424
  23792661.314     8173326.605 8   6378052.24345  23792661.183    23792672.0964
  20404480.435   -21798301.297 9 -16957999.51847  20404480.662    20404488.0954
  22461116.109    -5638576.160 8  -4378663.13546  22461116.083    22461126.5944
  22404532.451    -5225718.103 8  -4056975.75046  22404532.225    22404541.3844
  24344344.138    -5190141.372 7  -3762268.79145  24344344.492    24344363.5614
  24141962.118    -3002913.269 8  -2328140.62745  24141962.147    24141973.7684
 01  5 23  0 14  0.0000000  0 10 15 18 14 21 23 29 03 31 25 09
  22824453.914     2141482.929 8   1681564.70746  22824453.579    22824464.7424
  22939864.060     -996640.247 8   -752946.68746  22939864.032    22939872.6244
  20232571.761   -26483867.328 9 -19979418.38748  20232571.712    20232578.0784
  21063575.530   -25015001.194 9 -18956964.38747  21063575.380    21063583.4384
  23804554.390     8235824.071 8   6426751.47645  23804554.170    23804565.3084
  20399188.217   -21826112.098 9 -16979670.23647  20399188.426    20399195.8194
  22474642.897    -5567492.354 8  -4323273.25546  22474642.948    22474653.5094
  22407959.705    -5207708.277 8  -4042942.15646  22407959.413    22407968.6124
  24325810.228    -5287534.855 7  -3838159.24245  24325810.572    24325829.7474
  24152396.444    -2948080.093 7  -2285413.53645  24152396.434    24152408.2594
 01  5 23  0 14 30.0000000  0 10 15 18 14 21 23 29 03 31 25 09
  22841874.349     2233027.558 8   1752898.02546  22841874.039    22841885.2774
  22952892.278     -928177.672 8   -699599.30246  22952892.203    22952900.6924
  20230129.937   -26496698.793 9 -19989416.90748  20230129.893    20230136.2624
  21065588.475   -25004423.604 9 -18948722.12147  21065588.316    21065596.2504
  23816454.361     8298358.223 8   6475479.29145  23816454.131    23816465.5124
  20393985.161   -21853454.185 9 -17000975.73047  20393985.388    20393992.7674
  22488231.903    -5496081.974 8  -4267628.91946  22488231.951    22488242.5724
  22411490.815    -5189152.137 8  -4028482.85146  22411490.508    22411499.7474
  24307271.074    -5384956.417 7  -3914071.57345  24307271.457    24307290.5544
  24162928.306    -2892734.363 7  -2242287.05345  24162928.333    24162939.9724
 01  5 23  0 15  0.0000000  0 10 15 18 14 21 23 29 03 31 25 09
  22859346.095     2324840.887 8   1824440.73546  22859345.714    22859356.9034
  22965935.345     -859636.058 8   -646190.32046  22965935.274    22965943.7444
  20227787.396   -26509008.466 9 -19999008.83748  20227787.404    20227793.7794
  21067630.689   -24993691.744 9 -18940359.65147  21067630.513    21067638.4374
  23828361.518     8360928.957 8   6524235.60045  23828361.198    23828372.3914
  20388871.269   -21880328.041 9 -17021916.37247  20388871.478    20388878.8454
  22501882.411    -5424348.110 8  -4211732.52046  22501882.481    22501893.1434
  22415125.625    -5170051.223 8  -4013599.06446  22415125.362    22415134.4804
  24288727.169    -5482403.552 7  -3990003.83245  24288727.385    24288746.4604
  24173557.478    -2836878.102 7  -2198762.76345  24173557.404    24173569.0314
 01  5 23  0 15 30.0000000  0 10 15 18 14 21 23 29 03 31 25 09
  22876868.556     2416921.078 8   1896191.37046  22876868.183    22876879.2354
  22978993.103     -791016.632 8   -592720.71146  22978993.084    22979001.6664
  20225544.036   -26520797.743 9 -20008195.26648  20225544.007    20225550.3524
  21069702.130   -24982805.898 9 -18931877.18547  21069701.989    21069710.0104
  23840275.252     8423535.654 7   6573019.93545  23840274.842    23840285.9024
  20383846.299   -21906734.538 9 -17042492.83247  20383846.487    20383853.8154
  22515593.860    -5352294.462 8  -4155586.93446  22515593.928    22515604.5534
  22418863.795    -5150407.645 8  -3998292.43046  22418863.474    22418872.5404
  24270178.546    -5579874.551 7  -4065954.69345  24270178.846    24270197.9494
  24184283.355    -2780513.863 7  -2154842.60945  24184283.309    24184294.6644
 01  5 23  0 16  0.0000000  0 10 15 18 14 21 23 29 03 31 25 09
  22894441.484     2509266.500 8   1968148.69446  22894441.069    22894452.0434
  22992065.824     -722319.585 8   -539190.62146  22992065.794    22992074.3504
  20223399.556   -26532067.125 9 -20016976.58048  20223399.492    20223405.8714
  21071802.921   -24971766.198 9 -18923274.83247  21071802.794    21071810.8524
  23852195.691     8486178.418 8   6621832.37345  23852195.299    23852206.5174
  20378910.139   -21932673.997 9 -17062705.37247  20378910.344    20378917.6734
  22529365.684    -5279923.912 8  -4099194.42046  22529365.705    22529376.3254
  22422704.804    -5130222.764 8  -3982563.99246  22422704.545    22422713.6694
  24251625.758    -5677366.925 8  -4141922.20545  24251626.229    24251645.4744
  24195105.581    -2723643.371 7  -2110528.03045  24195105.566    24195117.1484
 01  5 23  0 16 30.0000000  0 10 15 18 14 21 23 29 03 31 25 09
  22912065.018     2601878.197 8   2040313.51046  22912064.548    22912075.6474
  23005153.798     -653542.828 8   -485598.43346  23005153.694    23005162.1824
  20221354.331   -26542814.764 9 -20025351.34348  20221354.298    20221360.6804
  21073933.536   -24960570.209 9 -18914550.70547  21073933.380    21073941.4054
  23864123.550     8548859.705 8   6670674.83445  23864123.161    23864134.5624
  20374063.263   -21958144.244 9 -17082552.28647  20374063.469    20374070.7924
  22543197.771    -5207236.461 8  -4042554.96446  22543197.779    22543208.4784
  22426649.039    -5109495.408 8  -3966412.84846  22426648.795    22426658.0404
  24233069.940    -5774875.663 8  -4217902.49145  24233070.445    24233089.7374
  24206024.347    -2666265.959 8  -2065818.41845  24206024.268    24206035.7794
 01  5 23  0 17  0.0000000  0 10 15 18 14 21 23 29 03 31 25 09
  22929738.207     2694751.799 8   2112682.38846  22929737.853    22929749.1564
  23018256.030     -584689.667 8   -431946.68146  23018255.923    23018264.4974
  20219407.628   -26553044.473 9 -20033322.52748  20219407.566    20219414.0384
  21076093.202   -24949220.740 9 -18905706.97947  21076093.055    21076101.1334
  23876058.355     8611576.523 8   6719544.95745  23876058.058    23876069.2384
  20369305.037   -21983148.592 9 -17102036.16647  20369305.273    20369312.5884
  22557088.656    -5134238.548 8  -3985673.57846  22557088.772    22557099.6854
  22430695.715    -5088230.035 8  -3949842.47046  22430695.523    22430704.7914
  24214510.796    -5872401.610 8  -4293896.18645  24214511.363    24214530.6574
  24217038.518    -2608386.650 7  -2020717.72145  24217038.503    24217049.7994
 01  5 23  0 17 30.0000000  0 10 15 18 14 21 23 29 03 31 25 09
  22947461.362     2787887.227 8   2185255.28546  22947460.943    22947472.4324
  23031373.006     -515759.214 8   -378234.70346  23031372.982    23031381.6824
  20217559.591   -26562755.918 9 -20040889.87548  20217559.545    20217565.9584
  21078282.353   -24937716.569 9 -18896742.70647  21078282.239    21078290.2544
  23888000.019     8674330.198 7   6768443.81545  23887999.663    23888010.6734
  20364635.735   -22007686.237 9 -17121156.37547  20364635.926    20364643.2004
  22571038.395    -5060932.122 8  -3928551.81146  22571038.565    22571049.5094
  22434844.705    -5066427.270 8  -3932853.34846  22434844.481    22434853.7584
  24195949.507    -5969940.806 8  -4369900.21945  24195949.983    24195968.9224
  24228147.827    -2550005.985 7  -1975226.33045  24228147.943    24228159.3924
 01  5 23  0 18  0.0000000  0 10 15 18 14 21 23 29 03 31 25 09
  22965234.231     2881283.208 8   2258031.20346  22965233.829    22965245.0874
  23044504.806     -446751.372 8   -324462.44346  23044504.851    23044513.5184
  20215810.101   -26571949.359 9 -20048053.58048  20215810.056    20215816.4404
  21080501.306   -24926056.657 9 -18887657.08447  21080501.142    21080509.0564
  23899948.386     8737121.033 8   6817371.62745  23899948.250    23899959.5924
  20360055.140   -22031757.192 9 -17139912.93847  20360055.347    20360062.6204
  22585046.651    -4987319.622 8  -3871191.54046  22585046.737    22585057.6114
  22439095.719    -5044088.217 8  -3915446.33146  22439095.497    22439104.7844
  24177386.272    -6067490.378 8  -4445912.34545  24177386.625    24177405.1474
  24239351.980    -2491125.495 7  -1929345.49845  24239352.296    24239364.1234
 01  5 23  0 18 30.0000000  0 10 15 18 14 21 23 29 03 31 25 09
  22983056.482     2974938.611 8   2331009.28046  22983056.021    22983067.1854
  23057651.343     -377666.224 8   -270629.92746  23057651.300    23057660.0034
  20214159.127   -26580625.118 9 -20054813.89648  20214159.089    20214165.4564
  21082749.753   -24914241.279 9 -18878450.30947  21082749.576    21082757.4994
  23911904.573     8799949.509 8   6866328.76045  23911904.422    23911915.7054
  20355563.379   -22055361.444 9 -17158305.83147  20355563.587    20355570.8324
  22599112.465    -4913403.425 8  -3813594.63446  22599112.630    22599123.5164
  22443448.538    -5021213.975 8  -3897622.28846  22443448.284    22443457.6124
  24158821.397    -6165047.418 7  -4521930.31045  24158821.717    24158840.0674
  24250651.502    -2431746.696 7  -1883076.37145  24250651.733    24250663.6564
 01  5 23  0 19  0.0000000  0 10 15 18 14 21 23 29 03 31 25 09
  23000927.606     3068851.473 8   2404187.98046  23000927.179    23000938.3534
  23070812.443     -308504.611 8   -216737.85246  23070812.419    23070820.9164
  20212606.422   -26588784.521 9 -20061171.85848  20212606.364    20212612.7264
  21085027.554   -24902271.178 9 -18869122.97547  21085027.389    21085035.3914
  23923867.796     8862815.053 8   6915314.74745  23923867.541    23923878.7174
  20351160.272   -22078499.856 9 -17176335.73347  20351160.495    20351167.7164
  22613235.355    -4839187.417 8  -3755764.09846  22613235.482    22613246.4634
  22447902.693    -4997806.749 8  -3879382.93946  22447902.530    22447911.9034
  24140255.442    -6262609.987 8  -4597952.57945  24140255.730    24140273.9644
  24262045.207    -2371872.021 7  -1836420.83945  24262045.336    24262057.2844
 01  5 23  0 19 30.0000000  0 10 15 18 14 21 23 29 03 31 25 09
  23018847.758     3163021.914 8   2477567.38246  23018847.344    23018858.5494
  23083988.246     -239265.459 8   -162785.35046  23083988.138    23083996.7924
  20211152.101   -26596426.859 9 -20067126.90548  20211152.070    20211158.4694
  21087335.135   -24890144.262 9 -18859673.44647  21087334.992    21087343.0394
  23935837.764     8925719.167 7   6964330.83845  23935837.674    23935848.8664
  20346846.029   -22101171.609 9 -17194002.00148  20346846.221    20346853.4454
  22627415.130    -4764673.015 8  -3697701.05046  22627415.196    22627426.1564
  22452458.458    -4973866.699 8  -3860728.40846  22452458.236    22452467.6244
  24121689.475    -6360173.906 7  -4673975.92345  24121689.573    24121707.5264
  24273533.407    -2311502.079 7  -1789379.37745  24273533.742    24273545.1834
 01  5 23  0 20  0.0000000  0 10 15 18 14 21 23 29 03 31 25 09
  23036816.418     3257446.762 8   2551145.01246  23036815.963    23036827.1264
  23097178.651     -169950.389 8   -108773.66846  23097178.505    23097187.2574
  20209795.777   -26603554.619 9 -20072680.99448  20209795.730    20209802.1474
  21089672.339   -24877862.134 9 -18850102.98147  21089672.204    21089680.1564
  23947815.344     8988660.701 8   7013376.03745  23947815.142    23947826.3244
  20342620.190   -22123378.366 9 -17211305.94248  20342620.387    20342627.6234
  22641650.923    -4689864.667 8  -3639408.97146  22641650.921    22641661.8234
  22457114.954    -4949396.843 8  -3841661.04646  22457114.663    22457124.1454
  24103123.356    -6457738.453 7  -4749999.77245  24103123.395    24103140.9164
  24285115.239    -2250639.934 7  -1741954.39145  24285115.245    24285127.1534
 01  5 23  0 20 30.0000000  0 10 15 18 14 21 23 29 03 31 25 09
  23054833.136     3352125.214 8   2624920.28146  23054832.731    23054843.9814
  23110383.452     -100559.348 8    -54702.80146  23110383.325    23110392.1514
  20208537.340   -26610167.931 9 -20077834.21448  20208537.271    20208543.6794
  21092039.265   -24865424.060 9 -18840410.99547  21092039.125    21092047.0104
  23959800.293     9051640.404 8   7062450.98745  23959800.025    23959811.2454
  20338482.847   -22145120.055 9 -17228247.48448  20338483.081    20338490.3324
  22655941.913    -4614765.105 8  -3580889.95146  22655941.938    22655952.8954
  22461872.178    -4924398.094 8  -3822181.55646  22461871.859    22461881.3094
  24084557.542    -6555300.373 7  -4826021.57445  24084557.569    24084574.8684
  24296790.491    -2189287.184 7  -1694147.15545  24296790.402    24296802.4814
 01  5 23  0 21  0.0000000  0 10 15 18 14 21 23 29 03 31 25 09
  23072897.980     3447056.115 8   2698892.24546  23072897.595    23072908.9694
  23123602.673      -31092.176 8      -572.60646  23123602.552    23123611.4224
  20207376.644   -26616267.431 9 -20082587.05348  20207376.604    20207382.9674
  21094435.902   -24852829.838 9 -18830597.33047  21094435.736    21094443.6654
  23971792.462     9114658.527 8   7111555.89645  23971792.143    23971803.4864
  20334433.995   -22166396.826 9 -17244826.76048  20334434.194    20334441.4394
  22670287.778    -4539376.999 8  -3522146.08846  22670287.856    22670298.8564
  22466729.702    -4898871.880 8  -3802291.05046  22466729.357    22466738.8514
  24065992.732    -6652856.885 7  -4902039.16645  24065992.880    24066009.8264
  24308558.637    -2127445.526 7  -1645958.93445  24308558.585    24308570.5864
 01  5 23  0 21 30.0000000  0 10 15 18 14 21 23 29 03 31 25 09
  23091010.835     3542238.380 8   2773060.07646  23091010.395    23091021.7334
  23136836.321       38451.176 8     53616.92146  23136836.251    23136844.9394
  20206313.588   -26621853.584 9 -20086939.88948  20206313.540    20206319.8994
  21096862.340   -24840078.685 9 -18820661.38347  21096862.166    21096870.1604
  23983791.772     9177715.561 7   7160691.12445  23983791.397    23983802.9124
  20330473.586   -22187208.823 9 -17261043.87447  20330473.766    20330481.0024
  22684688.302    -4463702.793 8  -3463179.31746  22684688.316    22684699.2734
  22471687.336    -4872819.519 8  -3781990.55146  22471687.025    22471696.4794
  24047429.370    -6750405.243 7  -4978050.41045  24047429.662    24047446.4804
  24320419.677    -2065116.644 7  -1597391.04745  24320419.822    24320431.3554
 01  5 23  0 22  0.0000000  0 10 15 18 14 21 23 29 03 31 25 09
  23109170.982     3637669.420 8   2847421.76346  23109170.494    23109181.9854
  23150084.440      108069.662 8    107865.00446  23150084.330    23150092.8924
  20205347.912   -26626928.247 9 -20090894.16648  20205347.869    20205354.2004
  21099318.473   -24827171.689 9 -18810604.00847  21099318.306    21099326.2604
  23995798.407     9240810.550 8   7209855.93645  23995798.115    23995809.6564
  20326601.319   -22207557.419 9 -17276899.90247  20326601.507    20326608.7544
  22699142.449    -4387746.625 8  -3403992.82946  22699142.451    22699153.4364
  22476744.679    -4846243.564 8  -3761282.05246  22476744.283    22476753.7024
  24028868.048    -6847943.746 7  -5054053.99545  24028868.482    24028885.1554
  24332373.089    -2002303.388 7  -1548445.70745  24332373.059    24332384.4224
 01  5 23  0 22 30.0000000  0 10 15 18 14 21 23 29 03 31 25 09
  23127378.287     3733348.843 8   2921976.98146  23127377.800    23127389.4404
  23163346.716      177763.862 8    162172.10646  23163346.679    23163355.3244
  20204479.652   -26631491.171 9 -20094449.67948  20204479.580    20204485.8334
  21101804.624   -24814107.209 9 -18800423.92047  21101804.455    21101812.3074
  24007812.697     9303944.851 8   7259051.34945  24007812.406    24007823.9384
  20322817.395   -22227442.040 9 -17292394.38147  20322817.576    20322824.7694
  22713649.619    -4311510.424 8  -3344588.12646  22713649.727    22713660.8764
  22481901.422    -4819144.714 8  -3740166.11146  22481901.053    22481910.4044
  24010309.264    -6945468.618 7  -5130046.94045  24010309.758    24010326.3714
  24344418.275    -1939006.656 7  -1499123.61045  24344418.040    24344429.3334
 01  5 23  0 23  0.0000000  0 10 15 18 14 21 23 29 03 31 25 09
  23145632.390     3829275.167 8   2996724.59945  23145632.092    23145643.7864
  23176623.534      247533.485 8    216537.96246  23176623.447    23176632.1264
  20203708.535   -26635543.045 9 -20097606.97348  20203708.494    20203714.7124
  21104320.632   -24800885.606 9 -18790121.39147  21104320.433    21104328.3054
  24019834.055     9367118.391 7   7308277.36545  24019833.826    24019845.5974
  20319121.589   -22246863.317 9 -17307527.81647  20319121.795    20319128.9554
  22728209.737    -4234997.280 8  -3284967.62246  22728209.788    22728220.9634
  22487157.335    -4791524.861 8  -3718644.19846  22487156.936    22487166.2834
  23991753.701    -7042977.486 8  -5206027.44245  23991754.235    23991770.7104
  24356554.875    -1875228.654 7  -1449426.55245  24356554.678    24356565.8684
 01  5 23  0 23 30.0000000  0 10 15 18 14 21 23 29 03 31 25 09
  23163933.648     3925447.570 8   3071663.95145  23163933.272    23163944.9914
  23189914.736      317379.014 8    270962.97546  23189914.676    23189923.3844
  20203034.625   -26639084.526 9 -20100366.55648  20203034.590    20203040.8084
  21106866.592   -24787506.203 9 -18779695.89647  21106866.400    21106874.3954
  24031863.098     9430331.881 8   7357534.50745  24031862.907    24031874.8454
  20315514.017   -22265821.138 9 -17322300.11747  20315514.222    20315521.3154
  22742822.133    -4158209.386 8  -3225133.04046  22742822.191    22742833.2984
  22492512.117    -4763385.003 8  -3696717.09046  22492511.808    22492521.2094
  23973201.686    -7140467.226 8  -5281993.03745  23973202.069    23973218.7084
  24368782.655    -1810970.693 7  -1399355.47045  24368782.273    24368793.5464
 01  5 23  0 24  0.0000000  0 10 15 18 14 21 23 29 03 31 25 09
  23182281.057     4021863.633 8   3146793.16345  23182280.601    23182292.6454
  23203220.050      387299.577 8    325446.46046  23203220.006    23203228.8874
  20202457.515   -26642117.273 9 -20102729.72048  20202457.450    20202463.6764
  21109442.647   -24773969.110 9 -18769147.53147  21109442.477    21109450.4614
  24043900.298     9493584.687 8   7406822.27745  24043899.984    24043911.5494
  20311994.383   -22284316.845 9 -17336712.32847  20311994.589    20312001.6684
  22757485.853    -4081150.808 8  -3165087.50546  22757485.951    22757497.1654
  22497965.554    -4734727.690 8  -3674386.78046  22497965.223    22497974.5794
  23954653.850    -7237935.636 8  -5357942.01145  23954654.089    23954670.5714
  24381101.020    -1746235.643 7  -1348912.65345  24381100.864    24381112.4054
 01  5 23  0 24 30.0000000  0 10 15 18 14 21 23 29 03 31 25 09
  23200674.340     4118521.850 8   3222111.10445  23200674.047    23200686.3184
  23216539.584      457294.562 8    379987.92346  23216539.643    23216548.6494
  20201977.012   -26644641.995 9 -20104697.02448  20201976.972    20201983.2264
  21112048.722   -24760274.361 9 -18758476.32247  21112048.553    21112056.5234
  24055944.539     9556876.914 7   7456140.77745  24055944.146    24055955.8204
  20308562.633   -22302350.791 9 -17350764.73148  20308562.825    20308569.8884
  22772200.553    -4003824.572 8  -3104833.44046  22772200.674    22772211.8904
  22503517.083    -4705554.561 8  -3651654.53346  22503516.690    22503526.1454
  23936110.246    -7335380.408 8  -5433872.59245  23936110.686    23936127.0114
  24393510.095    -1681025.536 7  -1298099.64745  24393510.025    24393521.8784
 01  5 23  0 25  0.0000000  0 10 15 18 14 21 23 29 03 31 25 09
  23219113.840     4215421.875 8   3297617.43145  23219113.572    23219126.0164
  23229873.599      527365.059 8    434588.24045  23229873.624    23229882.7384
  20201593.210   -26646658.785 9 -20106268.53448  20201593.138    20201599.4514
  21114684.996   -24746420.771 9 -18747681.33747  21114684.808    21114692.8084
  24067996.059     9620209.975 7   7505491.10445  24067995.863    24068007.8884
  20305218.826   -22319922.411 9 -17364456.87648  20305219.039    20305226.0964
  22786966.009    -3926232.390 8  -3044372.13046  22786966.151    22786977.2504
  22509166.571    -4675866.282 8  -3628520.86046  22509166.218    22509175.7124
  23917571.989    -7432797.908 8  -5509781.92745  23917572.490    23917588.7314
  24406009.361    -1615341.246 7  -1246917.19445  24406009.412    24406021.3564
 01  5 23  0 25 30.0000000  0 10 15 18 14 21 23 29 03 31 25 09
  23237599.155     4312561.348 8   3373310.35145  23237598.754    23237611.2634
  23243221.634      597510.039 8    489246.58445  23243221.732    23243231.0674
  20201305.720   -26648169.370 9 -20107445.60048  20201305.647    20201311.9934
  21117351.214   -24732409.370 9 -18736763.38347  21117351.052    21117359.1274
  24080055.752     9683583.066 7   7554872.61145  24080055.465    24080067.2984
  20301962.736   -22337033.313 9 -17377790.01948  20301962.924    20301970.0394
  22801781.437    -3848378.316 8  -2983706.76646  22801781.465    22801792.5134
  22514913.505    -4645665.488 8  -3604987.82646  22514913.240    22514922.8244
  23899039.276    -7530186.606 8  -5585668.83245  23899039.690    23899055.7964
  24418598.225    -1549185.687 7  -1195367.48145  24418598.226    24418610.3394
 01  5 23  0 26  0.0000000  0 10 15 18 14 21 23 29 03 31 25 09
  23256129.530     4409938.226 8   3449188.24845  23256129.156    23256141.5774
  23256583.894      667728.740 8    543962.36845  23256584.001    23256593.3184
  20201114.308   -26649175.146 9 -20108229.31048  20201114.250    20201120.5534
  21120047.676   -24718239.542 9 -18725721.97247  21120047.505    21120055.6114
  24092123.149     9746996.009 8   7604285.17045  24092122.850    24092134.3914
  20298794.032   -22353684.479 9 -17390764.92748  20298794.257    20298801.4044
  22816645.821    -3770265.988 8  -2922840.12046  22816645.804    22816657.0474
  22520757.657    -4614954.562 8  -3581057.28946  22520757.384    22520766.8854
  23880512.557    -7627543.936 8  -5661531.30045  23880512.906    23880528.7914
  24431276.612    -1482561.747 7  -1143452.79645  24431276.659    24431288.4944
 01  5 23  0 26 30.0000000  0 10 15 18 14 21 23 29 03 31 25 09
  23274704.948     4507551.601 8   3525250.43645  23274704.567    23274716.8154
  23269960.249      738021.574 8    598735.91445  23269960.311    23269969.7144
  20201018.887   -26649676.692 9 -20108620.11248  20201018.836    20201025.1014
  21122774.360   -24703910.992 9 -18714556.89947  21122774.178    21122782.2454
  24104198.161     9810449.441 8   7653729.27745  24104197.791    24104209.0944
  20295712.881   -22369875.909 9 -17403381.60348  20295713.090    20295720.2614
  22831558.914    -3691897.757 8  -2861774.10146  22831558.910    22831570.2774
  22526698.589    -4583734.853 8  -3556730.31646  22526698.351    22526707.7194
  23861992.594    -7724866.623 8  -5737366.77745  23861992.767    23862008.5494
  24444043.539    -1415470.955 7  -1091174.34345  24444043.761    24444055.5634
 01  5 23  0 27  0.0000000  0 10 15 18 14 21 23 29 03 31 25 09
  23293324.906     4605400.412 8   3601496.07245  23293324.636    23293336.8394
  23283351.000      808388.897 8    653567.50745  23283350.971    23283360.2084
  20201019.308   -26649674.620 9 -20108618.48648  20201019.255    20201025.4734
  21125531.377   -24689422.820 9 -18703267.44447  21125531.199    21125539.2314
  24116280.776     9873943.933 7   7703205.40045  24116280.387    24116291.8704
  20292719.240   -22385607.624 9 -17415640.06048  20292719.423    20292726.6414
  22846520.400    -3613275.964 8  -2800510.49846  22846520.253    22846531.5424
  22532736.022    -4552007.711 8  -3532007.92546  22532735.852    22532745.1924
  23843479.701    -7822151.908 8  -5813173.12645  23843479.772    23843495.1934
  24456898.713    -1347914.971 7  -1038533.41545  24456898.982    24456910.7834
 01  5 23  0 27 30.0000000  0  9 15 18 14 21 23 29 03 31 25
  23311990.365     4703487.204 8   3677927.15545  23311990.084    23312002.3464
  23296756.474      878834.338 8    708459.97845  23296756.381    23296765.5254
  20201116.211   -26649165.510 9 -20108221.76648  20201116.148    20201122.3284
  21128319.541   -24674770.902 9 -18691850.39447  21128319.379    21128327.4144
  24128371.863     9937484.000 8   7752717.01645  24128371.556    24128383.3064
  20289813.675   -22400876.350 9 -17427537.74548  20289813.874    20289821.0444
  22861530.080    -3534399.910 8  -2739048.76946  22861529.922    22861541.2074
  22538870.449    -4519770.911 8  -3506888.38746  22538870.305    22538879.7354
  23824975.324    -7919392.851 8  -5888944.90845  23824975.303    23824990.3994
 01  5 23  0 28  0.0000000  0  9 15 18 14 21 23 29 03 31 25
  23330699.835     4801804.681 8   3754537.97645  23330699.443    23330711.7364
  23310175.665      949351.917 8    763408.63545  23310175.501    23310184.7344
  20201308.177   -26648156.578 9 -20107435.57748  20201308.106    20201314.3114
  21131137.898   -24659960.519 9 -18680309.85947  21131137.698    21131145.8024
  24140470.649    10001063.929 7   7802259.69845  24140470.500    24140482.2504
  20286994.976   -22415688.398 9 -17439079.58347  20286995.186    20287002.2954
  22876586.582    -3455278.155 8  -2677395.57246  22876586.409    22876597.7434
  22545100.523    -4487032.043 8  -3481377.62346  22545100.322    22545109.7924
  23806478.691    -8016592.685 8  -5964684.65445  23806478.608    23806493.3934
 01  5 23  0 28 30.0000000  0  9 15 18 14 21 23 29 03 31 25
  23349452.778     4900351.289 8   3831327.35545  23349452.351    23349464.7524
  23323608.576     1019941.706 8    818413.57845  23323608.372    23323617.6204
  20201595.095   -26646648.565 9 -20106260.48948  20201595.047    20201601.2494
  21133986.346   -24644991.765 9 -18668645.91947  21133986.126    21133994.3024
  24152577.243    10064683.999 8   7851833.65645  24152577.179    24152588.7754
  20284263.138   -22430044.352 9 -17450266.01948  20284263.337    20284270.4474
  22891689.199    -3375913.609 8  -2615553.19546  22891689.093    22891700.4874
  22551425.868    -4453793.019 8  -3455477.14046  22551425.623    22551435.0774
  23787990.200    -8113748.656 8  -6040390.25145  23787990.167    23788004.6174
 01  5 23  0 29  0.0000000  0  9 15 18 14 21 23 29 03 31 25
  23368249.127     4999126.202 8   3908294.62245  23368248.768    23368261.0754
  23337055.212     1090604.552 8    873475.42445  23337055.034    23337064.4164
  20201976.965   -26644641.807 9 -20104696.77848  20201976.903    20201983.1234
  21136865.204   -24629863.217 9 -18656857.47047  21136865.013    21136873.1914
  24164691.723    10128345.404 7   7901439.80145  24164691.642    24164703.1834
  20281618.126   -22443943.890 9 -17461096.80648  20281618.328    20281625.4684
  22906837.747    -3296308.561 8  -2553523.41346  22906837.576    22906848.9744
  22557845.927    -4420055.028 8  -3429187.84046  22557845.689    22557855.3084
  23769510.583    -8210857.538 8  -6116059.14745  23769510.621    23769524.9994
 01  5 23  0 29 30.0000000  0  9 15 18 14 21 23 29 03 31 25
  23387088.992     5098128.722 8   3985439.23445  23387088.415    23387100.6674
  23350515.765     1161340.718 8    928594.41845  23350515.744    23350525.1614
  20202453.633   -26642136.641 9 -20102744.69248  20202453.602    20202459.8774
  21139774.579   -24614574.484 9 -18644944.19747  21139774.409    21139782.5714
  24176814.186    10192048.727 7   7951078.62845  24176814.031    24176825.4924
  20279059.870   -22457387.324 9 -17471572.18848  20279060.099    20279067.2504
  22922031.390    -3216465.684 8  -2491308.31546  22922031.268    22922042.6624
  22564360.862    -4385819.131 8  -3402510.58146  22564360.648    22564370.2894
  23751040.584    -8307915.998 8  -6191688.73845  23751040.658    23751055.0244
 01  5 23  0 30  0.0000000  0  9 15 18 14 21 23 29 03 31 25
  23405971.566     5197357.338 8   4062760.04445  23405971.073    23405983.4124
  23363990.481     1232150.272 8    983770.59345  23363990.485    23363999.9374
  20203025.004   -26639134.158 9 -20100405.08248  20203024.917    20203031.2724
  21142714.568   -24599124.824 9 -18632905.51647  21142714.373    21142722.5464
  24188944.608    10255794.418 7   8000750.48145  24188944.382    24188955.8734
  20276588.436   -22470374.892 9 -17481692.34548  20276588.650    20276595.8104
  22937269.710    -3136387.734 8  -2428910.04646  22937269.628    22937281.0624
  22570970.234    -4351087.269 8  -3375446.86546  22570969.943    22570979.5164
  23732580.949    -8404921.120 8  -6267276.77945  23732580.967    23732595.3144
 01  5 23  0 30 30.0000000  0  9 15 18 14 21 23 29 03 31 25
  23424896.775     5296810.796 8   4140256.05045  23424896.352    23424909.0164
  23377479.032     1303033.257 8   1039003.98645  23377479.097    23377488.6104
  20203690.767   -26635635.039 9 -20097678.48548  20203690.726    20203697.1094
  21145685.207   -24583513.639 9 -18620740.97747  21145685.037    21145693.2464
  24201083.208    10319582.911 8   8050455.66845  24201083.099    24201094.5234
  20274203.597   -22482907.125 9 -17491457.70148  20274203.781    20274210.9904
  22952552.231    -3056077.430 8  -2366330.72546  22952552.199    22952563.7964
  22577673.536    -4315861.293 8  -3347998.12246  22577673.232    22577682.7994
  23714132.090    -8501869.679 8  -6342820.75545  23714132.029    23714146.2274
 01  5 23  0 31  0.0000000  0  9 15 18 14 21 23 29 03 31 25
  23443864.694     5396487.509 8   4217926.03345  23443864.300    23443877.1154
  23390981.602     1373989.617 8   1094294.54945  23390981.651    23390991.1864
  20204450.998   -26631640.389 9 -20094565.75448  20204450.920    20204457.2494
  21148686.750   -24567740.494 9 -18608450.23947  21148686.609    21148694.8024
  24213230.116    10383414.744 7   8100194.64145  24213229.969    24213241.5214
  20271905.245   -22494984.497 9 -17500868.61548  20271905.472    20271912.6704
  22967878.684    -2975537.288 8  -2303572.30646  22967878.618    22967890.3254
  22584470.398    -4280142.861 8  -3320165.61746  22584470.236    22584479.8064
  23695694.507    -8598758.920 8  -6418318.49745  23695694.273    23695708.5474
 01  5 23  0 31 30.0000000  0  9 15 18 14 21 23 29 03 31 25
  23462874.806     5496385.235 8   4295768.22045  23462874.479    23462887.2504
  23404498.003     1445018.461 8   1149641.59045  23404498.033    23404507.6274
  20205305.042   -26627152.067 9 -20091068.35648  20205304.988    20205311.3194
  21151719.121   -24551805.714 9 -18596033.55347  21151718.950    21151727.1154
  24225385.033    10447289.143 7   8149966.77145  24225384.925    24225396.7984
  20269693.225   -22506608.698 9 -17509926.41148  20269693.413    20269700.6444
  22983248.053    -2894771.404 8  -2240637.97846  22983247.889    22983259.6334
  22591360.703    -4243934.657 8  -3291951.48246  22591360.517    22591370.0244
  23677268.094    -8695587.115 8  -6493768.67945  23677268.059    23677282.3324
 01  5 23  0 32  0.0000000  0  9 15 18 14 21 23 29 03 31 25
  23481927.065     5596503.002 8   4373781.85645  23481926.580    23481939.3394
  23418028.218     1516120.414 8   1205045.60245  23418028.346    23418038.0674
  20206253.043   -26622170.526 9 -20087186.62048  20206252.972    20206259.2214
  21154782.310   -24535708.543 9 -18583490.31947  21154782.149    21154790.3254
  24237548.172    10511206.895 8   8199772.70245  24237548.173    24237560.1144
  20267567.336   -22517779.770 9 -17518631.11748  20267567.555    20267574.8194
  22998659.785    -2813782.319 8  -2177529.73346  22998659.688    22998671.3494
  22598343.836    -4207238.344 8  -3263357.00846  22598343.652    22598353.1694
  23658853.740    -8792351.247 8  -6569168.95045  23658853.987    23658868.3534
 01  5 23  0 32 30.0000000  0  9 15 18 14 21 23 29 03 31 25
  23501020.912     5696839.166 8   4451965.66645  23501020.202    23501032.7804
  23431572.429     1587295.181 8   1260506.35745  23431572.510    23431582.2724
  20207294.533   -26616697.035 9 -20082921.55648  20207294.481    20207300.7664
  21157876.553   -24519448.486 9 -18570820.17047  21157876.387    21157884.5394
  24249719.877    10575168.355 7   8249612.66945  24249719.778    24249731.8264
  20265527.695   -22528498.383 9 -17526983.26548  20265527.907    20265535.1044
  23014113.398    -2732573.254 8  -2114250.08346  23014113.361    23014124.9444
  22605419.490    -4170055.906 8  -3234383.73546  22605419.324    22605428.7904
  23640452.367    -8889048.105 8  -6644516.79645  23640452.686    23640467.1454
 01  5 23  0 33  0.0000000  0  9 15 18 14 21 23 29 03 31 25
  23520155.500     5797391.646 8   4530318.03445  23520154.836    23520167.3924
  23445130.436     1658542.150 8   1316023.35345  23445130.474    23445140.1294
  20208429.273   -26610733.559 9 -20078274.68348  20208429.246    20208435.5724
  21161001.680   -24503026.228 9 -18558023.62947  21161001.483    21161009.5944
  24261899.724    10639173.152 8   8299486.41645  24261899.646    24261911.7874
  20263573.868   -22538765.902 9 -17534983.91048  20263574.050    20263581.2064
  23029608.273    -2651147.510 8  -2050801.61246  23029608.293    23029619.9264
  22612587.085    -4132389.817 8  -3205033.59846  22612586.922    22612596.5294
  23622064.482    -8985675.669 8  -6719810.64945  23622064.775    23622079.2684
 01  5 23  0 33 30.0000000  0  9 15 18 14 21 23 29 03 31 25
  23539330.761     5898159.931 8   4608838.55845  23539330.240    23539343.0934
  23458702.312     1729862.251 8   1371597.34745  23458702.319    23458711.8314
  20209657.373   -26604280.004 9 -20073245.92848  20209657.306    20209663.6034
  21164157.936   -24486440.332 9 -18545099.58247  21164157.719    21164165.8234
  24274088.093    10703222.474 8   8349394.85745  24274088.078    24274100.1614
  20261705.927   -22548582.070 9 -17542632.85348  20261706.113    20261713.1914
  23045144.101    -2569507.197 8  -1987185.92046  23045144.039    23045155.8434
  22619846.487    -4094241.514 8  -3175307.70046  22619846.306    22619856.0184
  23603690.472    -9082230.427 8  -6795047.78745  23603690.656    23603705.0304
 01  5 23  0 34  0.0000000  0  9 15 18 14 21 23 29 03 31 25
  23558546.868     5999141.763 8   4687525.49245  23558546.497    23558559.4824
  23472287.812     1801254.813 8   1427227.83245  23472287.904    23472297.4344
  20210978.291   -26597338.297 9 -20067836.79548  20210978.241    20210984.5334
  21167345.209   -24469690.786 9 -18532048.01247  21167345.032    21167353.1434
  24286284.874    10767316.121 8   8399337.82345  24286284.715    24286296.8304
  20259923.552   -22557948.179 9 -17549931.09548  20259923.757    20259930.8304
  23060719.941    -2487655.891 8  -1923405.82246  23060719.875    23060731.7744
  22627197.273    -4055613.234 8  -3145207.80646  22627197.067    22627206.7704
  23585330.574    -9178710.125 8  -6870226.42545  23585330.856    23585345.3074
 01  5 23  0 34 30.0000000  0  9 15 18 14 21 23 29 03 31 25
  23577803.551     6100335.980 8   4766377.90145  23577803.166    23577816.2044
  23485887.103     1872719.806 8   1482914.73245  23485887.239    23485896.8634
  20212392.074   -26589909.128 9 -20062047.82148  20212392.002    20212398.2604
  21170563.783   -24452776.953 9 -18518868.42347  21170563.644    21170571.7714
  24298490.116    10831454.649 7   8449315.77545  24298490.025    24298502.1724
  20258226.736   -22566864.822 9 -17556879.11248  20258226.951    20258234.0164
  23076335.454    -2405596.265 8  -1859463.41346  23076335.455    23076347.3854
  22634638.993    -4016506.846 8  -3114735.35646  22634638.785    22634648.5354
  23566985.644    -9275111.756 8  -6945344.25445  23566985.965    23567000.3174
 01  5 23  0 35  0.0000000  0  9 15 18 14 21 23 29 03 31 25
  23597100.351     6201740.785 8   4845394.40845  23597100.137    23597113.1674
  23499500.481     1944257.300 8   1538658.11645  23499500.584    23499509.9044
  20213898.276   -26581993.784 9 -20055880.01648  20213898.220    20213904.4794
  21173813.703   -24435698.401 9 -18505560.48847  21173813.564    21173821.7164
  24310703.757    10895638.171 7   8499328.78445  24310703.710    24310716.0524
  20256615.283   -22575332.872 9 -17563477.58048  20256615.507    20256622.5714
  23091990.130    -2323331.348 8  -1795361.04546  23091990.148    23092002.0564
  22642171.276    -3976924.598 8  -3083892.12646  22642171.021    22642180.8314
  23548656.054    -9371433.010 8  -7020399.43745  23548656.365    23548670.5774
 01  5 23  0 35 30.0000000  0  9 15 18 14 21 23 29 03 31 25
  23616437.112     6303353.973 8   4924573.28245  23616436.791    23616449.8664
  23513127.426     2015866.556 8   1594457.41145  23513127.471    23513136.6444
  20215496.615   -26573594.462 9 -20049335.07748  20215496.553    20215502.8364
  21177094.902   -24418455.841 9 -18492124.75047  21177094.742    21177102.9174
  24322926.232    10959866.459 7   8549376.65645  24322925.959    24322938.3704
  20255088.967   -22583353.691 9 -17569727.55648  20255089.184    20255096.2944
  23107682.816    -2240864.748 8  -1731101.50646  23107683.014    23107695.0284
  22649793.673    -3936869.145 8  -3052680.15546  22649793.384    22649803.1074
  23530342.123    -9467671.445 8  -7095390.08845  23530342.493    23530356.5904
 01  5 23  0 36  0.0000000  0  9 15 18 14 21 23 29 03 31 25
  23635813.210     6405174.214 8   5003913.49845  23635812.807    23635825.8524
  23526767.890     2087547.680 8   1650312.70945  23526767.977    23526777.1864
  20217186.860   -26564711.784 9 -20042413.50548  20217186.823    20217193.1304
  21180407.422   -24401048.628 9 -18478560.71847  21180407.259    21180415.4244
  24335157.565    11024139.985 7   8599459.77045  24335157.221    24335169.4984
  20253647.604   -22590927.707 9 -17575629.37348  20253647.831    20253654.9834
  23123413.616    -2158199.443 8  -1666687.15846  23123413.843    23123425.7314
  22657505.759    -3896342.373 8  -3021100.92446  22657505.465    22657515.1434
  23512044.792    -9563823.869 8  -7170313.73045  23512045.031    23512059.0694
 01  5 23  0 36 30.0000000  0  9 15 18 14 21 23 29 03 31 25
  23655228.062     6507199.777 8   5083413.71745  23655227.747    23655240.9714
  23540422.044     2159300.662 8   1706224.01945  23540422.205    23540431.7334
  20218968.925   -26555347.331 9 -20035116.51848  20218968.879    20218975.1104
  21183751.406   -24383476.240 9 -18464867.96647  21183751.224    21183759.3694
  24347397.109    11088459.034 7   8649578.35945  24347396.518    24347408.7614
  20252291.127   -22598055.881 9 -17581183.77548  20252291.361    20252298.4964
  23139181.861    -2075338.339 8  -1602120.22246  23139181.916    23139193.7134
  22665307.051    -3855346.592 8  -2989156.21246  22665306.784    22665316.4634
  23493764.197    -9659887.797 8  -7245168.42145  23493764.446    23493778.4454
 01  5 23  0 37  0.0000000  0  9 15 18 14 21 23 29 03 31 25
  23674681.979     6609429.821 8   5163073.24745  23674681.648    23674695.0324
  23554089.962     2231125.806 8   1762191.54545  23554090.132    23554099.8234
  20220842.563   -26545501.603 9 -20027444.52048  20220842.502    20220848.6954
  21187126.849   -24365737.978 9 -18451045.96247  21187126.677    21187134.8574
  24359645.416    11152824.274 7   8699732.95145  24359644.959    24359657.2204
  20251019.402   -22604738.428 9 -17586390.94648  20251019.641    20251026.8384
  23154986.740    -1992283.924 8  -1537402.67446  23154986.806    23154998.5744
  22673197.348    -3813883.575 8  -2956847.46246  22673196.963    22673206.5884
  23475501.222    -9755860.088 8  -7319951.70745  23475501.319    23475515.2234
 01  5 23  0 37 30.0000000  0  9 15 18 14 21 23 29 03 31 25
  23694174.889     6711863.082 8   5242891.13545  23694174.444    23694187.6614
  23567771.725     2303023.621 8   1818215.67745  23567771.960    23567781.5664
  20222807.549   -26535175.650 9 -20019398.31948  20222807.462    20222813.6354
  21190534.099   -24347832.817 9 -18437093.90847  21190533.909    21190542.0944
  24371902.862    11217236.377 7   8749924.04445  24371902.374    24371914.8324
  20249832.463   -22610976.030 9 -17591251.40048  20249832.673    20249839.9194
  23170827.812    -1909038.876 8  -1472536.57546  23170827.849    23170839.7774
  22681176.034    -3771954.746 8  -2924175.71246  22681175.718    22681185.4044
  23457256.264    -9851736.989 8  -7394660.66045  23457256.310    23457270.1964
 01  5 23  0 38  0.0000000  0  9 15 18 14 21 23 29 03 31 25
  23713705.806     6814496.923 8   5322865.31645  23713705.233    23713718.4304
  23581467.296     2374993.010 8   1874295.57845  23581467.419    23581476.9714
  20224863.488   -26524371.617 9 -20010979.59348  20224863.398    20224869.5994
  21193972.953   -24329761.423 9 -18423012.33647  21193972.768    21193980.9784
  24384168.944    11281694.859 7   8800151.27145  24384168.391    24384180.9544
  20248729.743   -22616770.293 9 -17595766.40548  20248729.986    20248737.2504
  23186704.451    -1825607.164 8  -1407525.01746  23186704.498    23186716.5444
  22689242.908    -3729563.528 8  -2891143.66546  22689242.634    22689252.2924
  23439029.568    -9947517.283 8  -7469294.35445  23439029.768    23439043.4684
 01  5 23  0 38 30.0000000  0  9 15 18 14 21 23 29 03 31 25
  23733274.380     6917329.973 8   5402994.72445  23733273.886    23733287.2104
  23595176.672     2447034.413 8   1930431.59845  23595176.599    23595186.2124
  20227010.141   -26513090.377 9 -20002189.00648  20227010.092    20227016.3664
  21197443.625   -24311523.056 9 -18408800.64147  21197443.425    21197451.6444
  24396443.955    11346200.458 7   8850415.21445  24396443.582    24396455.9444
  20247711.382   -22622121.795 9 -17599936.38748  20247711.601    20247718.8784
  23202616.006    -1741991.401 8  -1342370.04346  23202616.123    23202628.2754
  22697397.444    -3686711.486 8  -2857752.52946  22697397.129    22697406.8904
  23420821.903   -10043197.816 8  -7543850.30245  23420822.182    23420835.7164
 01  5 23  0 39  0.0000000  0  9 15 18 14 21 23 29 03 31 25
  23752880.832     7020360.951 8   5483278.33845  23752880.293    23752893.4344
  23608899.432     2519147.889 8   1986623.78845  23608899.399    23608909.0634
  20229247.397   -26501333.247 9 -19993027.60748  20229247.353    20229253.6894
  21200946.197   -24293116.692 9 -18394458.04747  21200946.010    21200954.2714
  24408728.180    11410753.545 7   8900716.17945  24408728.038    24408739.9704
  20246777.161   -22627031.216 9 -17603761.90748  20246777.398    20246784.6644
  23218562.197    -1658194.592 8  -1277074.03746  23218562.204    23218574.4354
  22705639.189    -3643400.550 8  -2824003.82846  22705638.943    22705648.7674
  23402634.056   -10138775.475 8  -7618326.09845  23402634.214    23402647.5364
 01  5 23  0 39 30.0000000  0  9 15 18 14 21 23 29 03 31 25
  23772524.261     7123587.630 8   5563714.47145  23772523.744    23772537.0104
  23622635.863     2591332.987 8   2042871.79345  23622635.879    23622645.5524
  20231574.952   -26489101.863 9 -19983496.65248  20231574.902    20231581.2054
  21204480.744   -24274542.561 9 -18379984.71447  21204480.563    21204488.8214
  24421021.218    11475353.880 7   8951053.93545  24421021.049    24421033.2844
  20245926.882   -22631499.837 9 -17607243.93748  20245927.086    20245934.2534
  23234542.223    -1574220.124 8  -1211639.56846  23234542.260    23234554.4404
  22713967.698    -3599633.927 8  -2789900.03846  22713967.448    22713977.3274
  23384466.201   -10234248.102 8  -7692720.04846  23384466.291    23384479.3774
 01  5 23  0 40  0.0000000  0  9 15 18 14 21 23 29 03 31 25
  23792204.724     7227008.802 8   5644302.13245  23792204.259    23792217.4564
  23636385.858     2663589.684 8   2099175.58145  23636385.820    23636395.4774
  20233992.538   -26476397.486 9 -19973597.13948  20233992.498    20233998.7554
  21208047.321   -24255800.333 9 -18365380.40347  21208047.124    21208055.3684
  24433323.514    11540002.096 7   9001429.01045  24433323.342    24433335.6974
  20245160.251   -22635528.563 9 -17610383.19448  20245160.447    20245167.6004
  23250555.531    -1490070.640 8  -1146068.71846  23250555.505    23250567.7344
  22722382.696    -3555413.538 8  -2755442.67746  22722382.412    22722392.2374
  23366318.894   -10329612.713 8  -7767029.83446  23366318.865    23366331.8064
 01  5 23  0 40 30.0000000  0  9 15 18 14 21 23 29 03 31 25
  23811922.219     7330622.948 8   5725040.15545  23811921.599    23811934.5744
  23650149.482     2735918.183 8   2155535.31145  23650149.482    23650159.0914
  20236499.939   -26463221.151 9 -19963329.86348  20236499.873    20236506.0984
  21211645.946   -24236889.242 9 -18350644.51447  21211645.743    21211654.0034
  24445635.033    11604698.489 7   9051841.62545  24445634.819    24445647.1064
  20244477.190   -22639118.003 9 -17613180.15148  20244477.400    20244484.5234
  23266601.517    -1405748.937 8  -1080363.66945  23266601.506    23266613.8284
  22730883.554    -3510741.437 8  -2720633.32446  22730883.277    22730893.1094
  23348192.435   -10424866.281 8  -7841253.09546  23348192.433    23348205.3244
 01  5 23  0 41  0.0000000  0  9 15 18 14 21 23 29 03 31 25
  23831675.825     7434428.020 8   5805926.95145  23831675.224    23831688.1444
  23663927.040     2808318.307 8   2211950.86545  23663926.934    23663936.7254
  20239096.785   -26449574.523 9 -19952696.12848  20239096.715    20239102.9384
  21215276.826   -24217809.003 9 -18335776.81847  21215276.630    21215284.9054
  24457955.476    11669443.231 7   9102291.91745  24457955.181    24457967.7424
  20243877.498   -22642269.343 9 -17615635.72648  20243877.705    20243884.8254
  23282679.634    -1321258.330 8  -1014527.01245  23282679.656    23282691.8364
  22739469.946    -3465620.047 8  -2685473.86746  22739469.692    22739479.5374
  23330087.408   -10520006.479 8  -7915388.02246  23330087.518    23330100.4554
 01  5 23  0 41 30.0000000  0  9 15 18 14 21 23 29 03 31 25
  23851465.202     7538421.928 7   5886960.91245  23851464.754    23851477.8054
  23677718.038     2880789.245 8   2268421.60245  23677717.817    23677727.8284
  20241782.763   -26435459.683 9 -19941697.54548  20241782.665    20241788.8664
  21218939.807   -24198559.808 9 -18320777.46747  21218939.614    21218947.9574
  24470285.493    11734236.109 7   9152779.72745  24470285.293    24470297.7054
  20243360.914   -22644983.997 9 -17617751.02648  20243361.123    20243368.1894
  23298789.303    -1236602.390 8   -948561.54245  23298789.194    23298801.3464
  22748141.251    -3420052.288 8  -2649966.59246  22748140.989    22748150.9164
  23312004.616   -10615030.802 8  -7989432.65846  23312004.756    23312017.6624
 01  5 23  0 42  0.0000000  0  9 15 18 14 21 23 29 03 31 25
  23871290.287     7642603.811 7   5968141.34645  23871290.000    23871303.3224
  23691522.382     2953331.865 8   2324948.22245  23691522.191    23691532.4394
  20244557.695   -26420877.209 9 -19930334.58148  20244557.604    20244563.8124
  21222635.167   -24179140.514 9 -18305645.56947  21222634.995    21222643.3194
  24482624.832    11799078.260 7   9203305.94045  24482624.502    24482637.0664
  20242927.388   -22647262.256 9 -17619526.28048  20242927.583    20242934.6264
  23314929.753    -1151783.566 8   -882469.10645  23314929.809    23314942.0844
  22756897.198    -3374039.768 8  -2614112.76346  22756896.918    22756906.8504
  23293944.822   -10709935.700 8  -8063384.23646  23293944.778    23293957.6304
 01  5 23  0 42 30.0000000  0 10 15 18 14 21 23 29 03 31 25 11
  23891151.114     7746971.380 8   6049466.44445  23891150.711    23891163.9794
  23705340.650     3025945.817 8   2381530.39745  23705340.444    23705350.5134
  20247421.343   -26405828.782 9 -19918608.53648  20247421.212    20247427.3954
  21226363.024   -24159551.042 9 -18290381.07347  21226362.825    21226371.0014
  24494973.292    11863969.444 7   9253870.31845  24494973.043    24494985.6304
  20242576.613   -22649105.522 9 -17620962.58248  20242576.806    20242583.8694
  23331100.851    -1066805.099 8   -816252.33345  23331100.835    23331113.1584
  22765737.332    -3327585.121 8  -2577914.41046  22765737.068    22765746.8604
  23275908.115   -10804718.887 8  -8137240.97946  23275908.004    23275920.7444
  23607049.133    -1134465.449 7   -868193.66145  23607050.319    23607061.4054
 01  5 23  0 43  0.0000000  0 10 15 18 14 21 23 29 03 31 25 11
  23911046.927     7851522.130 8   6130934.27445  23911046.346    23911059.5464
  23719172.388     3098630.076 8   2438167.35645  23719172.089    23719181.9684
  20250373.066   -26390317.046 9 -19906521.47348  20250372.978    20250379.1714
  21230123.107   -24139791.926 9 -18274984.38747  21230122.872    21230131.0514
  24507330.956    11928908.986 7   9304472.42145  24507330.608    24507343.1744
  20242308.245   -22650515.705 9 -17622061.41648  20242308.471    20242315.4564
  23347301.594     -981670.855 8   -749914.14945  23347301.679    23347313.8114
  22774661.046    -3280691.617 8  -2541374.09446  22774660.680    22774670.4784
  23257894.620   -10899379.070 8  -8211001.88946  23257894.505    23257907.2724
  23588818.322    -1230277.201 7   -942852.06945  23588817.601    23588828.6934
 01  5 23  0 43 30.0000000  0 10 15 18 14 21 23 29 03 31 25 11
  23930977.197     7956254.089 8   6212543.31545  23930976.449    23930989.6534
  23733017.160     3171384.292 8   2494858.81945  23733016.785    23733026.8674
  20253412.717   -26374343.528 9 -19894074.57348  20253412.604    20253418.8444
  21233915.301   -24119863.375 9 -18259455.66047  21233915.136    21233923.4224
  24519697.793    11993896.928 7   9355112.22445  24519697.437    24519710.1224
  20242122.030   -22651494.247 9 -17622823.90148  20242122.220    20242129.2294
  23363531.241     -896384.220 8   -683457.20345  23363531.294    23363543.3784
  22783667.623    -3233362.025 8  -2504493.97846  22783667.236    22783677.0774
  23239905.032   -10993913.390 8  -8284664.72146  23239904.910    23239917.7324
  23570616.532    -1325929.351 7  -1017386.12745  23570616.302    23570626.3684
 01  5 23  0 44  0.0000000  0 10 15 18 14 21 23 29 03 31 25 11
  23950941.745     8061166.662 8   6294293.08545  23950940.908    23950954.1114
  23746875.210     3244209.302 8   2551605.46045  23746875.060    23746885.0504
  20256540.095   -26357908.830 9 -19881268.31748  20256539.999    20256546.2234
  21237740.243   -24099763.394 9 -18243793.37147  21237740.068    21237748.3784
  24532074.074    12058934.577 7   9405790.78345  24532073.819    24532086.5464
  20242017.901   -22652040.992 9 -17623249.92848  20242018.142    20242025.2014
  23379789.551     -810947.025 8   -616882.98245  23379789.627    23379801.7694
  22792756.776    -3185597.758 8  -2467275.13546  22792756.463    22792766.3624
  23221939.896   -11088317.871 8  -8358226.39646  23221939.996    23221952.8944
  23552445.474    -1421418.494 7  -1091793.15045  23552445.071    23552455.2734
 01  5 23  0 44 30.0000000  0 10 15 18 14 21 23 29 03 31 25 11
  23970940.372     8166259.491 8   6376183.34445  23970939.533    23970952.7874
  23760747.177     3317106.812 8   2608408.59145  23760747.026    23760756.9884
  20259755.352   -26341012.617 9 -19868102.43348  20259755.243    20259761.4434
  21241598.120   -24079490.424 9 -18227996.27847  21241597.908    21241606.1524
  24544460.070    12124023.845 7   9456509.54345  24544459.764    24544472.7744
  20241996.161   -22652155.461 9 -17623339.10548  20241996.368    20242003.3824
  23396076.337     -725360.873 8   -550192.67145  23396076.303    23396088.5924
  22801928.462    -3137399.754 8  -2429718.34246  22801928.223    22801938.1324
  23204000.521   -11182588.335 8  -8431683.63446  23204000.655    23204013.5794
  23534306.326    -1516740.763 7  -1166070.17045  23534306.069    23534315.8944
 01  5 23  0 45  0.0000000  0 10 15 18 14 21 23 29 03 31 25 11
  23990972.975     8271530.680 8   6458212.54245  23990972.116    23990985.4954
  23774632.968     3390076.229 8   2665267.73745  23774632.884    23774642.5144
  20263058.035   -26323656.910 9 -19854578.50048  20263057.947    20263064.1324
  21245488.923   -24059043.889 9 -18212063.93247  21245488.754    21245496.9984
  24556856.124    12189164.535 7   9507268.37345  24556855.753    24556868.9654
  20242056.371   -22651838.926 9 -17623092.44248  20242056.586    20242063.5954
  23412390.795     -639629.214 8   -483388.96845  23412390.679    23412403.1564
  22811182.344    -3088770.831 8  -2391825.74046  22811181.998    22811191.9854
  23186087.369   -11276722.478 8  -8505034.63746  23186087.346    23186100.2304
  23516198.958    -1611894.132 7  -1240215.56145  23516198.785    23516208.7104
 01  5 23  0 45 30.0000000  0 10 15 18 14 21 23 29 03 31 25 11
  24011039.279     8376978.827 8   6540379.64245  24011038.584    24011051.9684
  23788532.541     3463117.787 8   2722183.11145  23788532.402    23788541.8034
  20266447.868   -26305843.043 9 -19840697.57048  20266447.780    20266453.9904
  21249412.957   -24038423.177 9 -18195995.86747  21249412.777    21249421.0894
  24569262.024    12254357.314 7   9558067.79545  24569261.644    24569274.8304
  20242198.401   -22651092.428 9 -17622510.74548  20242198.617    20242205.6214
  23428732.178     -553754.922 8   -416474.13345  23428732.006    23428744.6034
  22820517.768    -3039712.865 8  -2353598.83046  22820517.424    22820527.4554
  23168200.340   -11370717.368 8  -8578277.15346  23168200.399    23168213.4004
  23498124.058    -1706876.188 7  -1314227.44945  23498123.997    23498134.0504
 01  5 23  0 46  0.0000000  0 10 15 18 14 21 23 29 03 31 25 11
  24031138.892     8482601.358 7   6622682.61645  24031138.088    24031151.7884
  23802445.409     3536231.137 8   2779154.43845  23802445.251    23802454.8314
  20269924.537   -26287572.977 9 -19826461.15448  20269924.473    20269930.6344
  21253370.149   -24017628.380 9 -18179792.15447  21253369.948    21253378.2354
  24581677.756    12319601.883 7   9608907.56345  24581677.478    24581690.8724
  20242421.982   -22649917.742 9 -17621595.39248  20242422.183    20242429.1244
  23445099.940     -467741.748 8   -349451.06245  23445099.875    23445112.5454
  22829934.492    -2990229.007 8  -2315040.05746  22829934.026    22829944.0694
  23150340.157   -11464570.727 8  -8651409.38446  23150340.373    23150353.3904
  23480082.380    -1801685.103 7  -1388104.43745  23480082.377    23480092.4624
 01  5 23  0 46 30.0000000  0 10 15 18 14 21 23 29 03 31 25 11
  24051270.910     8588396.239 7   6705119.91945  24051270.212    24051284.1654
  23816371.983     3609415.712 8   2836181.24645  23816371.888    23816381.4814
  20273487.568   -26268848.773 9 -19811870.87448  20273487.527    20273493.7224
  21257360.290   -23996660.010 9 -18163453.19147  21257360.066    21257368.3134
  24594103.518    12384898.162 7   9659787.62845  24594103.116    24594116.2794
  20242726.713   -22648315.986 9 -17620347.25848  20242726.912    20242733.8334
  23461493.749     -381592.682 8   -282322.11145  23461493.686    23461506.2094
  22839431.280    -2940322.186 8  -2276151.69546  22839430.981    22839441.1164
  23132507.544   -11558280.176 8  -8724429.47646  23132507.849    23132520.7724
  23462073.893    -1896319.126 7  -1461845.14145  23462073.994    23462084.1354
 01  5 23  0 47  0.0000000  0 10 15 18 14 21 23 29 03 31 25 11
  24071435.519     8694361.968 7   6787690.31945  24071435.081    24071449.2344
  23830312.345     3682671.467 8   2893263.50545  23830312.227    23830321.7844
  20277136.779   -26249672.039 9 -19796927.97048  20277136.740    20277142.9314
  21261383.482   -23975517.683 9 -18146978.67247  21261383.291    21261391.5594
  24606538.850    12450246.409 7   9710708.18945  24606538.698    24606551.6824
  20243112.499   -22646288.536 9 -17618767.41248  20243112.705    20243119.6334
  23477912.805     -295310.887 8   -215089.72945  23477912.829    23477925.2534
  22849008.182    -2889994.927 8  -2236935.71446  22849008.021    22849018.1754
  23114703.030   -11651842.864 8  -8797335.23246  23114703.284    23114715.9854
  23444099.426    -1990775.849 7  -1535447.71445  23444099.527    23444109.6084
 01  5 23  0 47 30.0000000  0 10 15 18 14 21 23 29 03 31 25 11
  24091632.593     8800496.337 7   6870392.11545  24091632.070    24091646.3494
  23844266.068     3755998.061 8   2950400.97645  23844265.888    23844275.5484
  20280871.773   -26230044.222 9 -19781633.56748  20280871.715    20280877.9734
  21265440.111   -23954200.273 9 -18130367.72347  21265439.922    21265448.2334
  24618984.171    12515646.661 7   9761669.28345  24618983.841    24618996.8624
  20243579.097   -22643836.635 9 -17616856.82848  20243579.292    20243586.2294
  23494356.406     -208899.798 8   -147756.63045  23494356.485    23494368.9444
  22858664.838    -2839249.874 8  -2197394.18946  22858664.626    22858674.6984
  23096926.783   -11745256.454 8  -8870124.79546  23096927.061    23096939.7344
  23426159.316    -2085053.031 7  -1608910.39045  23426159.277    23426169.0944
 01  5 23  0 48  0.0000000  0 10 15 18 14 21 23 29 03 31 25 11
  24111861.188     8906797.796 7   6953224.10945  24111860.756    24111875.2774
  23858232.847     3829395.803 7   3007593.90445  23858232.899    23858242.9714
  20284692.319   -26209966.979 9 -19765988.96848  20284692.270    20284698.6114
  21269530.032   -23932707.628 9 -18113620.23247  21269529.821    21269538.1724
  24631439.547    12581099.378 7   9812671.26145  24631439.049    24631452.1434
  20244126.218   -22640961.224 9 -17614616.24248  20244126.403    20244133.3454
  23510824.305     -122361.833 8    -80324.68545  23510824.254    23510836.7154
  22868400.426    -2788089.479 8  -2157529.01946  22868400.186    22868410.2174
  23079179.702   -11838518.075 8  -8942795.95146  23079179.776    23079192.4264
  23408253.490    -2179148.466 7  -1682231.42945  23408253.394    23408263.2804
 01  5 23  0 48 30.0000000  0 10 15 18 14 21 23 29 03 31 25 11
  24132121.470     9013264.985 7   7036185.24345  24132121.060    24132135.6614
  23872213.508     3902864.897 7   3064842.42845  23872213.631    23872223.9354
  20288598.235   -26189441.410 9 -19749995.02148  20288598.166    20288604.5554
  21273653.356   -23911038.943 9 -18096735.55447  21273653.196    21273661.5624
  24643905.163    12646605.194 7   9863714.58245  24643904.599    24643917.6914
  20244753.852   -22637663.158 9 -17612046.30848  20244754.038    20244760.9194
  23527315.702      -35699.770 8    -12796.02245  23527315.648    23527327.9904
  22878214.657    -2736515.856 8  -2117341.85046  22878214.421    22878224.3344
  23061462.035   -11931624.443 8  -9015346.13846  23061462.142    23061474.6654
  23390382.629    -2273059.296 7  -1755408.59945  23390382.716    23390392.6254
 01  5 23  0 49  0.0000000  0 10 15 18 14 21 23 29 03 31 25 11
  24152412.886     9119895.834 7   7119273.90745  24152412.492    24152427.1464
  23886207.789     3976405.173 7   3122146.41745  23886207.853    23886218.2854
  20292589.094   -26168469.389 9 -19733653.19048  20292589.003    20292595.3644
  21277810.302   -23889194.065 9 -18079713.58747  21277810.148    21277818.5594
  24656380.771    12712164.468 7   9914799.56845  24656380.253    24656393.3604
  20245461.610   -22633943.714 9 -17609148.03248  20245461.779    20245468.7054
  23543830.158       51083.058 8     54826.75545  23543830.026    23543842.4874
  22888106.865    -2684531.683 8  -2076834.76946  22888106.663    22888116.6624
  23043774.416   -12024573.354 8  -9087773.62746  23043774.427    23043786.7144
  23372547.445    -2366783.165 7  -1828440.09745  23372547.552    23372557.5804
 01  5 23  0 49 30.0000000  0 10 15 18 14 21 23 29 03 31 25 11
  24172735.197     9226688.700 7   7202488.80045  24172734.843    24172749.3284
  23900215.524     4050016.252 8   3179505.57245  23900215.685    23900226.1584
  20296664.524   -26147052.749 9 -19716964.89748  20296664.461    20296670.7684
  21282001.034   -23867172.390 9 -18062553.86047  21282000.797    21282009.2014
  24668866.088    12777776.918 7   9965926.00045  24668865.660    24668878.8194
  20246249.335   -22629804.205 9 -17605922.43148  20246249.503    20246256.4164
  23560366.784      137983.288 8    122541.02645  23560366.608    23560379.2894
  22898076.852    -2632139.729 8  -2036009.95446  22898076.621    22898086.5334
  23026117.143   -12117361.931 8  -9160076.19146  23026117.192    23026129.3674
  23354748.181    -2460318.172 7  -1901324.42545  23354748.334    23354758.4034
 01  5 23  0 50  0.0000000  0 10 15 18 14 21 23 29 03 31 25 11
  24193087.854     9333642.012 7   7285828.73545  24193087.324    24193102.0414
  23914237.176     4123698.718 8   3236920.32945  23914237.138    23914247.5224
  20300824.442   -26125192.576 9 -19699931.00548  20300824.362    20300830.6374
  21286225.386   -23844973.225 9 -18045255.82847  21286225.163    21286233.5294
  24681362.262    12843443.473 7  10017094.58245  24681361.987    24681374.8274
  20247116.796   -22625245.426 9 -17602370.13148  20247116.983    20247123.8674
  23576925.103      224998.443 8    190344.83745  23576925.074    23576937.9724
  22908124.057    -2579342.083 8  -1994869.00246  22908123.706    22908133.6784
  23008491.019   -12209986.587 8  -9232251.01546  23008491.074    23008503.1504
  23336985.507    -2553661.489 7  -1974059.39945  23336985.542    23336995.6744
 01  5 23  0 50 30.0000000  0 10 15 18 14 21 23 29 03 31 25 11
  24213470.524     9440753.776 7   7369292.12445  24213470.134    24213484.9784
  23928272.135     4197452.100 8   3294390.36345  23928272.042    23928282.3754
  20305068.340   -26102890.605 9 -19682552.85948  20305068.294    20305074.5334
  21290483.537   -23822596.308 9 -18027819.29447  21290483.335    21290491.6584
  24693868.715    12909164.104 7  10068305.27945  24693868.391    24693881.1704
  20248063.776   -22620268.844 9 -17598492.27748  20248063.977    20248070.8664
  23593504.935      312125.312 8    258235.68145  23593504.926    23593517.9944
  22918247.611    -2526141.907 8  -1953414.37546  22918247.376    22918257.4934
  22990896.509   -12302445.152 8  -9304296.43146  22990896.574    22990908.4814
  23319259.722    -2646811.101 7  -2046643.42345  23319259.792    23319269.6454
 01  5 23  0 51  0.0000000  0 10 15 18 14 21 23 29 03 31 25 11
  24233882.919     9548022.090 7   7452877.49045  24233882.701    24233897.8494
  23942320.428     4271276.320 7   3351915.57545  23942320.376    23942330.7904
  20309395.990   -26080148.948 9 -19664832.08248  20309395.918    20309402.1354
  21294775.604   -23800041.323 9 -18010243.99447  21294775.414    21294783.7814
  24706385.421    12974938.874 7  10119558.17045  24706384.926    24706397.9494
  20249090.045   -22614875.967 9 -17594290.02848  20249090.246    20249097.1304
  23610105.438      399360.713 8    326211.08645  23610105.453    23610118.5214
  22928447.410    -2472541.834 8  -1911648.16146  22928447.236    22928457.2314
  22973333.905   -12394735.478 8  -9376210.76646  22973334.132    22973345.9434
  23301571.096    -2739764.993 8  -2119074.96245  23301571.178    23301581.1394
 01  5 23  0 51 30.0000000  0 10 15 18 14 21 23 29 03 31 25 11
  24254325.539     9655445.590 7   7536583.78745  24254325.229    24254340.0164
  23956382.374     4345171.614 8   3409496.18645  23956382.361    23956392.7474
  20313806.920   -26056968.992 9 -19646769.79048  20313806.854    20313813.1504
  21299101.772   -23777307.426 9 -17992529.29147  21299101.569    21299109.9914
  24718912.721    13040768.615 7  10170853.88345  24718912.082    24718925.0074
  20250195.374   -22609067.489 9 -17589763.94248  20250195.531    20250202.4054
  23626726.254      486702.109 8    394269.07945  23626726.187    23626739.2754
  22938723.122    -2418544.066 8  -1869572.06846  22938722.862    22938732.7714
  22955804.338   -12486854.198 8  -9447991.36946  22955804.467    22955816.0734
  23283920.401    -2832520.307 8  -2191351.76845  23283920.387    23283930.3534
 01  5 23  0 52  0.0000000  0 10 15 18 14 21 23 29 03 31 25 11
  24274796.946     9763021.098 7   7620408.51545  24274796.388    24274811.2254
  23970457.985     4419136.758 8   3467131.22445  23970457.876    23970467.9454
  20318300.813   -26033353.547 9 -19628368.15148  20318300.753    20318306.9904
  21303461.774   -23754395.698 9 -17974676.01647  21303461.580    21303469.9504
  24731450.019    13106652.144 7  10222191.50845  24731449.544    24731462.5544
  20251379.261   -22602846.030 9 -17584916.05548  20251379.442    20251386.2814
  23643366.228      574145.042 8    462406.19345  23643366.227    23643379.2054
  22949073.609    -2364152.630 8  -1827189.21546  22949073.307    22949083.1484
  22938307.496   -12578800.156 8  -9519637.36146  22938307.691    22938318.9904
  23266307.755    -2925075.839 8  -2263472.91445  23266307.591    23266317.5824
 01  5 23  0 52 30.0000000  0  9 15 18 14 21 29 03 31 25 11
  24295296.809     9870747.785 7   7704351.07145  24295296.426    24295311.1414
  23984546.825     4493172.866 8   3524821.56145  23984546.674    23984556.9054
  20322877.420   -26009303.251 9 -19609627.66148  20322877.325    20322883.5514
  21307855.947   -23731304.481 9 -17956682.88447  21307855.748    21307864.0354
  20252641.709   -22596211.780 9 -17579746.50548  20252641.898    20252648.7854
  23660025.242      661687.517 8    530620.87045  23660025.196    23660038.1524
  22959498.553    -2309369.154 8  -1784500.86346  22959498.270    22959508.2194
  22920844.385   -12670569.125 8  -9591145.44746  22920844.490    22920855.6564
  23248733.275    -3017428.401 7  -2335435.86945  23248733.197    23248743.3484
 01  5 23  0 53  0.0000000  0  9 15 18 14 21 29 03 31 25 11
  24315825.030     9978624.080 7   7788410.17545  24315824.545    24315839.7164
  23998649.055     4567279.752 8   3582567.04745  23998648.712    23998659.0974
  20327536.426   -25984819.567 9 -19590549.47348  20327536.359    20327542.6654
  21312284.343   -23708033.211 9 -17938549.45247  21312284.153    21312292.4494
  20253982.489   -22589165.810 9 -17574256.13948  20253982.660    20253989.5574
  23676702.634      749326.657 8    598910.89245  23676702.570    23676715.6224
  22969997.647    -2254195.951 8  -1741508.82246  22969997.451    22970007.4334
  22903415.189   -12762158.127 8  -9662513.30346  22903415.336    22903426.7164
  23231198.188    -3109575.389 8  -2407238.63345  23231198.086    23231208.1454
 01  5 23  0 53 30.0000000  0  9 15 18 14 21 29 03 31 25 11
  24336381.589    10086648.661 7   7872584.84945  24336381.054    24336396.5384
  24012764.902     4641458.069 8   3640368.17545  24012764.419    24012774.7674
  20332277.816   -25959903.652 9 -19571134.47548  20332277.737    20332284.0834
  21316747.208   -23684580.415 9 -17920274.56847  21316747.063    21316755.3974
  20255401.499   -22581708.788 9 -17568445.47248  20255401.677    20255408.5484
  23693397.909      837060.052 8    667274.30945  23693397.851    23693410.8994
  22980570.753    -2198635.229 8  -1698214.84346  22980570.402    22980580.3954
  22886020.941   -12853564.365 8  -9733738.74046  22886021.138    22886032.5924
  23213702.943    -3201513.945 8  -2478878.99945  23213702.798    23213712.7754
 01  5 23  0 54  0.0000000  0  9 15 18 14 21 29 03 31 25 11
  24356966.120    10194819.957 8   7956873.81745  24356965.434    24356981.3264
  24026894.350     4715707.955 8   3698225.07645  24026893.907    24026904.1644
  20337101.106   -25934557.067 9 -19551383.89548  20337101.008    20337107.3744
  21321244.837   -23660945.782 9 -17901857.99547  21321244.639    21321252.9474
  20256898.562   -22573841.990 9 -17562315.50348  20256898.721    20256905.6134
  23710110.777      924884.964 8    735709.07445  23710110.582    23710123.6214
  22991216.837    -2142689.404 8  -1654620.77746  22991216.572    22991226.5504
  22868662.176   -12944784.912 8  -9804819.50746  22868662.335    22868673.7364
  23196247.723    -3293241.532 8  -2550354.97645  23196247.692    23196257.4334
 01  5 23  0 54 30.0000000  0  9 15 18 14 21 29 03 31 25 11
  24377578.196    10303135.345 8   8041275.07645  24377577.474    24377593.6174
  24041037.239     4790028.480 8   3756137.01345  24041036.807    24041047.0204
  20342005.911   -25908782.215 9 -19531299.59748  20342005.822    20342012.1874
  21325776.885   -23637129.448 9 -17883299.84347  21325776.702    21325784.9864
  20258473.182   -22565567.286 9 -17555867.68548  20258473.341    20258480.2654
  23726839.995     1012797.725 8    804212.26245  23726839.870    23726852.9554
  23001935.705    -2086361.869 8  -1610729.27946  23001935.351    23001945.3264
  22851339.073   -13035818.102 8  -9875754.27446  22851339.157    22851350.5444
  23178833.145    -3384756.399 8  -2621665.20545  23178833.018    23178842.5574
 01  5 23  0 55  0.0000000  0  9 15 18 14 21 29 03 31 25 11
  24398217.646    10411593.565 7   8125787.60745  24398216.886    24398232.9464
  24055193.515     4864420.478 8   3814104.64145  24055193.226    24055203.4514
  20346991.925   -25882580.556 9 -19510882.72648  20346991.831    20346998.1984
  21330343.621   -23613130.277 9 -17864599.21847  21330343.451    21330351.8134
  20260125.275   -22556885.542 9 -17549102.68348  20260125.447    20260132.3604
  23743585.488     1100795.641 8    872781.81145  23743585.437    23743598.7684
  23012726.577    -2029655.145 8  -1566542.31046  23012726.291    23012736.3394
  22834052.271   -13126660.167 8  -9946540.11846  22834052.315    22834063.5924
  23161459.398    -3476055.917 8  -2692807.59845  23161459.285    23161468.7784
 01  5 23  0 55 30.0000000  0  9 15 18 14 21 29 03 31 25 11
  24418883.541    10520192.409 7   8210409.71245  24418882.898    24418898.8794
  24069363.380     4938883.470 8   3872127.60045  24069363.135    24069373.3904
  20352058.806   -25855953.877 9 -19490134.66848  20352058.713    20352065.0624
  21334945.308   -23588948.060 9 -17845755.96247  21334945.165    21334953.5604
  20261854.480   -22547798.299 9 -17542021.71648  20261854.670    20261861.6174
  23760346.725     1188875.665 8    941415.34145  23760346.704    23760360.2094
  23023589.222    -1972572.117 8  -1522062.13046  23023588.851    23023598.9804
  22816802.147   -13217308.920 8 -10017175.33346  22816802.267    22816813.4424
  23144127.140    -3567137.939 8  -2763780.52245  23144127.104    23144136.4114
 01  5 23  0 56  0.0000000  0  9 15 18 14 21 29 03 31 25 11
  24439575.681    10628930.250 7   8295140.14745  24439575.443    24439591.1974
  24083546.910     5013417.520 8   3930205.92245  24083546.617    24083556.8734
  20357206.189   -25828903.936 9 -19469056.80448  20357206.139    20357212.5024
  21339581.980   -23564582.777 9 -17826770.05847  21339581.795    21339590.2034
  20263660.684   -22538306.783 9 -17534625.73148  20263660.889    20263667.8154
  23777122.842     1277034.668 8   1010110.40445  23777122.949    23777136.5824
  23034522.748    -1915115.442 8  -1477290.78546  23034522.492    23034532.6604
  22799589.509   -13307761.455 8 -10087657.65746  22799589.613    22799600.6934
  23126836.597    -3657999.988 7  -2834582.04345  23126836.614    23126845.8914
 01  5 23  0 56 30.0000000  0  9 15 18 14 21 29 03 31 25 11
  24460294.163    10737805.262 7   8379977.44645  24460293.732    24460309.7724
  24097743.710     5088022.657 7   3988339.64945  24097743.460    24097753.9594
  20362433.868   -25801432.376 9 -19447650.40248  20362433.790    20362440.1814
  21344253.687   -23540033.381 9 -17807640.70147  21344253.491    21344261.7824
  20265543.598   -22528412.270 9 -17526915.72648  20265543.766    20265550.6354
  23793913.639     1365270.001 8   1078864.95345  23793913.686    23793927.3814
  23045527.103    -1857287.651 8  -1432230.28546  23045526.813    23045536.9814
  22782414.711   -13398014.856 8 -10157984.81746  22782414.753    22782425.7584
  23109588.365    -3748639.266 7  -2905209.96145  23109588.435    23109597.5704
 01  5 23  0 57  0.0000000  0  9 15 18 14 21 29 03 31 25 11
  24481038.428    10846815.341 7   8464920.01545  24481037.930    24481053.8634
  24111954.247     5162699.015 8   4046528.87145  24111954.120    24111964.5534
  20367741.429   -25773541.196 9 -19425917.02748  20367741.336    20367747.6884
  21348960.401   -23515299.743 9 -17788367.77347  21348960.162    21348968.5234
  20267502.811   -22518116.190 9 -17518892.81148  20267502.980    20267509.8234
  23810718.552     1453578.384 8   1147676.42245  23810718.451    23810732.2034
  23056601.427    -1799091.696 8  -1386882.88046  23056601.147    23056611.3944
  22765278.159   -13488066.806 8 -10228155.00446  22765278.206    22765289.2254
  23092382.823    -3839054.007 7  -2975662.92245  23092382.957    23092392.0794
 01  5 23  0 57 30.0000000  0  9 15 18 14 21 29 03 31 25 11
  24501808.077    10955958.526 7   8549966.26045  24501807.421    24501823.5834
  24126178.437     5237445.916 7   4104773.05845  24126178.254    24126188.4394
  20373128.520   -25745232.427 9 -19403858.25748  20373128.406    20373134.6624
  21353702.233   -23490380.720 9 -17768950.37947  21353702.050    21353710.5714
  20269538.154   -22507420.253 9 -17510558.31048  20269538.331    20269545.1504
  23827536.466     1541956.508 8   1216542.24145  23827536.489    23827550.2154
  23067745.350    -1740530.600 8  -1341250.95446  23067745.102    23067755.3414
  22748180.338   -13577914.695 8 -10298166.17046  22748180.523    22748191.6064
  23075220.377    -3929242.027 8  -3045939.21345  23075220.508    23075229.6424
 01  5 23  0 58  0.0000000  0  9 15 18 14 21 29 03 31 25 11
  24522602.426    11065233.866 7   8635115.50145  24522601.856    24522618.0864
  24140415.759     5312264.161 7   4163072.82645  24140415.806    24140425.9424
  20378594.881   -25716506.905 9 -19381474.74748  20378594.742    20378600.9074
  21358479.637   -23465275.396 9 -17749387.82847  21358479.472    21358487.9814
  20271649.507   -22496324.878 9 -17501912.56748  20271649.669    20271656.5114
  23844367.391     1630402.518 8   1285460.93945  23844367.417    23844381.1634
  23078958.542    -1681606.241 8  -1295335.98146  23078958.140    23078968.4904
  22731122.231   -13667554.825 8 -10368015.45546  22731122.332    22731133.5174
  23058101.798    -4019199.970 8  -3116036.22345  23058101.889    23058111.1894
 01  5 23  0 58 30.0000000  0  9 15 18 14 21 29 03 31 25 11
  24543421.488    11174638.801 7   8720365.76145  24543421.073    24543437.4214
  24154666.690     5387153.283 7   4221427.83745  24154666.701    24154676.8884
  20384139.937   -25687367.124 9 -19358768.44048  20384139.834    20384145.9894
  21363292.381   -23439984.678 9 -17729680.81747  21363292.171    21363300.5574
  20273836.516   -22484831.951 9 -17492957.03648  20273836.695    20273843.5144
  23861210.775     1718912.733 8   1354429.67745  23861210.636    23861224.2574
  23090239.936    -1622321.751 8  -1249140.37146  23090239.639    23090250.1434
  22714104.083   -13756985.101 8 -10437701.22146  22714104.163    22714115.3184
  23041027.594    -4108925.961 8  -3185952.51845  23041027.648    23041036.8854
 01  5 23  0 59  0.0000000  0  9 15 18 14 21 29 03 31 25 11
  24564265.370    11284171.724 7   8805715.68145  24564264.634    24564281.3104
  24168931.371     5462113.305 7   4279838.07845  24168931.257    24168941.3414
  20389763.577   -25657814.609 9 -19335740.52048  20389763.471    20389769.6254
  21368140.511   -23414507.669 9 -17709828.64347  21368140.304    21368148.6804
  20276098.912   -22472942.902 9 -17483692.84148  20276099.089    20276105.9164
  23878065.606     1807484.084 8   1423446.05345  23878065.480    23878079.1274
  23101589.465    -1562680.123 8  -1202666.49846  23101589.132    23101599.5884
  22697126.458   -13846202.749 8 -10507221.29646  22697126.526    22697137.5934
  23023998.030    -4198417.587 8  -3255686.18345  23023997.918    23024007.0224
 01  5 23  0 59 30.0000000  0  9 15 18 14 21 29 03 31 25 11
  24585132.851    11393830.231 7   8891163.47945  24585132.356    24585149.2884
  24183209.318     5537143.808 7   4338303.23245  24183209.302    24183219.3804
  20395465.363   -25627851.517 9 -19312392.67048  20395465.253    20395471.4484
  21373024.150   -23388843.938 9 -17689830.96747  21373023.963    21373032.3634
  20278436.426   -22460659.374 9 -17474121.26248  20278436.590    20278443.4244
  23894931.345     1896113.262 8   1492507.48445  23894931.223    23894945.0224
  23113006.238    -1502684.565 8  -1155916.82046  23113005.938    23113016.4394
  22680189.597   -13935205.773 8 -10576574.14246  22680189.692    22680200.7224
  23007013.284    -4287672.765 8  -3325235.61545  23007013.216    23007022.3304
 01  5 23  1  0  0.0000000  0  9 15 18 14 21 29 03 31 25 11
  24606024.182    11503613.587 7   8976708.55145  24606023.973    24606040.6794
  24197500.882     5612246.071 7   4396824.33145  24197500.919    24197511.1494
  20401245.139   -25597478.883 9 -19288725.69348  20401245.002    20401251.2124
  21377943.752   -23362991.953 9 -17669686.60447  21377943.557    21377951.8274
  20280848.873   -22447981.729 9 -17464242.58448  20280849.030    20280855.8654
  23911807.670     1984798.352 8   1561612.48045  23911807.569    23911821.6274
  23124490.142    -1442336.809 8  -1108892.69846  23124489.879    23124500.3344
  22663294.340   -14023989.958 8 -10645756.45646  22663294.478    22663305.4364
  22990074.055    -4376688.130 8  -3394598.16945  22990074.044    22990083.3464
 01  5 23  1  0 30.0000000  0  9 15 18 14 21 29 03 31 25 11
  24626938.927    11613518.993 7   9062348.75545  24626938.644    24626955.1754
  24211805.963     5687418.947 8   4455400.44545  24211805.835    24211816.3794
  20407102.334   -25566699.135 9 -19264741.48848  20407102.217    20407108.4244
  21382899.049   -23336951.902 9 -17649395.69847  21382898.847    21382907.1724
  20283335.932   -22434912.268 9 -17454058.58948  20283336.098    20283342.8374
  23928693.870     2073535.699 8   1630758.18245  23928693.859    23928707.9524
  23136040.164    -1381640.545 8  -1061597.01646  23136040.052    23136050.5904
  22646440.973   -14112553.721 8 -10714767.02446  22646441.245    22646452.1264
  22973180.859    -4465462.206 8  -3463772.70045  22973180.898    22973190.1744
 01  5 23  1  1  0.0000000  0  9 15 18 14 21 29 03 31 25 11
  24647876.728    11723544.760 7   9148082.68445  24647876.459    24647892.6924
  24226124.564     5762662.772 7   4514031.85645  24226124.294    24226134.8744
  20413036.653   -25535514.014 9 -19240441.40848  20413036.559    20413042.7944
  21387890.148   -23310723.319 9 -17628957.86547  21387889.952    21387898.4364
  20285897.318   -22421452.183 9 -17443570.21248  20285897.466    20285904.2604
  23945589.636     2162322.669 8   1699942.55645  23945589.563    23945603.8154
  23147656.283    -1320598.144 8  -1014031.61846  23147656.131    23147666.6934
  22629630.363   -14200894.455 8 -10783603.79046  22629630.553    22629641.1984
  22956334.347    -4553992.199 8  -3532757.04145  22956334.200    22956343.4264
 01  5 23  1  1 30.0000000  0  9 15 18 14 21 29 03 31 25 11
  24668837.410    11833689.315 7   9233909.20545  24668836.868    24668853.0564
  24240456.465     5837977.623 8   4572718.58945  24240456.191    24240467.0444
  20419047.767   -25503925.304 9 -19215826.85348  20419047.668    20419053.9234
  21392917.334   -23284305.119 9 -17608372.28647  21392917.181    21392925.7084
  20288532.730   -22407602.625 9 -17432778.35248  20288532.921    20288539.7784
  23962494.248     2251156.369 8   1769163.34945  23962494.180    23962508.7174
  23159337.718    -1259212.526 8   -966198.78946  23159337.454    23159348.0604
  22612862.724   -14289009.253 8 -10852264.51146  22612862.791    22612873.2654
  22939534.583    -4642275.843 8  -3601549.41945  22939534.441    22939543.5104
 01  5 23  1  2  0.0000000  0  9 15 18 14 21 29 03 31 25 11
  24689819.965    11943950.605 7   9319826.67145  24689819.273    24689835.2184
  24254802.186     5913363.427 8   4631460.62045  24254802.019    24254812.8684
  20425135.339   -25471934.863 9 -19190899.24548  20425135.233    20425141.4904
  21397980.874   -23257697.053 9 -17587638.77147  21397980.646    21397989.0214
  20291241.974   -22393365.393 9 -17421684.39848  20291242.126    20291249.0264
  23979407.167     2340033.587 8   1838418.03945  23979407.162    23979421.6134
  23171083.889    -1197486.552 8   -918100.73046  23171083.652    23171094.1284
  22596138.381   -14376895.388 8 -10920747.04446  22596138.469    22596148.7804
  22922782.004    -4730310.729 8  -3670147.95045  22922781.878    22922790.8984
 01  5 23  1  2 30.0000000  0  9 15 18 14 21 29 03 31 25 11
  24710824.133    12054326.686 7   9405833.61245  24710823.314    24710839.3834
  24269161.334     5988820.147 7   4690257.90045  24269161.120    24269172.0824
  20431298.953   -25439544.657 9 -19165660.14448  20431298.816    20431305.1744
  21403080.439   -23230898.793 9 -17566757.04947  21403080.186    21403088.5814
  20294024.712   -22378741.774 9 -17410289.37848  20294024.909    20294031.8834
  23996327.703     2428951.461 7   1907704.40745  23996327.858    23996342.2174
  23182894.286    -1135423.104 8   -869739.72446  23182894.046    23182904.4314
  22579457.971   -14464550.314 8 -10989049.43146  22579458.117    22579468.3934
  22906077.287    -4818094.246 8  -3738550.61345  22906077.203    22906086.1794
 01  5 23  1  3  0.0000000  0  9 15 18 14 21 29 03 31 25 11
  24731849.155    12164816.375 7   9491929.09545  24731848.808    24731865.2054
  24283533.611     6064348.444 7   4749110.98245  24283533.569    24283544.8944
  20437538.470   -25406755.512 9 -19140110.17748  20437538.386    20437544.7854
  21408216.414   -23203909.043 9 -17545726.10747  21408216.230    21408224.6214
  20296880.996   -22363732.245 9 -17398593.64448  20296881.152    20296888.1004
  24013255.595     2517907.865 7   1977020.79045  24013255.829    24013270.3664
  23194768.432    -1073024.238 8   -821117.33046  23194768.226    23194778.6174
  22562822.372   -14551969.767 8 -11057168.32046  22562822.603    22562832.8554
  22889421.037    -4905623.378 8  -3806755.05045  22889420.914    22889429.9254
 01  5 23  1  3 30.0000000  0  9 15 18 14 21 29 03 31 25 11
  24752896.086    12275417.545 7   9578111.41645  24752895.526    24752912.4304
  24297919.968     6139947.859 8   4808019.43845  24297919.790    24297931.1564
  20443853.520   -25373569.954 9 -19114251.31148  20443853.415    20443859.7934
  21413388.981   -23176727.726 9 -17524545.89847  21413388.729    21413397.0834
  20299810.185   -22348339.052 9 -17386598.94848  20299810.374    20299817.3084
  24030190.359     2606899.294 8   2046364.46945  24030190.525    24030205.2474
  23206705.843    -1010293.290 8   -772236.18546  23206705.572    23206716.1364
  22546232.060   -14639152.380 8 -11125102.66146  22546232.218    22546242.6104
  22872813.600    -4992896.264 8  -3874759.81545  22872813.440    22872822.3204
 01  5 23  1  4  0.0000000  0  8 18 14 21 29 03 31 25 11
  24312320.227     6215620.161 7   4866984.69445  24312319.950    24312331.0594
  20450243.911   -25339988.023 9 -19088083.59348  20450243.811    20450250.2174
  21418598.277   -23149352.325 9 -17503214.45547  21418598.043    21418606.4384
  20302812.530   -22332561.738 9 -17374304.94248  20302812.705    20302819.6514
  24047131.667     2695924.525 8   2115734.48845  24047131.776    24047146.5874
  23218706.181     -947231.464 8   -723097.20546  23218705.924    23218716.5194
  22529687.655   -14726093.660 8 -11192848.95746  22529687.772    22529698.2374
  22856255.670    -5079908.911 8  -3942561.80545  22856255.524    22856264.1704
 01  5 23  1  4 30.0000000  0  8 18 14 21 29 03 31 25 11
  24326733.813     6291364.090 7   4926005.76945  24326733.803    24326744.8654
  20456709.152   -25306012.950 9 -19061609.52848  20456709.055    20456715.4784
  21423844.400   -23121783.572 9 -17481732.33947  21423844.211    21423852.6294
  20305887.438   -22316402.965 9 -17361713.69948  20305887.617    20305894.5774
  24064078.660     2784979.588 7   2185127.73945  24064078.605    24064093.3634
  23230768.819     -883842.922 8   -673703.66746  23230768.573    23230779.0864
  22513189.247   -14812792.328 8 -11260406.21146  22513189.434    22513199.9594
  22839747.489    -5166659.803 8  -4010159.83146  22839747.372    22839755.8704
 01  5 23  1  5  0.0000000  0  8 18 14 21 29 03 31 25 11
  24341160.670     6367178.260 7   4985081.59945  24341160.674    24341172.0884
  20463248.745   -25271647.613 9 -19034831.35948  20463248.618    20463254.9854
  21429127.300   -23094022.264 9 -17460100.17747  21429127.084    21429135.4654
  20309034.436   -22299865.348 9 -17348827.25348  20309034.598    20309041.5094
  24081030.100     2874060.416 7   2254541.05645  24081030.198    24081045.1644
  23242892.787     -820131.807 8   -624058.76446  23242892.490    23242903.0614
  22496737.426   -14899246.413 8 -11327772.88046  22496737.593    22496748.1884
  22823289.301    -5253147.879 8  -4077553.07046  22823289.156    22823297.6254
 01  5 23  1  5 30.0000000  0  8 18 14 21 29 03 31 25 11
  24355601.272     6443063.860 7   5044213.06045  24355601.398    24355613.1504
  20469862.331   -25236893.033 9 -19007749.88748  20469862.229    20469868.4974
  21434447.001   -23066067.100 9 -17438316.96647  21434446.772    21434455.1404
  20312253.389   -22282949.591 9 -17335646.14448  20312253.579    20312260.4754
  24097986.400     2963165.351 7   2323973.16745  24097986.660    24098001.4594
  23255077.572     -756099.981 8   -574163.94946  23255077.335    23255088.0314
  22480332.833   -14985452.443 8 -11394946.25946  22480333.040    22480343.5724
  22806881.688    -5339369.503 8  -4144738.65546  22806881.594    22806890.1184
 01  5 23  1  6  0.0000000  0  8 18 14 21 29 03 31 25 11
  24370055.624     6519020.774 7   5103400.09245  24370055.621    24370067.4124
  20476549.596   -25201751.164 9 -18980366.62848  20476549.510    20476555.7664
  21439803.596   -23037917.468 9 -17416382.21147  21439803.403    21439811.8714
  20315544.103   -22265657.034 9 -17322171.42748  20315544.281    20315551.1914
  24114946.856     3052291.175 7   2393421.55945  24114947.010    24114961.7264
  23267323.013     -691750.496 8   -524021.62046  23267322.738    23267333.4144
  22463976.037   -15071408.076 8 -11461924.51546  22463976.153    22463986.4704
  22790525.217    -5425322.548 8  -4211714.99046  22790525.178    22790533.7954
 01  5 23  1  6 30.0000000  0  8 18 14 21 29 03 31 25 11
  24384522.988     6595047.986 7   5162641.89545  24384522.946    24384534.9474
  20483310.092   -25166224.933 9 -18952683.86148  20483310.000    20483316.2634
  21445197.341   -23009573.383 9 -17394295.94447  21445197.169    21445205.6084
  20318906.035   -22247990.137 9 -17308405.02348  20318906.234    20318913.0914
  24131910.352     3141433.791 8   2462883.01045  24131910.385    24131925.3974
  23279628.166     -627086.782 8   -473634.43946  23279627.899    23279638.5684
  22447667.282   -15157111.332 8 -11528706.11646  22447667.243    22447677.3954
  22774220.295    -5511005.383 8  -4278480.76746  22774220.246    22774228.9234
 01  5 23  1  7  0.0000000  0  8 18 14 21 29 03 31 25 11
  24399004.085     6671146.569 7   5221939.32345  24399004.111    24399016.1234
  20490143.512   -25130315.158 9 -18924702.24248  20490143.399    20490149.6464
  21450628.390   -22981033.813 9 -17372057.34847  21450628.159    21450636.5234
  20322339.051   -22229949.615 9 -17294347.47848  20322339.257    20322346.0764
  24148876.828     3230591.370 8   2532356.13045  24148876.700    24148891.6584
  23291992.773     -562111.076 8   -423004.14546  23291992.489    23292003.1924
  22431406.951   -15242558.841 8 -11595288.43846  22431407.030    22431417.0654
  22757967.269    -5596414.779 8  -4345033.46846  22757967.278    22757976.0704
 01  5 23  1  7 30.0000000  0  8 18 14 21 29 03 31 25 11
  24413498.630     6747316.536 7   5281292.37545  24413498.766    24413510.9394
  20497049.623   -25094023.633 9 -18896423.14548  20497049.518    20497055.6624
  21456096.617   -22952297.952 9 -17349665.79147  21456096.414    21456104.7604
  20325842.889   -22211536.737 9 -17279999.77948  20325843.072    20325849.9834
  24165845.688     3319761.243 7   2601838.83745  24165845.452    24165860.5154
  23304416.151     -496826.164 8   -372132.88446  23304415.838    23304426.7074
  22415195.871   -15327747.833 8 -11661669.32846  22415195.993    22415206.0554
  22741766.724    -5681548.408 8  -4411371.28946  22741766.763    22741775.5534
 01  5 23  1  8  0.0000000  0  8 18 14 21 29 03 31 25 11
  24428007.059     6823557.673 7   5340700.88345  24428007.132    24428018.9804
  20504027.937   -25057352.394 9 -18867848.17348  20504027.827    20504033.9504
  21461602.301   -22923365.089 9 -17327120.73447  21461602.112    21461610.5174
  20329417.217   -22192753.097 9 -17265363.18548  20329417.437    20329424.3764
  24182816.154     3408940.692 7   2671328.99545  24182815.865    24182830.9934
  23316897.743     -431235.052 8   -321023.05246  23316897.547    23316908.3334
  22399034.504   -15412675.837 8 -11727846.85946  22399034.632    22399044.7314
  22725619.210    -5766403.607 8  -4477492.16446  22725619.271    22725628.0424
 01  5 23  1  8 30.0000000  0  8 18 14 21 29 03 31 25 11
  24442529.236     6899869.508 7   5400164.47045  24442529.228    24442540.7134
  20511077.962   -25020304.115 9 -18838979.39948  20511077.866    20511084.0094
  21467145.479   -22894235.578 9 -17304422.44247  21467145.294    21467153.6784
  20333061.850   -22173600.777 9 -17250439.30548  20333062.024    20333068.8854
  24199787.643     3498125.819 7   2740823.55545  24199787.495    24199802.8814
  23329437.052     -365341.486 8   -269677.56246  23329436.827    23329447.3654
  22382923.163   -15497340.716 8 -11793819.35446  22382923.305    22382933.3254
  22709525.137    -5850978.588 8  -4543394.70146  22709525.133    22709533.8474
 01  5 23  1  9  0.0000000  0  8 18 14 21 29 03 31 25 11
  24457064.897     6976251.690 7   5459682.87745  24457064.707    24457076.0154
  20518199.361   -24982880.839 9 -18809818.42248  20518199.266    20518205.4754
  21472726.235   -22864908.552 9 -17281570.24347  21472726.031    21472734.4864
  20336776.287   -22154081.452 9 -17235229.45348  20336776.433    20336783.2584
  24216759.819     3587313.922 8   2810320.46445  24216759.825    24216775.4154
  23342033.321     -299148.234 8   -218098.53246  23342033.037    23342043.6344
  22366862.281   -15581739.763 8 -11859584.70446  22366862.514    22366872.4824
  22693484.877    -5935271.122 8  -4609077.14846  22693484.748    22693493.4424
 01  5 23  1  9 30.0000000  0  8 18 14 21 29 03 31 25 11
  24471613.480     7052705.005 7   5519256.71145  24471613.274    24471624.6554
  20525391.892   -24945083.619 9 -18780366.05648  20525391.817    20525398.1104
  21478344.641   -22835382.889 9 -17258563.25647  21478344.492    21478353.1174
  20340560.314   -22134196.152 9 -17219734.41648  20340560.483    20340567.3434
  24233732.411     3676502.549 8   2879817.74345  24233732.265    24233747.8274
  23354685.958     -232657.802 8   -166287.91346  23354685.737    23354696.6734
  22350852.636   -15665869.906 8 -11925140.53446  22350852.887    22350862.8484
  22677498.614    -6019278.262 8  -4674537.18646  22677498.615    22677507.3154
 01  5 23  1 10  0.0000000  0  8 18 14 21 29 03 31 25 11
  24486175.727     7129230.349 7   5578886.70245  24486175.673    24486187.0594
  20532655.421   -24906913.407 9 -18750623.04548  20532655.358    20532661.6844
  21484001.213   -22805657.556 9 -17235400.68847  21484001.065    21484009.7014
  20344413.865   -22113945.343 9 -17203954.56548  20344414.055    20344420.9584
  24250704.644     3765689.904 8   2949314.02945  24250704.346    24250719.5804
  23367395.022     -165872.087 8   -114247.21946  23367394.779    23367405.8434
  22334894.990   -15749727.762 8 -11990484.16646  22334895.154    22334905.1034
  22661567.432    -6102996.719 8  -4739772.30546  22661567.424    22661576.1244
 01  5 23  1 10 30.0000000  0  8 18 14 21 29 03 31 25 11
  24500751.936     7205827.044 7   5638572.28945  24500751.772    24500763.1014
  20539989.427   -24868373.364 9 -18720591.86248  20539989.341    20539995.6264
  21489695.887   -22775732.580 9 -17212082.55947  21489695.693    21489704.2164
  20348336.535   -22093331.442 9 -17187891.79148  20348336.720    20348343.7014
  24267675.828     3854872.361 8   3018806.48545  24267675.348    24267690.5784
  23380159.484      -98795.257 8    -61979.68746  23380159.173    23380170.2114
  22318989.596   -15833311.160 8 -12055613.96146  22318989.675    22318999.6054
  22645691.625    -6186424.703 8  -4804781.06646  22645691.564    22645700.2684
 01  5 23  1 11  0.0000000  0  8 18 14 21 29 03 31 25 11
  24515341.774     7282494.863 7   5698313.27845  24515341.372    24515352.7324
  20547393.466   -24829465.258 9 -18690273.87548  20547393.336    20547399.6644
  21495428.536   -22745607.661 9 -17188608.63547  21495428.304    21495436.8494
  20352328.087   -22072355.929 9 -17171547.24748  20352328.286    20352335.2034
  24284645.502     3944046.990 8   3088292.83545  24284645.208    24284660.4384
  23392978.753      -31429.863 8     -9487.31746  23392978.508    23392989.4874
  22303136.711   -15916617.880 8 -12120528.16846  22303136.870    22303146.8564
  22629871.418    -6269559.627 8  -4869561.47346  22629871.376    22629880.1194
 01  5 23  1 11 30.0000000  0  8 18 14 21 29 03 31 25 11
  24529944.987     7359234.553 7   5758110.27645  24529944.593    24529955.7644
  20554867.300   -24790190.202 9 -18659669.94648  20554867.162    20554873.4964
  21501199.526   -22715281.245 9 -17164977.69247  21501199.250    21501207.8464
  20356388.321   -22051019.438 9 -17154921.41448  20356388.476    20356395.3444
  24301613.051     4033211.777 8   3157771.54645  24301613.003    24301628.4114
  23405852.436       36221.686 8     43228.05246  23405852.306    23405863.2464
  22287337.210   -15999644.451 8 -12185224.06546  22287337.387    22287347.3774
  22614107.449    -6352398.703 8  -4934111.33246  22614107.519    22614116.2144
 01  5 23  1 12  0.0000000  0  8 18 14 21 29 03 31 25 11
  24544561.588     7436045.783 7   5817963.02545  24544561.324    24544572.5674
  20562410.468   -24750550.597 9 -18628781.95548  20562410.330    20562416.6184
  21507008.790   -22684753.053 9 -17141189.52347  21507008.588    21507017.2324
  20360516.767   -22029324.277 9 -17138016.09748  20360516.938    20360523.8254
  24318577.962     4122363.323 8   3227239.94345  24318578.129    24318593.8084
  23418780.056      104156.182 8     96163.89546  23418779.936    23418790.8804
  22271591.458   -16082388.666 8 -12249699.95146  22271591.658    22271601.5624
  22598400.523    -6434939.670 8  -4998428.90146  22598400.503    22598409.0604
 01  5 23  1 12 30.0000000  0  8 18 14 21 29 03 31 25 11
  24559192.047     7512928.503 7   5877871.46945  24559191.875    24559203.0924
  20570022.640   -24710548.374 9 -18597611.40548  20570022.520    20570028.7464
  21512856.590   -22654022.688 9 -17117243.81747  21512856.409    21512865.0434
  20364713.195   -22007271.940 9 -17120832.45948  20364713.372    20364720.2714
  24335540.012     4211499.052 8   3296696.00145  24335540.265    24335555.9654
  23431760.940      172370.293 8    149317.61146  23431760.759    23431771.7704
  22255899.878   -16164847.977 8 -12313953.83546  22255900.081    22255909.9174
  22582750.574    -6517180.261 8  -5062512.41646  22582750.567    22582759.0844
 01  5 23  1 13  0.0000000  0  8 18 14 21 29 03 31 25 11
  24573835.921     7589882.724 7   5937835.63745  24573835.887    24573847.4744
  20577703.454   -24670185.477 9 -18566159.81248  20577703.342    20577709.6164
  21518742.996   -22623089.545 9 -17093140.10847  21518742.784    21518751.3844
  20368977.344   -21984863.769 9 -17103371.55248  20368977.500    20368984.3884
  24352498.955     4300616.350 7   3366137.66145  24352499.055    24352514.7754
  23444794.496      240861.418 8    202687.18446  23444794.246    23444805.3004
  22240263.109   -16247019.552 8 -12377983.50547  22240263.296    22240273.0454
  22567158.309    -6599117.779 8  -5126359.75246  22567158.252    22567166.8454
 01  5 23  1 13 30.0000000  0  8 18 14 21 29 03 31 25 11
  24588493.202     7666907.959 7   5997855.15545  24588493.261    24588504.7104
  20585452.469   -24629464.340 9 -18534429.07348  20585452.348    20585458.6834
  21524668.038   -22591953.324 9 -17068878.15447  21524667.842    21524676.3804
  20373308.803   -21962101.797 9 -17085634.95648  20373308.952    20373315.7724
  24369453.457     4389711.562 8   3435562.13545  24369453.608    24369469.4644
  23457880.129      309625.921 8    256269.77946  23457879.808    23457890.8074
  22224681.653   -16328901.339 8 -12441787.36447  22224681.663    22224691.2964
  22551624.205    -6680750.259 8  -5189969.40946  22551624.145    22551632.6144
 01  5 23  1 14  0.0000000  0  8 18 14 21 29 03 31 25 11
  24603164.211     7744004.630 7   6057930.30445  24603164.174    24603175.9134
  20593269.299   -24588386.396 9 -18502420.30648  20593269.196    20593275.5104
  21530631.979   -22560613.275 9 -17044457.38247  21530631.764    21530640.2574
  20377707.400   -21938987.350 9 -17067623.70648  20377707.527    20377714.3244
  24386403.309     4478782.298 7   3504967.53445  24386403.374    24386419.4444
  23471017.247      378661.528 8    310063.61646  23471016.873    23471027.9204
  22209155.512   -16410490.795 8 -12505363.44747  22209155.582    22209165.2204
  22536148.643    -6762075.066 8  -5253339.33346  22536148.549    22536157.0084
 01  5 23  1 14 30.0000000  0  8 18 14 21 29 03 31 25 11
  24617848.952     7821172.463 7   6118060.90745  24617848.909    24617860.5284
  20601153.675   -24546953.929 9 -18470135.27548  20601153.548    20601159.8204
  21536634.646   -22529068.898 9 -17019877.38747  21536634.398    21536643.0064
  20382172.632   -21915522.288 9 -17049339.24948  20382172.785    20382179.5544
  24403347.907     4567825.970 7   3574351.83145  24403348.013    24403364.3824
  23484205.244      447964.627 8    364065.88746  23484204.893    23484216.0164
  22193685.465   -16491785.465 8 -12568709.82147  22193685.592    22193695.2014
  22520732.012    -6843089.969 8  -5316467.74946  22520731.912    22520740.3254
 01  5 23  1 15  0.0000000  0  8 18 14 21 29 03 31 25 11
  24632547.013     7898412.046 7   6178247.42145  24632547.053    24632558.7244
  20609105.188   -24505168.231 9 -18437575.01048  20609105.074    20609111.3704
  21542676.380   -22497318.889 9 -16995137.14847  21542676.195    21542684.8374
  20386704.507   -21891707.285 9 -17030782.11348  20386704.658    20386711.4084
  24420286.911     4656840.248 8   3643713.18445  24420287.056    24420303.6004
  23497443.846      517533.055 8    418274.88346  23497443.428    23497454.5954
  22178272.304   -16572781.646 8 -12631823.60947  22178272.402    22178282.1044
  22505374.939    -6923791.824 8  -5379352.24946  22505374.844    22505383.3044
 01  5 23  1 15 30.0000000  0  8 18 14 21 29 03 31 25 11
  24647258.778     7975723.598 7   6238490.04845  24647258.967    24647270.8294
  20617123.525   -24463031.195 9 -18404740.97648  20617123.403    20617129.8074
  21548757.483   -22465362.652 9 -16970236.22547  21548757.266    21548765.9134
  20391302.644   -21867543.942 9 -17011953.54048  20391302.765    20391309.5344
  24437219.844     4745822.218 7   3713049.41345  24437220.074    24437236.5734
  23510732.065      587363.623 8    472688.16045  23510731.769    23510742.9934
  22162916.332   -16653477.045 8 -12694703.03547  22162916.462    22162926.1684
  22490077.847    -7004178.321 8  -5441991.01846  22490077.733    22490086.2724
 01  5 23  1 16  0.0000000  0  8 18 14 21 29 03 31 25 11
  24661984.607     8053106.270 7   6298788.07245  24661984.422    24661996.3444
  20625208.215   -24420545.527 9 -18371635.27348  20625208.125    20625214.5734
  21554877.836   -22433200.251 9 -16945174.65247  21554877.609    21554886.2414
  20395966.568   -21843034.646 9 -16992855.39848  20395966.716    20395973.5434
  24454145.906     4834768.372 7   3782357.70045  24454146.136    24454162.8944
  23524069.745      657452.819 8    527302.96145  23524069.525    23524080.6994
  22147618.088   -16733870.064 8 -12757346.82247  22147618.123    22147627.7834
  22474841.144    -7084247.441 8  -5504382.48146  22474841.071    22474849.6034
 01  5 23  1 16 30.0000000  0  8 18 14 21 29 03 31 25 11
  24676723.796     8130559.449 7   6359141.01745  24676723.610    24676735.2254
  20633358.931   -24377713.613 9 -18338259.76748  20633358.803    20633365.2154
  21561037.337   -22400832.014 9 -16919952.69247  21561037.164    21561045.7164
  20400695.953   -21818181.405 9 -16973489.24548  20400696.092    20400702.9644
  24471064.951     4923675.750 7   3851635.78045  24471064.964    24471081.7744
  23537456.165      727797.444 8    582116.79345  23537455.858    23537466.9074
  22132377.607   -16813958.529 8 -12819753.31147  22132377.664    22132387.3254
  22459665.195    -7163997.430 8  -5566525.28246  22459665.148    22459673.6474
 01  5 23  1 17  0.0000000  0  7 14 21 29 03 31 25 11
  20641575.930   -24334533.045 9 -18304612.60048  20641575.785    20641582.2574
  21567237.264   -22368252.064 9 -16894565.76347  21567237.062    21567245.5254
  20405491.349   -21792981.180 9 -16953852.72248  20405491.492    20405498.4104
  24487976.789     5012546.173 7   3920885.08145  24487977.035    24487993.6064
  23550891.058      798398.804 8    637130.67345  23550890.808    23550901.8674
  22117196.378   -16893735.248 8 -12881916.87947  22117196.504    22117206.1434
  22444551.383    -7243421.245 8  -5628413.91546  22444551.300    22444559.7664
 01  5 23  1 17 30.0000000  0  7 14 21 29 03 31 25 11
  20649857.970   -24291010.799 9 -18270699.18148  20649857.821    20649864.2804
  21573476.427   -22335465.504 9 -16869017.82847  21573476.203    21573484.6264
  20410351.569   -21767440.676 9 -16933951.03948  20410351.678    20410358.6054
  24504880.101     5101371.570 7   3990099.25445  24504880.184    24504896.7704
  23564373.515      869248.569 8    692338.11045  23564373.244    23564384.3664
  22102074.306   -16973202.675 8 -12943839.43747  22102074.352    22102083.8744
  22429499.059    -7322521.774 8  -5690050.63546  22429498.921    22429507.4004
 01  5 23  1 18  0.0000000  0  7 14 21 29 03 31 25 11
  20658204.846   -24247148.238 9 -18236520.57348  20658204.692    20658210.9994
  21579754.942   -22302471.316 9 -16843308.10847  21579754.717    21579763.2194
  20415276.327   -21741560.832 9 -16913784.94848  20415276.478    20415283.3724
  24521774.086     5190149.646 7   4059276.58745  24521774.089    24521790.9854
  23577902.625      940344.536 8    747737.41945  23577902.398    23577913.7534
  22087011.489   -17052357.828 8 -13005518.66447  22087011.481    22087020.9664
  22414508.775    -7401295.934 8  -5751433.04746  22414508.669    22414517.1204
 01  5 23  1 18 30.0000000  0  7 14 21 29 03 31 25 11
  20666616.282   -24202946.152 9 -18202077.41248  20666616.079    20666622.3794
  21586073.372   -22269267.516 9 -16817435.04747  21586073.202    21586081.6814
  20420265.560   -21715342.590 9 -16893355.15948  20420265.654    20420272.5604
  24538658.795     5278879.054 7   4128415.97245  24538658.950    24538676.2984
  23591478.333     1011684.823 8    803327.12345  23591478.070    23591489.6824
  22072008.698   -17131197.070 8 -13066951.74347  22072008.757    22072018.2344
  22399581.168    -7479740.108 8  -5812558.31946  22399581.103    22399589.5454
 01  5 23  1 19  0.0000000  0  7 14 21 29 03 31 25 11
  20675091.481   -24158408.305 9 -18167372.62448  20675091.312    20675097.7054
  21592431.668   -22235855.398 9 -16791399.67347  21592431.391    21592439.8554
  20425318.560   -21688788.767 9 -16872663.88348  20425318.686    20425325.6504
  24555533.887     5367555.764 7   4197514.26845  24555533.886    24555551.3984
  23605099.678     1083264.745 8    859103.54445  23605099.379    23605111.1434
  22057066.272   -17209719.384 8 -13128137.85847  22057066.381    22057075.7524
  22384716.650    -7557853.494 8  -5873425.86146  22384716.593    22384724.8944
 01  5 23  1 19 30.0000000  0  7 14 21 29 03 31 25 11
  20683630.618   -24113535.190 9 -18132406.57648  20683630.460    20683636.8544
  21598829.745   -22202232.874 9 -16765200.33347  21598829.521    21598838.0534
  20430435.366   -21661899.815 9 -16851711.46448  20430435.474    20430442.4814
  24572398.653     5456178.189 7   4266570.27845  24572398.742    24572415.8664
  23618766.374     1155082.632 8    915065.37045  23618766.068    23618777.4944
  22042185.051   -17287921.043 8 -13189074.10047  22042185.063    22042194.3114
  22369915.852    -7635632.329 8  -5934032.70646  22369915.750    22369924.0144
 01  5 23  1 20  0.0000000  0  7 14 21 29 03 31 25 11
  20692233.181   -24068328.597 9 -18097180.67448  20692232.975    20692239.3964
  21605268.188   -22168399.182 9 -16738836.46047  21605267.994    21605276.4854
  20435615.648   -21634677.167 9 -16830499.02748  20435615.768    20435622.8024
  24589252.308     5544743.589 7   4335581.83845  24589252.414    24589269.7254
  23632477.765     1227135.417 8    971210.22145  23632477.307    23632488.6884
  22027365.276   -17365799.174 8 -13249758.25347  22027365.293    22027374.5094
  22355179.188    -7713074.027 8  -5994376.83546  22355179.052    22355187.3494
 01  5 23  1 20 30.0000000  0  7 14 21 29 03 31 25 11
  20700898.476   -24022791.347 9 -18061697.13347  20700898.337    20700904.8644
  21611746.798   -22134354.498 9 -16712308.16847  21611746.519    21611755.0784
  20440859.056   -21607122.959 9 -16809028.22748  20440859.198    20440866.1924
  24606094.545     5633248.561 7   4404546.33045  24606094.734    24606111.9214
  23646232.992     1299419.499 8   1027535.35045  23646232.454    23646244.0614
  22012607.226   -17443352.431 8 -13310189.26547  22012607.279    22012616.5204
  22340506.994    -7790176.775 8  -6054456.85446  22340506.899    22340515.1344
 01  5 23  1 21  0.0000000  0  7 14 21 29 03 31 25 11
  20709626.675   -23976924.170 9 -18025956.49648  20709626.554    20709633.0904
  21618265.732   -22100096.665 9 -16685613.79147  21618265.486    21618274.1864
  20446165.465   -21579237.712 9 -16787299.48448  20446165.594    20446172.5904
  24622924.708     5721691.569 7   4473462.53545  24622924.974    24622942.5374
  23660031.838     1371933.158 8   1084039.36445  23660031.421    23660043.1614
  21997911.677   -17520576.914 8 -13370364.08047  21997911.803    21997921.0294
  22325899.910    -7866937.241 8  -6114270.17046  22325899.782    22325908.0454
 01  5 23  1 21 30.0000000  0  7 14 21 29 03 31 25 11
  20718417.297   -23930729.380 9 -17989960.57647  20718417.128    20718423.6524
  21624825.356   -22065625.514 9 -16658753.19047  21624825.145    21624833.8314
  20451534.544   -21551023.238 9 -16765314.19448  20451534.667    20451541.6114
  24639742.439     5810069.650 7   4542328.16945  24639742.910    24639761.1194
  23673873.971     1444672.917 8   1140719.55345  23673873.558    23673885.3184
  21983279.322   -17597470.561 8 -13430281.10347  21983279.412    21983288.5424
  22311358.312    -7943353.162 8  -6173814.99746  22311358.248    22311366.5404
 01  5 23  1 22  0.0000000  0  7 14 21 29 03 31 25 11
  20727269.754   -23884209.209 9 -17953711.12048  20727269.610    20727276.1894
  21631425.729   -22030940.994 9 -16631726.33947  21631425.436    21631434.0504
  20456965.837   -21522481.565 9 -16743073.95048  20456965.947    20456972.8954
  24656547.670     5898380.374 7   4611141.28145  24656548.106    24656566.3064
  23687758.228     1517635.535 8   1197573.41045  23687757.956    23687769.8314
  21968710.319   -17674031.150 9 -13489938.60047  21968710.368    21968719.4834
  22296882.781    -8019422.327 8  -6233089.62346  22296882.699    22296891.0184
 01  5 23  1 22 30.0000000  0  7 14 21 29 03 31 25 11
  20736183.882   -23837365.935 9 -17917209.89848  20736183.728    20736190.2064
  21638066.445   -21996042.915 8 -16604533.07047  21638066.228    21638074.9674
  20462458.988   -21493614.952 9 -16720580.50248  20462459.124    20462466.0534
  24673339.848     5986620.181 7   4679899.15645  24673339.911    24673358.2774
  23701684.460     1590817.492 8   1254598.14445  23701684.215    23701695.8634
  21954204.949   -17750256.550 9 -13549334.92247  21954205.090    21954214.1594
  22282473.577    -8095143.187 8  -6292092.85946  22282473.445    22282481.7164
 01  5 23  1 23  0.0000000  0  7 14 21 29 03 31 25 11
  20745159.137   -23790201.095 9 -17880458.10148  20745158.955    20745165.3794
  21644748.198   -21960930.217 8 -16577172.56647  21644747.982    21644756.7474
  20468013.750   -21464424.324 9 -16697834.57948  20468013.869    20468020.8074
  24690117.914     6074786.979 7   4748600.11545  24690117.995    24690135.9954
  23715651.957     1664216.177 8   1311791.75845  23715651.596    23715663.2974
  21939764.040   -17826144.065 8 -13608467.95047  21939764.118    21939773.1964
  22268131.214    -8170512.486 8  -6350822.14146  22268131.094    22268139.4194
 01  5 23  1 23 30.0000000  0  7 14 21 29 03 31 25 11
  20754195.038   -23742717.424 9 -17843457.86448  20754194.860    20754201.2534
  21651470.929   -21925602.582 9 -16549644.57647  21651470.698    21651479.4694
  20473629.762   -21434911.808 9 -16674837.83248  20473629.921    20473636.8454
  24706881.322     6162877.573 7   4817241.70545  24706881.360    24706899.6024
  23729659.840     1737828.177 8   1369151.62345  23729659.479    23729671.5344
  21925387.698   -17901691.543 9 -13667336.02447  21925387.810    21925396.9154
  22253856.112    -8245528.526 8  -6409276.15746  22253855.976    22253864.3004
 01  5 23  1 24  0.0000000  0  7 14 21 29 03 31 25 11
  20763291.313   -23694916.380 9 -17806210.32948  20763291.103    20763297.5484
  21658234.660   -21890059.571 8 -16521948.77747  21658234.386    21658243.1784
  20479306.890   -21405078.640 9 -16651591.22748  20479307.061    20479313.9134
  24723629.746     6250889.725 7   4885822.17445  24723630.056    24723648.2224
  23743708.100     1811650.768 8   1426675.56045  23743707.682    23743719.6584
  21911076.635   -17976896.314 9 -13725937.04847  21911076.747    21911085.7784
  22239648.803    -8320188.463 8  -6467452.70346  22239648.682    22239656.9804
 01  5 23  1 24 30.0000000  0  7 14 21 29 03 31 25 11
  20772447.646   -23646799.389 9 -17768716.58847  20772447.454    20772453.9294
  21665039.531   -21854299.624 8 -16494083.92147  21665039.295    21665048.0484
  20485044.804   -21374925.998 9 -16628095.68348  20485044.919    20485051.7764
  24740363.012     6338821.311 7   4954339.85545  24740363.312    24740381.4764
  23757795.982     1885681.559 8   1484361.73745  23757795.520    23757807.3284
  21896831.430   -18051755.383 9 -13784268.68847  21896831.499    21896840.3904
  22225509.794    -8394489.125 8  -6525349.28146  22225509.660    22225517.9874
 01  5 23  1 25  0.0000000  0  6 14 21 29 31 25 11
  20781664.989   -23598361.777 9 -17730973.01847  20781664.793    20781671.3094
  21671887.120   -21818315.398 8 -16466044.31047  21671886.855    21671895.5914
  20490844.403   -21344448.766 9 -16604347.20948  20490844.533    20490851.3914
  23771923.847     1959924.015 8   1542212.84145  23771923.469    23771935.3724
  21882653.729   -18126259.596 9 -13842323.82347  21882653.794    21882662.6104
  22211440.825    -8468421.742 8  -6582959.07546  22211440.710    22211449.0664
 01  5 23  1 25 30.0000000  0  6 14 21 29 31 25 11
  20790942.618   -23549607.163 9 -17692982.44047  20790942.450    20790949.0034
  21678777.182   -21782108.269 9 -16437831.01547  21678776.925    21678785.6574
  20496705.223   -21313650.179 9 -16580348.32348  20496705.366    20496712.1704
  23786091.099     2034373.258 8   1600225.10445  23786090.752    23786102.6954
  21868543.663   -18200408.193 9 -13900101.86147  21868543.722    21868552.5394
  22197442.057    -8541985.770 8  -6640281.65846  22197441.921    22197450.2074
 01  5 23  1 26  0.0000000  0  6 14 21 29 31 25 11
  20800278.193   -23500548.538 9 -17654754.96547  20800278.047    20800284.5964
  21685707.781   -21745688.403 9 -16409451.94547  21685707.507    21685716.2124
  20502624.793   -21282542.992 9 -16556108.97048  20502624.888    20502631.7154
  23800295.254     2109015.680 8   1658387.86845  23800294.868    23800306.7754
  21854499.575   -18274209.946 9 -13957609.62347  21854499.605    21854508.4354
  22183511.873    -8615189.702 8  -6697323.64946  22183511.724    22183519.8414
 01  5 23  1 26 30.0000000  0  6 14 21 29 31 25 11
  20809671.720   -23451185.576 9 -17616290.35047  20809671.574    20809678.0824
  21692679.418   -21709052.753 9 -16380904.73047  21692679.110    21692687.8384
  20508603.112   -21251126.418 9 -16531628.54848  20508603.239    20508610.0944
  23814535.988     2183850.416 8   1716700.48545  23814535.540    23814547.4594
  21840522.380   -18347659.734 9 -14014843.13347  21840522.401    21840531.2694
  22169651.075    -8688028.600 8  -6754081.18946  22169650.920    22169658.9554
 01  5 23  1 27  0.0000000  0  6 14 21 29 31 25 11
  20819123.215   -23401518.112 9 -17577588.46547  20819123.041    20819129.4774
  21699692.431   -21672199.091 8 -16352187.63947  21699692.126    21699700.8814
  20514640.497   -21219400.103 9 -16506906.76148  20514640.630    20514647.4434
  23828813.005     2258876.577 8   1775162.26545  23828812.566    23828824.7694
  21826612.932   -18420753.507 9 -14071799.22447  21826612.970    21826621.8774
  22155860.518    -8760498.039 8  -6810550.82346  22155860.367    22155868.4584
 01  5 23  1 27 30.0000000  0  6 14 21 29 31 25 11
  20828632.301   -23351547.335 9 -17538650.22947  20828632.138    20828638.5384
  21706747.227   -21635125.637 8 -16323299.28547  21706746.952    21706755.7004
  20520736.699   -21187364.755 9 -16481944.16848  20520736.789    20520743.5784
  23843126.083     2334091.590 8   1833771.20245  23843125.667    23843137.9354
  21812771.950   -18493487.885 9 -14128475.27747  21812772.022    21812780.9034
  22142140.985    -8832594.893 8  -6866730.13346  22142140.775    22142148.9394
 01  5 23  1 28  0.0000000  0  6 14 21 29 31 25 11
  20838198.712   -23301275.273 9 -17499477.22447  20838198.595    20838204.9954
  21713844.000   -21597831.959 8 -16294239.32547  21713843.709    21713852.4234
  20526891.267   -21155022.229 9 -16456742.21448  20526891.379    20526898.1634
  23857474.685     2409492.672 8   1892525.11845  23857474.254    23857486.4974
  21798999.886   -18565860.752 9 -14184869.61547  21798999.926    21799008.7454
  22128492.546    -8904316.932 8  -6922617.37046  22128492.463    22128500.7094
 01  5 23  1 28 30.0000000  0  6 14 21 29 31 25 11
  20847822.222   -23250703.582 9 -17460070.73847  20847822.063    20847828.4954
  21720982.767   -21560317.310 8 -16265007.17347  21720982.487    21720991.2894
  20533104.039   -21122373.972 9 -16431302.03148  20533104.128    20533110.9484
  23871858.054     2485076.822 8   1951421.66745  23871857.577    23871869.8384
  21785296.915   -18637869.880 9 -14240980.53447  21785296.953    21785305.7824
  22114915.984    -8975661.449 8  -6978210.43146  22114915.922    22114924.2144
 01  5 23  1 29  0.0000000  0  6 14 21 29 31 25 11
  20857502.227   -23199834.835 9 -17420432.79047  20857502.072    20857508.5704
  21728163.608   -21522581.719 9 -16235602.86547  21728163.375    21728172.1484
  20539374.516   -21089422.050 9 -16405625.22948  20539374.627    20539381.5004
  23886275.494     2560840.305 8   2010457.97945  23886274.997    23886287.3674
  21771663.518   -18709513.214 9 -14296806.42047  21771663.601    21771672.4534
  22101411.795    -9046626.811 8  -7033508.07046  22101411.691    22101419.8944
 01  5 23  1 29 30.0000000  0  6 14 21 29 31 25 11
  20867238.356   -23148670.940 9 -17380564.85447  20867238.212    20867244.7944
  21735386.837   -21484624.290 8 -16206025.70547  21735386.565    21735395.1994
  20545702.541   -21056168.021 9 -16379713.02047  20545702.666    20545709.5024
  23900726.449     2636780.402 8   2069631.90745  23900725.951    23900738.4464
  21758100.314   -18780788.051 9 -14352345.15947  21758100.401    21758109.2024
  22087980.212    -9117210.586 9  -7088508.36547  22087980.089    22087988.1474
 01  5 23  1 30  0.0000000  0  6 14 21 29 31 25 11
  20877030.314   -23097213.746 9 -17340468.37647  20877030.193    20877036.8214
  21742652.324   -21446444.712 8 -16176275.43947  21742652.005    21742660.4874
  20552087.803   -21022613.357 9 -16353566.55047  20552087.926    20552094.7234
  23915210.551     2712894.449 8   2128941.36245  23915210.074    23915222.3824
  21744607.713   -18851692.284 9 -14407595.12247  21744607.732    21744616.4384
  22074621.691    -9187410.318 9  -7143209.41847  22074621.547    22074629.4894
 01  5 23  1 30 30.0000000  0  6 14 21 29 31 25 11
  20886877.832   -23045464.883 9 -17300144.61747  20886877.705    20886884.3114
  21749960.234   -21408041.624 8 -16146351.01047  21749959.946    21749968.4424
  20558530.128   -20988759.170 9 -16327186.68347  20558530.206    20558537.0104
  23929727.200     2789179.971 8   2188384.44545  23929726.854    23929739.2394
  21731186.109   -18922222.587 9 -14462553.70347  21731186.193    21731194.8114
  22061336.862    -9257222.919 9  -7197608.79647  22061336.684    22061344.5934
 01  5 23  1 31  0.0000000  0  6 14 21 29 31 25 11
  20896780.675   -22993425.339 9 -17259594.35947  20896780.560    20896787.1114
  21757310.931   -21369413.724 8 -16116251.39847  21757310.627    21757319.1844
  20565029.224   -20954606.275 9 -16300574.06148  20565029.296    20565036.1224
  23944276.325     2865634.485 8   2247959.20045  23944275.812    23944288.3784
  21717836.150   -18992376.378 9 -14517218.90947  21717836.225    21717844.8454
  22048126.097    -9326645.694 9  -7251704.41947  22048125.930    22048133.8994
 01  5 23  1 31 30.0000000  0  6 14 21 29 31 25 11
  20906738.335   -22941098.003 9 -17218819.85047  20906738.176    20906744.6884
  21764704.262   -21330561.158 8 -16085976.71947  21764703.949    21764712.5784
  20571584.632   -20920157.440 9 -16273730.83048  20571584.718    20571591.5474
  23958856.739     2942253.694 8   2307662.28845  23958856.238    23958868.8354
  21704558.075   -19062152.377 9 -14571589.73247  21704558.167    21704566.7874
  22034989.776    -9395677.092 9  -7305495.06047  22034989.575    22034997.6304
 01  5 23  1 32  0.0000000  0  6 14 21 29 31 25 11
  20916750.479   -22888483.938 9 -17177821.91847  20916750.315    20916756.8554
  21772140.641   -21291482.514 8 -16055525.88547  21772140.381    21772149.0184
  20578196.270   -20885413.258 9 -16246657.46047  20578196.321    20578203.1604
  23973467.837     3019035.652 8   2367492.20345  23973467.404    23973479.9924
  21691352.703   -19131546.872 9 -14625663.27547  21691352.769    21691361.3884
  22021928.578    -9464313.606 8  -7358978.00947  22021928.426    22021936.4844
 01  5 23  1 32 30.0000000  0  6 14 21 29 31 25 11
  20926816.707   -22835585.850 9 -17136602.65947  20926816.536    20926823.1034
  21779620.110   -21252177.777 8 -16024898.87147  21779619.803    21779628.4734
  20584863.593   -20850376.095 9 -16219355.79848  20584863.685    20584870.4804
  23988109.245     3095976.571 8   2427445.97445  23988108.887    23988121.4854
  21678220.313   -19200558.229 9 -14679438.26447  21678220.280    21678228.9154
  22008942.847    -9532553.779 8  -7412152.11647  22008942.656    22008950.7314
 01  5 23  1 33  0.0000000  0  6 14 21 29 31 25 11
  20936936.724   -22782404.718 9 -17095162.85247  20936936.560    20936943.1364
  21787142.707   -21212645.894 8 -15994094.85947  21787142.425    21787151.2174
  20591586.714   -20815046.490 9 -16191826.26248  20591586.791    20591593.5214
  24002780.465     3173074.291 8   2487521.90545  24002780.361    24002792.8994
  21665161.169   -19269183.731 9 -14732912.60447  21665161.201    21665169.8354
  21996033.015    -9600394.486 8  -7465014.95747  21996032.873    21996040.9564
 01  5 23  1 33 30.0000000  0  6 14 21 29 31 25 11
  20947109.963   -22728944.022 9 -17053505.21047  20947109.807    20947116.3784
  21794708.509   -21172887.527 8 -15963114.36347  21794708.227    21794717.1204
  20598364.643   -20779427.999 9 -16164071.61447  20598364.719    20598371.5414
  24017480.777     3250324.334 7   2547716.55045  24017480.684    24017493.3074
  21652175.491   -19337422.832 9 -14786085.83947  21652175.601    21652184.2834
  21983199.473    -9667835.057 8  -7517566.00447  21983199.358    21983207.4494
 01  5 23  1 34  0.0000000  0  6 14 21 29 31 25 11
  20957336.103   -22675205.677 9 -17011631.21547  20957335.918    20957342.4754
  21802317.409   -21132902.635 8 -15931957.35647  21802317.120    21802326.0784
  20605197.199   -20743522.133 9 -16136093.03847  20605197.299    20605204.2494
  24032209.431     3327723.734 7   2608027.60445  24032209.467    24032222.1674
  21639264.006   -19405273.122 9 -14838956.11047  21639264.089    21639272.7684
  21970442.529    -9734873.096 8  -7569803.39047  21970442.370    21970450.5254
 01  5 23  1 34 30.0000000  0  6 14 21 29 31 25 11
  20967614.681   -22621191.348 9 -16969542.16747  20967614.493    20967621.1344
  21809969.660   -21092689.861 8 -15900622.78847  21809969.372    21809978.3454
  20612084.210   -20707330.038 9 -16107891.43147  20612084.341    20612091.3424
  24046966.393     3405269.908 7   2668452.96145  24046966.151    24046978.9284
  21626426.985   -19472731.916 9 -14891521.31847  21626427.076    21626435.7334
  21957762.635    -9801505.859 8  -7621724.98147  21957762.468    21957770.6494
 01  5 23  1 35  0.0000000  0  6 14 21 29 31 25 11
  20977945.431   -22566902.730 9 -16927239.37847  20977945.261    20977951.9774
  21817665.523   -21052247.953 8 -15869109.66047  21817665.255    21817674.2264
  20619025.643   -20670852.977 9 -16079467.77347  20619025.775    20619032.7184
  24061750.456     3482960.175 7   2728990.62645  24061750.166    24061763.0614
  21613664.885   -19539796.801 9 -14943779.59147  21613664.991    21613673.6134
  21945160.339    -9867730.932 8  -7673328.90147  21945160.202    21945168.3684
 01  5 23  1 35 30.0000000  0  6 14 21 29 31 25 11
  20988328.071   -22512341.595 9 -16884724.24547  20988327.913    20988334.6564
  21825405.233   -21011576.294 8 -15837417.51847  21825404.927    21825413.8744
  20626020.930   -20634092.786 9 -16050823.49047  20626021.033    20626027.9624
  24076561.208     3560791.593 7   2789638.27745  24076560.953    24076573.8194
  21600978.199   -19606465.214 9 -14995728.91947  21600978.314    21600986.8894
  21932636.140    -9933545.778 8  -7724613.16647  21932635.973    21932644.1634
 01  5 23  1 36  0.0000000  0  6 14 21 29 31 25 11
  20998762.135   -22457510.635 9 -16841998.86447  20998761.960    20998768.6844
  21833188.554   -20970675.340 8 -15805546.70147  21833188.248    21833197.0894
  20633069.601   -20597051.668 9 -16021960.30947  20633069.713    20633076.7104
  24091398.302     3638760.194 7   2850392.81245  24091398.091    24091411.0644
  21588367.258   -19672735.946 9 -15047368.37047  21588367.335    21588375.9274
  21920190.248    -9998948.968 9  -7775576.65947  21920190.098    21920198.3044
 01  5 23  1 36 30.0000000  0  6 14 21 29 31 25 11
  21009247.084   -22402411.745 9 -16799064.70547  21009246.901    21009253.6984
  21841015.632   -20929544.576 8 -15773496.80847  21841015.310    21841024.0974
  20640171.472   -20559731.146 9 -15992879.40247  20640171.587    20640178.6254
  24106260.855     3716863.256 7   2911252.11845  24106260.683    24106273.9224
  21575832.246   -19738607.049 9 -15098696.42147  21575832.362    21575840.9264
  21907823.233   -10063938.191 9  -7826217.58947  21907823.079    21907831.2504
 01  5 23  1 37  0.0000000  0  6 14 21 29 31 25 11
  21019782.643   -22347046.734 9 -16755923.17747  21019782.517    21019789.3794
  21848886.535   -20888183.146 8 -15741267.17647  21848886.201    21848895.0584
  20647326.231   -20522132.815 9 -15963582.02947  20647326.343    20647333.3944
  24121148.517     3795097.677 7   2972213.79745  24121148.355    24121161.5094
  21563373.879   -19804075.920 9 -15149711.04747  21563373.997    21563382.4574
  21895535.435   -10128510.934 9  -7876533.98847  21895535.306    21895543.4314
 01  5 23  1 37 30.0000000  0  6 14 21 29 31 25 11
  21030368.702   -22291417.210 9 -16712575.53347  21030368.559    21030375.3874
  21856801.485   -20846590.006 8 -15708857.00247  21856801.162    21856810.0454
  20654533.607   -20484257.990 9 -15934069.20847  20654533.714    20654540.7734
  24136060.756     3873460.617 7   3033275.61445  24136060.432    24136073.5054
  21550992.518   -19869140.240 9 -15200410.43947  21550992.638    21551001.0294
  21883327.434   -10192664.793 9  -7926523.98647  21883327.278    21883335.3004
 01  5 23  1 38  0.0000000  0  7 20 14 21 29 31 25 11
  24710060.000    -1648690.048 7  -1267216.17744  24710058.702    24710071.4794
  21041004.530   -22235526.009 9 -16669023.99147  21041004.336    21041011.1534
  21864760.303   -20804766.072 8 -15676266.97747  21864759.992    21864768.8694
  20661793.088   -20446109.161 9 -15904342.87147  20661793.188    20661800.2114
  24150996.881     3951948.246 8   3094434.59345  24150996.422    24151009.1814
  21538688.383   -19933798.972 9 -15250793.78347  21538688.447    21538696.8494
  21871199.332   -10256398.510 9  -7976186.60547  21871199.164    21871207.0714
 01  5 23  1 38 30.0000000  0  7 20 14 21 29 31 25 11
  24694021.157    -1732973.704 7  -1332891.60444  24694020.645    24694032.4954
  21051688.391   -22179381.843 9 -16625275.33747  21051688.210    21051695.0214
  21872761.854   -20762717.427 8 -15643501.85647  21872761.602    21872770.4454
  20669103.074   -20407694.904 9 -15874409.70247  20669103.158    20669110.1854
  24165954.713     4030550.954 7   3155683.25045  24165954.187    24165966.8604
  21526460.535   -19998056.080 9 -15300864.18947  21526460.632    21526469.0854
  21859150.295   -10319716.558 9  -8025525.31847  21859150.075    21859158.0174
 01  5 23  1 39  0.0000000  0  7 20 14 21 29 31 25 11
  24677978.154    -1817280.982 7  -1398585.43544  24677977.411    24677989.0884
  21062422.302   -22122974.422 9 -16581321.54247  21062422.149    21062428.9494
  21880808.711   -20720430.977 8 -15610551.43247  21880808.472    21880817.3744
  20676465.635   -20369004.523 9 -15844261.38447  20676465.741    20676472.7564
  24180936.137     4109277.904 8   3217028.71545  24180935.717    24180948.4714
  21514311.813   -20061897.775 9 -15350610.89047  21514311.942    21514320.4114
  21847183.077   -10382604.462 9  -8074528.85647  21847182.880    21847190.8014
 01  5 23  1 39 30.0000000  0  7 20 14 21 29 31 25 11
  24661930.436    -1901613.376 7  -1464298.81244  24661929.741    24661941.3014
  21073205.729   -22066307.613 9 -16537165.62747  21073205.593    21073212.2794
  21888900.444   -20677908.554 8 -15577417.13546  21888900.210    21888909.1794
  20683880.054   -20330041.654 9 -15813900.73047  20683880.158    20683887.1984
  24195940.172     4188123.942 8   3278466.99045  24195939.779    24195952.7124
  21502242.267   -20125324.131 9 -15400033.95247  21502242.298    21502250.6774
  21835297.771   -10445062.223 9  -8123197.21647  21835297.578    21835305.5144
 01  5 23  1 40  0.0000000  0  7 20 14 21 29 31 25 11
  24645877.279    -1985971.756 7  -1530032.50544  24645876.476    24645888.3454
  21084037.900   -22009384.670 9 -16492810.13247  21084037.734    21084044.3264
  21897037.148   -20635150.332 8 -15544099.10446  21897036.917    21897045.7934
  20691345.740   -20290809.241 9 -15783330.03947  20691345.819    20691352.9604
  24210966.221     4267084.876 8   3339994.77145  24210965.767    24210978.8304
  21490251.682   -20188334.466 9 -15449132.84347  21490251.748    21490260.1024
  21823494.454   -10507088.726 9  -8171529.53647  21823494.250    21823502.2464
 01  5 23  1 40 30.0000000  0  7 20 14 21 29 31 25 11
  24629818.987    -2070356.571 7  -1595786.76945  24629818.311    24629830.3004
  21094918.182   -21952208.314 9 -16448257.16947  21094918.002    21094924.6504
  21905218.613   -20592157.411 8 -15510598.19246  21905218.263    21905227.0774
  20698862.227   -20251309.626 9 -15752551.13547  20698862.336    20698869.4634
  24226013.320     4346156.939 8   3401609.16345  24226012.820    24226026.0074
  21478340.669   -20250927.134 9 -15497906.27747  21478340.724    21478349.0484
  21811773.443   -10568682.719 8  -8219524.83847  21811773.254    21811781.2554
 01  5 23  1 41  0.0000000  0  7 20 14 21 29 31 25 11
  24613756.504    -2154767.215 7  -1661561.13545  24613755.751    24613767.5154
  21105846.212   -21894780.377 9 -16403508.16347  21105846.127    21105852.9204
  21913444.764   -20548928.288 8 -15476913.21646  21913444.448    21913453.3924
  20706429.297   -20211544.319 9 -15721565.20347  20706429.437    20706436.5494
  24241080.849     4425337.240 8   3463307.88045  24241080.518    24241093.8204
  21466509.620   -20313099.582 9 -15546352.27047  21466509.635    21466517.9694
  21800135.235   -10629841.580 9  -8267181.07047  21800135.110    21800143.0694
 01  5 23  1 41 30.0000000  0  7 20 14 21 29 31 25 11
  24597688.666    -2239203.456 7  -1727355.44845  24597687.976    24597699.9374
  21116821.963   -21837102.777 9 -16358564.61347  21116821.848    21116828.6874
  21921715.844   -20505463.328 8 -15443044.48246  21921715.612    21921724.6174
  20714046.679   -20171515.229 9 -15690373.72047  20714046.774    20714053.8404
  24256168.332     4504622.338 8   3525088.25145  24256168.044    24256181.3714
  21454758.706   -20374850.341 9 -15594469.67347  21454758.740    21454767.1294
  21788580.281   -10690563.655 9  -8314496.95747  21788580.130    21788587.9824
 01  5 23  1 42  0.0000000  0  7 20 14 21 29 31 25 11
  24581615.983    -2323664.022 7  -1793168.77945  24581615.432    24581627.7424
  21127845.019   -21779176.828 9 -16313427.54547  21127844.897    21127851.6834
  21930032.209   -20461760.917 8 -15408990.71546  21930031.905    21930041.0524
  20721714.033   -20131223.161 9 -15658977.32347  20721714.116    20721721.1744
  24271275.672     4584010.425 8   3586948.88845  24271275.326    24271288.6964
  21443088.586   -20436176.858 9 -15642256.49547  21443088.629    21443097.0134
  21777108.889   -10750846.225 9  -8361470.36147  21777108.731    21777116.5984
 01  5 23  1 42 30.0000000  0  7 20 14 21 29 31 25 11
  24565538.746    -2408149.788 7  -1859001.67745  24565538.432    24565550.4814
  21138914.711   -21721005.749 9 -16268099.46647  21138914.524    21138921.3584
  21938393.538   -20417821.567 8 -15374752.32046  21938393.266    21938402.4484
  20729430.878   -20090671.052 9 -15627378.29447  20729430.953    20729438.0134
  24286401.597     4663497.016 8   3648886.28245  24286401.214    24286414.6374
  21431499.290   -20497078.375 9 -15689712.15447  21431499.352    21431507.7744
  21765721.335   -10810688.204 9  -8408100.45047  21765721.165    21765728.9894
 01  5 23  1 43  0.0000000  0  7 20 14 21 29 31 25 11
  24549457.001    -2492660.959 7  -1924854.38345  24549456.465    24549468.1594
  21150030.469   -21662591.877 9 -16222582.19247  21150030.319    21150037.1844
  21946799.987   -20373645.159 8 -15340329.20946  21946799.707    21946808.9614
  20737196.768   -20049861.172 9 -15595578.40647  20737196.857    20737203.9654
  24301545.605     4743078.441 8   3710897.55845  24301545.279    24301558.6784
  21419991.143   -20557553.334 9 -15736835.43847  21419991.229    21419999.6594
  21754417.885   -10870087.957 9  -8454385.95347  21754417.700    21754425.5054
 01  5 23  1 43 30.0000000  0  7 20 14 21 29 31 25 11
  24533370.242    -2577196.600 7  -1990726.12345  24533369.683    24533381.2574
  21161192.138   -21603936.902 9 -16176877.05647  21161191.992    21161198.8894
  21955251.620   -20329231.061 8 -15305720.87646  21955251.446    21955260.7244
  20745011.443   -20008794.683 9 -15563578.56347  20745011.527    20745018.7064
  24316707.441     4822752.066 8   3772980.69945  24316706.993    24316720.1924
  21408564.781   -20617599.317 9 -15783624.45247  21408564.889    21408573.1994
  21743198.951   -10929043.197 9  -8500325.07147  21743198.847    21743206.6964
 01  5 23  1 44  0.0000000  0  7 20 14 21 29 31 25 11
  24517278.987    -2661756.055 7  -2056616.51444  24517278.900    24517290.0824
  21172399.507   -21545042.255 9 -16130985.15447  21172399.313    21172406.1854
  21963748.808   -20284578.722 8 -15270926.91946  21963748.573    21963757.8364
  20752874.708   -19967472.940 9 -15531379.81547  20752874.824    20752881.9394
  24331885.809     4902515.344 8   3835133.68345  24331885.496    24331898.8174
  21397220.497   -20677213.959 9 -15830077.35547  21397220.583    21397228.8884
  21732065.251   -10987551.284 9  -8545915.77847  21732065.094    21732072.9534
 01  5 23  1 44 30.0000000  0  7 20 14 21 29 31 25 11
  24501183.601    -2746338.716 7  -2122524.90244  24501183.124    24501194.4134
  21183652.020   -21485909.843 9 -16084907.98147  21183651.833    21183658.6964
  21972291.280   -20239687.422 8 -15235946.73946  21972291.049    21972300.5974
  20760786.353   -19925897.279 9 -15498983.21747  20760786.437    20760793.5044
  24347080.639     4982365.423 8   3897354.31045  24347080.417    24347094.0014
  21385958.581   -20736395.278 9 -15876192.61447  21385958.699    21385967.0144
  21721017.024   -11045610.011 9  -8591156.32447  21721016.873    21721024.7544
 01  5 23  1 45  0.0000000  0  7 20 14 21 29 31 25 11
  24485083.505    -2830944.188 7  -2188451.12244  24485082.751    24485094.5194
  21194949.399   -21426541.541 9 -16038646.99147  21194949.222    21194956.1764
  21980879.371   -20194556.799 8 -15200780.08246  21980879.184    21980888.7444
  20768745.890   -19884069.609 9 -15466390.24547  20768745.976    20768753.0464
  24362291.744     5062299.029 8   3959640.00245  24362291.406    24362305.2244
  21374779.370   -20795141.978 9 -15921969.20247  21374779.488    21374787.8134
  21710054.697   -11103217.576 9  -8636045.31147  21710054.492    21710062.3444
 01  5 23  1 45 30.0000000  0  7 20 14 21 29 31 25 11
  24468979.020    -2915572.017 7  -2254394.76244  24468978.100    24468989.9714
  21206291.393   -21366938.947 9 -15992203.44547  21206291.250    21206298.2024
  21989513.355   -20149186.310 8 -15165426.53046  21989513.096    21989522.4234
  20776752.969   -19841991.594 9 -15433602.20247  20776753.093    20776760.1864
  24377518.131     5142313.304 8   4021988.56845  24377517.745    24377531.7184
  21363683.451   -20853451.793 9 -15967405.35947  21363683.500    21363691.7844
  21699178.631   -11160371.675 9  -8680580.96247  21699178.461    21699186.2424
 01  5 23  1 46  0.0000000  0  7 20 14 21 29 31 25 11
  24452870.200    -3000221.941 7  -2320355.65844  24452869.681    24452881.5054
  21217677.577   -21307104.797 9 -15945579.46047  21217677.377    21217684.2794
  21998192.848   -20103575.913 8 -15129886.02346  21998192.518    21998201.8484
  20784807.447   -19799665.240 9 -15400620.64047  20784807.527    20784814.6154
  24392759.111     5222404.857 8   4084397.34545  24392758.845    24392772.9014
  21352670.829   -20911323.262 9 -16012499.95347  21352670.864    21352679.1244
  21688389.134   -11217070.762 9  -8724762.04647  21688388.971    21688396.7344
 01  5 23  1 46 30.0000000  0  7 20 14 21 29 31 25 11
  24436757.845    -3084893.270 7  -2386333.16944  24436757.504    24436768.8934
  21229107.506   -21247040.476 9 -15898776.12447  21229107.285    21229114.1254
  22006918.200   -20057724.141 8 -15094157.43246  22006917.888    22006927.1954
  20792908.908   -19757091.627 9 -15367446.41947  20792909.018    20792916.1554
  24408014.333     5302571.066 7   4146864.28745  24408014.023    24408028.3174
  21341742.020   -20968753.900 9 -16057251.04347  21341742.129    21341750.2984
  21677686.648   -11273312.279 9  -8768586.57747  21677686.500    21677694.3374
 01  5 23  1 47  0.0000000  0  7 20 14 21 29 31 25 11
  24420641.500    -3169585.833 7  -2452327.27844  24420640.973    24420652.3924
  21240580.735   -21186748.207 9 -15851795.16247  21240580.532    21240587.3854
  22015689.398   -20011631.407 8 -15058241.07746  22015689.105    22015698.4644
  20801057.149   -19714272.821 9 -15334081.13547  20801057.258    20801064.4084
  24423283.215     5382808.706 8   4209386.88545  24423282.952    24423297.1174
  21330897.574   -21025742.389 9 -16101657.59547  21330897.577    21330905.6294
  21667071.582   -11329094.924 9  -8812053.54647  21667071.458    21667079.2224
 01  5 23  1 47 30.0000000  0  7 20 14 21 29 31 25 11
  24404521.032    -3254298.748 7  -2518337.22944  24404520.353    24404532.2444
  21252097.083   -21126229.435 9 -15804637.70247  21252096.869    21252103.7794
  22024506.621   -19965296.886 8 -15022136.31846  22024506.341    22024515.6414
  20809251.687   -19671210.034 9 -15300525.74247  20809251.815    20809259.0524
  24438565.188     5463114.885 7   4271962.90145  24438564.993    24438579.0454
  21320137.374   -21082286.729 9 -16145718.06547  21320137.416    21320145.5164
  21656544.427   -11384416.112 9  -8855160.94247  21656544.216    21656551.9224
 01  5 23  1 48  0.0000000  0  7 20 14 21 29 31 25 11
  24388396.823    -3339031.734 7  -2584362.82544  24388396.105    24388407.9814
  21263656.036   -21065486.318 9 -15757305.43747  21263655.877    21263662.9074
  22033370.050   -19918720.205 8 -14985842.87646  22033369.726    22033378.9544
  20817492.335   -19627905.034 9 -15266781.61147  20817492.500    20817499.7104
  24453859.574     5543486.611 8   4334589.97845  24453859.295    24453873.4964
  21309462.069   -21138385.250 9 -16189431.15047  21309462.136    21309470.3144
  21646105.387   -11439273.967 9  -8897907.30247  21646105.163    21646112.7914
 01  5 23  1 48 30.0000000  0  7 20 14 21 29 31 25 11
  24372268.780    -3423784.729 7  -2650404.01344  24372268.340    24372279.2954
  21275257.366   -21004521.258 9 -15709800.21747  21275257.206    21275264.1714
  22042279.432   -19871901.473 8 -14949360.79846  22042279.058    22042288.2924
  20825778.698   -19584360.200 9 -15232850.59147  20825778.823    20825785.9504
  24469166.206     5623920.115 7   4397265.20145  24469165.748    24469179.7054
  21298871.940   -21194036.611 9 -16232795.79147  21298871.988    21298880.2064
  21635754.618   -11493667.271 9  -8940291.66447  21635754.429    21635762.0214
 01  5 23  1 49  0.0000000  0  7 20 14 21 29 31 25 11
  24356137.199    -3508555.930 7  -2716459.33444  24356136.708    24356147.5434
  21286900.853   -20943334.596 9 -15662122.33247  21286900.675    21286907.5584
  22051235.071   -19824838.847 8 -14912688.69546  22051234.768    22051243.9884
  20834110.753   -19540575.492 9 -15198732.66147  20834110.885    20834117.9194
  24484483.872     5704414.197 7   4459987.59945  24484483.345    24484497.4614
  21288367.585   -21249237.512 9 -16275809.42447  21288367.600    21288375.8084
  21625492.928   -11547592.348 9  -8982311.18947  21625492.773    21625500.4054
 01  5 23  1 49 30.0000000  0  7 20 14 21 29 31 25 11
  24340002.417    -3593345.197 7  -2782528.76544  24340001.797    24340012.4674
  21298586.073   -20881928.661 9 -15614273.57147  21298585.886    21298592.7424
  22060237.216   -19777531.951 8 -14875826.23246  22060236.936    22060246.1484
  20842487.968   -19496553.014 9 -15164429.45447  20842488.086    20842495.1484
  24499812.122     5784965.440 7   4522754.55945  24499811.702    24499826.1564
  21277949.182   -21303986.199 9 -16318470.68847  21277949.212    21277957.4484
  21615320.671   -11601047.718 9  -9023964.69347  21615320.535    21615328.2064
 01  5 23  1 50  0.0000000  0  7 20 14 21 29 31 25 11
  24323864.122    -3678152.442 7  -2848612.24744  24323862.974    24323874.0804
  21310312.523   -20820305.762 9 -15566255.74947  21310312.318    21310319.2894
  22069285.907   -19729980.883 8 -14838773.51446  22069285.621    22069294.8364
  20850909.956   -19452294.878 9 -15129942.62547  20850910.056    20850917.2494
  24515151.059     5865570.418 7   4585563.36645  24515150.544    24515165.0994
  21267617.009   -21358281.953 9 -16360779.01047  21267617.055    21267625.2674
  21605238.203   -11654032.016 9  -9065251.14047  21605237.985    21605245.6104
 01  5 23  1 50 30.0000000  0  7 20 14 21 29 31 25 11
  24307722.303    -3762977.024 7  -2914709.18744  24307721.264    24307732.5664
  21322079.842   -20758467.734 9 -15518070.30747  21322079.681    21322086.7814
  22078381.132   -19682186.023 8 -14801530.82946  22078380.775    22078390.0974
  20859376.504   -19407802.708 9 -15095273.42647  20859376.634    20859383.8394
  24530499.773     5946226.158 7   4648411.74145  24530499.068    24530513.6014
  21257371.407   -21412123.036 9 -16402733.04347  21257371.438    21257379.5364
  21595245.591   -11706543.258 9  -9106168.98147  21595245.453    21595252.9924
 01  5 23  1 51  0.0000000  0  7 20 14 21 29 31 25 11
  24291577.408    -3847817.966 7  -2980818.90644  24291576.582    24291587.7964
  21333887.929   -20696415.894 9 -15469718.25747  21333887.777    21333894.8354
  22087522.793   -19634145.683 8 -14764096.84546  22087522.467    22087531.9784
  20867887.524   -19363077.498 9 -15060422.63747  20867887.612    20867894.8484
  24545857.459     6026930.194 7   4711297.74845  24545856.716    24545871.2334
  21247212.762   -21465507.076 9 -16444330.93847  21247212.761    21247220.8134
  21585343.570   -11758578.886 9  -9146716.20347  21585343.398    21585350.9584
 01  5 23  1 51 30.0000000  0  7 20 14 21 29 31 25 11
  24275429.758    -3932674.567 7  -3046940.81444  24275428.879    24275440.3444
  21345736.433   -20634151.920 9 -15421200.90847  21345736.264    21345743.2584
  22096711.327   -19585859.284 8 -14726471.14846  22096711.075    22096720.7044
  20876442.525   -19318120.780 9 -15025391.45847  20876442.600    20876449.7864
  24561223.553     6107679.542 7   4774219.01745  24561222.978    24561237.5304
  21237141.351   -21518432.111 9 -16485571.17047  21237141.373    21237149.4294
  21575532.320   -11810136.884 9  -9186891.24147  21575532.130    21575539.8284
 01  5 23  1 52  0.0000000  0  7 20 14 21 29 31 25 11
  24259279.249    -4017546.455 7  -3113074.60644  24259278.252    24259289.5264
  21357624.894   -20571678.023 9 -15372519.97847  21357624.724    21357631.6004
  22105946.802   -19537326.817 8 -14688653.70146  22105946.591    22105956.1624
  20885041.231   -19272934.525 9 -14990181.42047  20885041.307    20885048.4694
  24576597.947     6188470.958 7   4837173.11545  24576597.306    24576611.9034
  21227157.546   -21570896.749 9 -16526452.66347  21227157.615    21227165.6424
  21565812.203   -11861215.893 9  -9226693.04947  21565812.079    21565819.8304
 01  5 23  1 52 30.0000000  0  7 20 14 21 29 31 25 11
  24243125.108    -4102434.277 7  -3179220.83944  24243124.245    24243135.9584
  21369552.773   -20508996.995 9 -15323677.64347  21369552.577    21369559.4824
  22115229.201   -19488548.571 8 -14650644.73246  22115228.916    22115238.3494
  20893683.151   -19227521.170 9 -14954794.41247  20893683.204    20893690.3174
  24591979.488     6269300.737 7   4900157.08045  24591978.687    24591993.6564
  21217261.565   -21622900.387 9 -16566974.92347  21217261.645    21217269.5664
  21556183.617   -11911814.724 9  -9266120.70347  21556183.474    21556191.1444
 01  5 23  1 53  0.0000000  0  7 20 14 21 29 31 25 11
  24226968.617    -4187335.810 7  -3245377.72644  24226968.079    24226979.1214
  21381519.839   -20446109.340 9 -15274674.30647  21381519.672    21381526.6794
  22124558.525   -19439523.118 8 -14612443.14046  22124558.207    22124567.6484
  20902368.168   -19181880.953 9 -14919230.63947  20902368.282    20902375.3664
  24607368.099     6350167.270 7   4963169.69545  24607367.324    24607382.2244
  21207453.866   -21674440.174 9 -16607135.74447  21207453.905    21207461.8274
  21546646.913   -11961930.423 9  -9305171.89447  21546646.777    21546654.3684
 01  5 23  1 53 30.0000000  0  7 20 14 21 29 31 25 11
  24210809.899    -4272251.477 7  -3311545.62344  24210808.996    24210819.9664
  21393525.775   -20383017.644 9 -15225511.97747  21393525.620    21393532.6054
  22133934.729   -19390250.699 8 -14574049.10546  22133934.466    22133943.8464
  20911095.966   -19136016.111 9 -14883491.83647  20911096.069    20911103.2424
  24622762.940     6431066.764 7   5026207.98245  24622762.296    24622777.0964
  21197734.488   -21725515.115 9 -16646934.35247  21197734.564    21197742.5354
  21537202.336   -12011561.673 9  -9343845.58347  21537202.205    21537209.7424
 01  5 23  1 54  0.0000000  0  7 20 14 21 29 31 25 11
  24194648.411    -4357181.003 7  -3377724.33444  24194647.583    24194658.2224
  21405570.209   -20319723.885 9 -15176192.19347  21405570.002    21405576.9824
  22143358.121   -19340730.918 8 -14535462.32346  22143357.862    22143367.1694
  20919866.201   -19089928.694 9 -14847579.59447  20919866.278    20919873.4234
  24638163.563     6511996.158 7   5089269.54945  24638163.034    24638177.7044
  21188103.822   -21776124.023 9 -16686369.81647  21188103.921    21188111.9184
  21527850.268   -12060706.895 9  -9382140.55047  21527850.149    21527857.6934
 01  5 23  1 54 30.0000000  0  7 20 14 21 29 31 25 11
  24178484.295    -4442122.755 7  -3443912.56944  24178483.725    24178494.0174
  21417652.803   -20256229.021 9 -15126715.71447  21417652.687    21417659.6494
  22152828.826   -19290963.063 8 -14496682.23446  22152828.496    22152837.7004
  20928678.643   -19043619.361 9 -14811494.42547  20928678.677    20928685.8114
  24653569.207     6592953.359 7   5152352.80945  24653568.780    24653583.4614
  21178562.410   -21826264.368 9 -16725440.16547  21178562.536    21178570.5024
  21518591.204   -12109363.479 9  -9420054.75747  21518591.080    21518598.6354
 01  5 23  1 55  0.0000000  0  7 20 14 21 29 31 25 11
  24162317.888    -4527075.992 7  -3510109.76544  24162317.727    24162327.9764
  21429773.552   -20192534.778 9 -15077083.87447  21429773.396    21429780.3764
  22162346.900   -19240946.131 8 -14457708.06346  22162346.477    22162355.6394
  20937532.958   -18997089.655 9 -14775237.53547  20937532.988    20937540.1634
  24668979.627     6673935.336 7   5215455.37845  24668979.231    24668994.0984
  21169110.566   -21875934.533 9 -16764144.13547  21169110.630    21169118.5424
  21509425.520   -12157529.531 9  -9457586.73847  21509425.414    21509432.8974
 01  5 23  1 55 30.0000000  0  7 20 14 21 29 31 25 11
  24146149.563    -4612039.745 7  -3576315.15244  24146149.227    24146159.8404
  21441931.898   -20128642.657 9 -15027297.84547  21441931.719    21441938.7114
  22171912.222   -19190679.848 8 -14418539.57946  22171911.874    22171921.1114
  20946428.894   -18950340.734 9 -14738809.83647  20946428.949    20946436.1724
  24684394.448     6754939.611 8   5278575.30245  24684394.079    24684409.1424
  21159748.490   -21925132.479 9 -16802480.15247  21159748.551    21159756.4314
  21500353.560   -12205203.084 9  -9494734.95047  21500353.385    21500360.9004
 01  5 23  1 56  0.0000000  0  7 20 14 21 29 31 25 11
  24129979.434    -4697015.031 7  -3642529.50744  24129979.263    24129989.9764
  21454127.179   -20064555.890 9 -14977360.14047  21454126.987    21454134.0284
  22181524.982   -19140165.001 8 -14379177.42346  22181524.630    22181533.8184
  20955366.072   -18903375.626 9 -14702213.68047  20955366.142    20955373.3404
  24699812.812     6835961.810 8   5341709.19545  24699812.525    24699827.3664
  21150476.301   -21973858.102 9 -16840448.12247  21150476.350    21150484.1834
  21491375.329   -12252383.830 9  -9531499.15047  21491375.141    21491382.7374
 01  5 23  1 56 30.0000000  0  7 20 14 21 29 31 25 11
  24113807.230    -4782000.781 7  -3708752.05244  24113806.881    24113818.1164
  21466359.228   -20000275.762 9 -14927271.76647  21466359.059    21466366.1444
  22191185.060   -19089400.936 8 -14339621.06946  22191184.713    22191193.9314
  20964344.157   -18856195.545 9 -14665450.01147  20964344.226    20964351.4594
  24715234.184     6916999.571 7   5404855.21445  24715233.690    24715248.4904
  21141294.349   -22022109.282 9 -16878046.39547  21141294.407    21141302.2114
  21482491.344   -12299069.294 9  -9567877.41847  21482491.181    21482498.7804
 01  5 23  1 57  0.0000000  0  7 20 14 21 29 31 25 11
  24097633.136    -4866994.964 7  -3774981.23144  24097632.957    24097644.3064
  21478627.972   -19935803.042 9 -14877033.32847  21478627.825    21478634.9814
  22200892.939   -19038386.019 8 -14299869.24946  22200892.602    22200901.8784
  20973363.159   -18808800.806 9 -14628519.08047  20973363.233    20973370.3884
  24730657.863     6998051.270 7   5468012.07745  24730657.282    24730672.3924
  21132203.178   -22069883.564 9 -16915273.06147  21132203.210    21132211.0094
  21473702.169   -12345256.591 9  -9603867.50047  21473702.035    21473709.6464
 01  5 23  1 57 30.0000000  0  7 20 14 21 29 31 25 11
  24081457.722    -4951997.800 7  -3841217.12144  24081457.464    24081468.3694
  21490933.047   -19871139.904 9 -14826646.51447  21490932.887    21490940.0084
  22210648.410   -18987120.490 8 -14259922.14046  22210648.108    22210657.4414
  20982422.568   -18761193.630 9 -14591422.61647  20982422.601    20982429.7494
  24746083.633     7079113.243 7   5531176.99645  24746083.152    24746097.9814
  21123202.855   -22117180.159 9 -16952127.50647  21123202.901    21123210.7554
  21465008.045   -12390944.580 9  -9639468.51547  21465007.894    21465015.5244
 01  5 23  1 58  0.0000000  0  7 20 14 21 29 31 25 11
  24065280.562    -5037009.226 7  -3907459.69544  24065279.875    24065291.0634
  21503273.910   -19806288.971 9 -14776113.35947  21503273.683    21503280.6824
  22220451.495   -18935605.020 8 -14219780.27746  22220451.172    22220460.6644
  20991521.824   -18713376.312 9 -14554162.39947  20991521.882    20991529.0864
  24761510.579     7160181.711 7   5594346.97945  24761510.203    24761525.1964
  21114293.559   -22163998.438 9 -16988609.23147  21114293.639    21114301.5414
  21456409.078   -12436132.465 9  -9674679.83847  21456408.907    21456416.5144
 01  5 23  1 58 30.0000000  0  7 20 14 21 29 31 25 11
  24049102.045    -5122027.473 7  -3973707.59244  24049101.335    24049112.4864
  21515650.209   -19741250.725 9 -14725434.24947  21515650.016    21515656.9754
  22230302.429   -18883837.600 8 -14179442.08146  22230302.152    22230311.8344
  21000661.060   -18665349.132 9 -14516738.65247  21000661.115    21000668.4324
  24776938.612     7241255.213 7   5657520.85345  24776938.212    24776953.6034
  21105475.956   -22210335.488 9 -17024715.97547  21105475.973    21105483.8344
  21447905.788   -12480817.295 9  -9709499.17647  21447905.664    21447913.2484
 01  5 23  1 59  0.0000000  0  7 20 14 21 29 31 25 11
  24032922.050    -5207052.065 7  -4039960.42244  24032921.325    24032932.5104
  21528061.816   -19676027.181 9 -14674610.75447  21528061.623    21528068.5724
  22240201.598   -18831818.380 8 -14138907.70546  22240201.279    22240210.8304
  21009839.911   -18617113.892 9 -14479152.78947  21009840.020    21009847.3274
  24792366.781     7322330.302 7   5720695.97445  24792366.412    24792381.9774
  21096750.070   -22256189.858 9 -17060446.60947  21096750.104    21096757.9314
  21439498.637   -12524997.599 9  -9743925.37147  21439498.454    21439506.0504
 01  5 23  1 59 30.0000000  0  7 20 14 21 29 31 25 11
  24016741.200    -5292082.503 7  -4106217.81744  24016740.696    24016752.1764
  21540508.299   -19610620.246 9 -14623644.35647  21540508.166    21540515.1884
  22250148.647   -18779546.984 8 -14098176.80446  22250148.193    22250157.7574
  21019058.206   -18568672.310 9 -14441406.13347  21019058.269    21019065.4954
  24807794.765     7403404.156 7   5783870.14445  24807794.441    24807809.8664
  21088116.221   -22301560.723 9 -17095800.48247  21088116.251    21088124.0714
  21431187.597   -12568671.868 9  -9777957.25147  21431187.438    21431195.1434
 01  5 23  2  0  0.0000000  0  7 20 14 21 29 31 25 11
  24000559.363    -5377118.507 7  -4172479.55344  24000558.780    24000569.9254
  21552989.461   -19545032.028 9 -14572536.70747  21552989.296    21552996.3814
  22260143.450   -18727022.902 8 -14057249.01646  22260143.124    22260152.8114
  21028315.288   -18520026.312 9 -14403500.18647  21028315.340    21028322.5144
  24823222.040     7484473.553 7   5847040.83645  24823221.620    24823237.3144
  21079574.622   -22346446.992 9 -17130776.74947  21079574.634    21079582.4504
  21422973.188   -12611838.910 9  -9811593.89547  21422973.064    21422980.7134
 01  5 23  2  0 30.0000000  0  7 20 14 21 29 31 25 11
  23984376.598    -5462159.473 7  -4238745.16144  23984376.252    23984387.0274
  21565504.670   -19479264.569 9 -14521289.38947  21565504.442    21565511.5634
  22270186.648   -18674246.710 8 -14016124.78546  22270186.230    22270195.9534
  21037610.926   -18471177.396 9 -14365436.13247  21037610.975    21037618.2404
  24838647.726     7565535.680 8   5910205.80445  24838647.661    24838663.2084
  21071125.433   -22390847.468 9 -17165374.47747  21071125.483    21071133.2894
  21414855.659   -12654496.973 9  -9844833.93147  21414855.464    21414863.1114
 01  5 23  2  1  0.0000000  0  7 20 14 21 29 31 25 11
  23968192.794    -5547204.695 7  -4305014.07144  23968192.805    23968202.9934
  21578053.397   -19413319.756 9 -14469903.86847  21578053.225    21578060.4244
  22280277.606   -18621218.068 8 -13974803.84146  22280277.235    22280287.0444
  21046944.772   -18422127.587 9 -14327215.53447  21046944.833    21046952.1794
  24854071.952     7646587.616 8   5973362.88145  24854071.724    24854086.9834
  21062769.006   -22434760.862 9 -17199592.66347  21062769.068    21062776.8294
  21406835.113   -12696644.763 9  -9877676.34247  21406834.957    21406842.6354
 01  5 23  2  1 30.0000000  0  7 20 14 21 29 31 25 11
  23952008.502    -5632252.694 7  -4371285.17444  23952008.401    23952019.2964
  21590635.910   -19347198.223 9 -14418380.63747  21590635.764    21590642.9794
  22290416.922   -18567935.668 8 -13933285.16246  22290416.586    22290426.3574
  21056316.798   -18372877.061 9 -14288838.53747  21056316.875    21056324.2254
  24869493.689     7727627.390 7   6036510.45145  24869493.277    24869508.6314
  21054505.726   -22478184.854 9 -17233429.49547  21054505.739    21054513.4934
  21398912.230   -12738279.890 9  -9910119.28447  21398912.062    21398919.7814
 01  5 23  2  2  0.0000000  0  7 20 14 21 29 31 25 11
  23935823.749    -5717302.876 7  -4437557.97044  23935823.856    23935834.5724
  21603251.818   -19280901.760 9 -14366721.11047  21603251.680    21603258.7794
  22300604.648   -18514399.181 8 -13891568.50546  22300604.313    22300614.0554
  21065726.778   -18323427.681 9 -14250306.58247  21065726.861    21065734.1064
  24884912.180     7808651.957 7   6099646.21945  24884911.725    24884927.3834
  21046335.700   -22521118.214 9 -17266884.01247  21046335.765    21046343.4714
  21391087.211   -12779400.666 9  -9942161.43047  21391087.038    21391094.7774
 01  5 23  2  2 30.0000000  0  7 20 14 21 29 31 25 11
  23919639.034    -5802354.164 7  -4503831.66544  23919639.048    23919650.3424
  21615900.848   -19214431.806 9 -14314926.39747  21615900.643    21615907.7014
  22310840.702   -18460608.356 8 -13849653.64946  22310840.346    22310850.1314
  21075174.349   -18273780.683 9 -14211620.63847  21075174.400    21075181.6264
  24900327.487     7889658.447 7   6162767.86545  24900326.952    24900342.7294
  21038259.427   -22563559.407 9 -17299955.02547  21038259.426    21038267.0974
  21383360.401   -12820005.359 9  -9973801.44347  21383360.198    21383367.8934
 01  5 23  2  3  0.0000000  0  7 20 14 21 29 31 25 11
  23903454.086    -5887406.511 7  -4570106.15244  23903454.204    23903465.1064
  21628582.226   -19147790.822 9 -14262998.40147  21628581.984    21628589.1114
  22321125.147   -18406563.303 8 -13807540.70246  22321124.856    22321134.6764
  21084659.024   -18223938.313 9 -14172782.45347  21084659.094    21084666.3604
  24915738.727     7970643.726 7   6225872.96345  24915738.163    24915753.9894
  21030276.795   -22605507.975 9 -17332642.17847  21030276.822    21030284.5444
  21375731.853   -12860093.020 9 -10005038.56147  21375731.689    21375739.4604
 01  5 23  2  3 30.0000000  0  6 20 14 21 29 25 11
  23887269.817    -5972454.685 7  -4636377.37544  23887269.888    23887280.7284
  21641296.627   -19080975.988 9 -14210934.94347  21641296.422    21641303.6714
  22331459.078   -18352259.112 8 -13765225.83846  22331458.732    22331468.5334
  21094181.507   -18173897.357 9 -14133789.53647  21094181.572    21094188.9944
  21022389.026   -22646957.905 9 -17364940.77847  21022389.103    21022396.8684
  21368202.993   -12899657.757 9 -10035868.22547  21368202.791    21368210.5004
 01  5 23  2  4  0.0000000  0  6 20 14 21 29 25 11
  23871087.090    -6057495.356 7  -4702642.73244  23871087.231    23871097.8724
  21654044.421   -19013986.150 9 -14158735.12047  21654044.217    21654051.4564
  22341842.574   -18297693.376 8 -13722707.16746  22341842.284    22341852.0844
  21103741.941   -18123656.823 9 -14094641.09347  21103741.993    21103749.5184
  21014596.943   -22687905.492 9 -17396847.94547  21014597.037    21014604.8044
  21360774.337   -12938695.431 9 -10066287.17947  21360774.144    21360781.8644
 01  5 23  2  4 30.0000000  0  6 20 14 21 29 25 11
  23854903.495    -6142540.063 7  -4768911.26944  23854903.414    23854913.9864
  21666822.850   -18946835.624 9 -14106410.09947  21666822.561    21666829.7714
  22352273.778   -18242877.964 8 -13679993.95546  22352273.463    22352283.2594
  21113337.738   -18073230.445 9 -14055347.84347  21113337.790    21113345.3464
  21006898.306   -22728361.966 9 -17428372.42847  21006898.387    21006906.1674
  21353443.925   -12977216.693 9 -10096303.73247  21353443.778    21353451.4604
 01  5 23  2  5  0.0000000  0  6 20 14 21 29 25 11
  23838720.078    -6227585.226 7  -4835180.14544  23838720.057    23838730.5884
  21679631.916   -18879523.033 9 -14053958.78047  21679631.693    21679638.9164
  22362753.212   -18187809.345 8 -13637083.43646  22362752.858    22362762.4944
  21122969.187   -18022617.032 9 -14015908.84747  21122969.282    21122976.6864
  20999293.950   -22768322.797 9 -17459510.69047  20999294.051    20999301.8254
  21346212.634   -13015217.118 9 -10125914.44347  21346212.514    21346220.1494
 01  5 23  2  5 30.0000000  0  6 20 14 21 29 25 11
  23822537.063    -6312629.214 7  -4901448.10244  23822536.682    23822547.1234
  21692471.702   -18812049.444 9 -14001382.00547  21692471.524    21692478.7234
  22373280.790   -18132486.515 8 -13593974.82646  22373280.400    22373290.0914
  21132636.204   -17971817.242 9 -13976324.62247  21132636.250    21132643.5044
  20991784.241   -22807786.396 9 -17490261.49747  20991784.330    20991792.0924
  21339080.907   -13052694.785 9 -10155117.80147  21339080.772    21339088.3834
 01  5 23  2  6  0.0000000  0  6 20 14 21 29 25 11
  23806354.410    -6397670.232 7  -4967713.74044  23806353.545    23806363.9384
  21705342.190   -18744415.391 9 -13948680.20347  21705341.944    21705349.1144
  22383856.935   -18076908.538 8 -13550667.40546  22383856.548    22383866.2694
  21142338.550   -17920831.481 9 -13936595.49147  21142338.584    21142345.8264
  20984369.473   -22846750.850 9 -17520623.37347  20984369.564    20984377.3964
  21332049.123   -13089647.282 9 -10183911.95547  21332048.980    21332056.5004
 01  5 23  2  6 30.0000000  0  6 20 14 21 29 25 11
  23790172.314    -6482707.229 7  -5033976.25844  23790171.248    23790181.8564
  21718242.874   -18676622.447 9 -13895854.58047  21718242.613    21718249.8074
  22394481.907   -18021074.882 8 -13507160.74546  22394481.453    22394491.0604
  21152075.876   -17869661.071 9 -13896722.47047  21152075.913    21152083.2744
  20977050.011   -22885214.380 9 -17550594.91147  20977050.121    20977057.9644
  21325117.549   -13126072.909 9 -10212295.55047  21325117.389    21325124.9264
 01  5 23  2  7  0.0000000  0  6 20 14 21 29 25 11
  23773990.962    -6567739.060 7  -5100234.78344  23773989.680    23774000.1074
  21731173.533   -18608671.550 9 -13842905.87147  21731173.262    21731180.5644
  22405155.580   -17964984.459 8 -13463454.00946  22405155.114    22405164.8304
  21161848.259   -17818306.712 9 -13856706.10647  21161848.317    21161855.7414
  20969826.253   -22923175.323 9 -17580174.82247  20969826.361    20969834.1714
  21318286.633   -13161969.422 9 -10240266.85047  21318286.497    21318294.0114
 01  5 23  2  7 30.0000000  0  6 20 14 21 29 25 11
  23757811.415    -6652762.340 7  -5166486.60044  23757810.589    23757819.5894
  21744134.378   -18540561.753 9 -13789833.34547  21744134.179    21744141.5344
  22415878.690   -17908634.503 8 -13419545.03046  22415878.260    22415888.0494
  21171655.816   -17766767.642 9 -13816545.81847  21171655.907    21171663.3354
  20962698.904   -22960630.007 9 -17609360.24747  20962699.005    20962706.7824
  21311557.152   -13197333.182 9 -10267823.02247  21311556.986    21311564.4664
 01  5 23  2  8  0.0000000  0  6 20 14 21 29 25 11
  23741632.727    -6737780.494 7  -5232734.40244  23741632.390    23741641.0894
  21757124.437   -18472298.960 9 -13736641.60247  21757124.206    21757131.4704
  22426650.402   -17852028.977 8 -13375436.91246  22426649.983    22426659.8004
  21181497.512   -17715049.549 9 -13776246.03747  21181497.574    21181504.9784
  20955667.188   -22997581.877 9 -17638153.87047  20955667.264    20955675.0114
  21304928.457   -13232167.046 9 -10294966.28547  21304928.305    21304935.8644
 01  5 23  2  8 30.0000000  0  6 20 14 21 29 25 11
  23725455.637    -6822790.561 7  -5298975.92344  23725455.389    23725464.9204
  21770143.596   -18403883.047 9 -13683330.54747  21770143.363    21770150.4984
  22437471.114   -17795166.043 8 -13331128.20646  22437470.712    22437480.5594
  21191373.366   -17663151.687 9 -13735806.16447  21191373.467    21191380.8444
  20948731.683   -23034027.793 9 -17666553.24447  20948731.765    20948739.5154
  21298401.242   -13266467.606 9 -10321693.98747  21298401.114    21298408.6694
 01  5 23  2  9  0.0000000  0  6 20 14 21 29 25 11
  23709280.754    -6907791.826 7  -5365210.56744  23709280.516    23709289.8794
  21783191.563   -18335315.577 9 -13629901.38847  21783191.330    21783198.4424
  22448340.948   -17738045.420 8 -13286618.71646  22448340.557    22448350.3834
  21201283.195   -17611075.571 9 -13695227.39747  21201283.287    21201290.6694
  20941892.707   -23069966.738 9 -17694557.56747  20941892.759    20941900.4634
  21291975.927   -13300233.587 9 -10348005.13647  21291975.702    21291983.2544
 01  5 23  2  9 30.0000000  0  6 20 14 21 29 25 11
  23693107.299    -6992783.913 7  -5431438.06145  23693107.124    23693116.4814
  21796268.007   -18266598.461 9 -13576355.63547  21796267.758    21796274.9384
  22459259.741   -17680666.891 8 -13241908.25246  22459259.328    22459269.2674
  21211226.499   -17558823.217 9 -13654511.31447  21211226.574    21211234.0144
  20935150.401   -23105397.956 9 -17722166.27148  20935150.457    20935158.0634
  21285652.264   -13333463.958 9 -10373898.91847  21285652.060    21285659.7354
 01  5 23  2 10  0.0000000  0  6 20 14 21 29 25 11
  23676935.735    -7077766.388 7  -5497658.08145  23676935.429    23676945.0664
  21809372.531   -18197733.659 9 -13522694.78947  21809372.306    21809379.5574
  22470227.431   -17623031.186 8 -13196997.39646  22470227.085    22470237.0394
  21221202.961   -17506396.269 9 -13613659.16847  21221203.037    21221210.5494
  20928504.871   -23140320.971 9 -17749378.96448  20928504.897    20928512.3774
  21279430.717   -13366157.953 9 -10399374.73947  21279430.577    21279438.2344
 01  5 23  2 10 30.0000000  0  6 20 14 21 29 25 11
  23660766.642    -7162736.079 7  -5563868.13145  23660766.282    23660775.8404
  21822505.334   -18128720.563 9 -13468918.39647  21822505.094    21822512.3944
  22481244.686   -17565135.741 8 -13151884.13846  22481244.318    22481254.1374
  21231212.784   -17453794.005 9 -13572670.41747  21231212.887    21231220.4054
  20921956.653   -23174732.569 9 -17776193.15848  20921956.611    20921963.9714
  21273312.086   -13398312.130 9 -10424429.94347  21273311.902    21273319.4134
 01  5 23  2 11  0.0000000  0  6 20 14 21 29 25 11
  23644599.413    -7247695.882 7  -5630070.48645  23644598.985    23644608.4904
  21835665.304   -18059564.656 9 -13415030.71447  21835665.084    21835672.3684
  22492310.587   -17506983.835 8 -13106571.04646  22492310.268    22492320.1794
  21241255.048   -17401021.608 9 -13531549.09147  21241255.155    21241262.6654
  20915504.977   -23208635.440 9 -17802610.94048  20915505.017    20915512.3484
  21267295.664   -13429928.930 9 -10449066.41047  21267295.408    21267302.8964
 01  5 23  2 11 30.0000000  0  6 20 14 21 29 25 11
  23628435.080    -7332639.509 7  -5696260.23145  23628434.426    23628444.1194
  21848853.232   -17990261.951 9 -13361028.65147  21848853.024    21848860.1804
  22503426.274   -17448569.959 8 -13061053.81146  22503426.003    22503436.0794
  21251330.523   -17348074.839 9 -13490291.89847  21251330.640    21251338.1494
  20909151.437   -23242023.216 9 -17828627.34948  20909151.476    20909158.8424
  21261382.706   -13461001.561 9 -10473278.84147  21261382.461    21261389.9854
 01  5 23  2 12  0.0000000  0  6 20 14 21 29 25 11
  23612273.067    -7417570.004 7  -5762439.74045  23612272.564    23612282.2144
  21862067.983   -17920818.139 8 -13306916.63647  21862067.765    21862074.9614
  22514591.036   -17389897.995 8 -13015335.47146  22514590.823    22514600.9024
  21261438.118   -17294959.387 9 -13448903.26147  21261438.202    21261445.7364
  20902895.327   -23274898.971 9 -17854244.78248  20902895.367    20902902.7904
  21255572.745   -13491532.952 9 -10497069.52447  21255572.493    21255580.0984
 01  5 23  2 12 30.0000000  0  6 20 14 21 29 25 11
  23596113.966    -7502485.581 7  -5828607.61945  23596113.461    23596123.1714
  21875309.469   -17851233.642 9 -13252694.99747  21875309.249    21875316.5644
  22525805.489   -17330966.577 8 -12969414.98146  22525805.209    22525815.0844
  21271577.733   -17241675.668 9 -13407383.51347  21271577.783    21271585.2924
  20896737.037   -23307260.692 9 -17879461.66648  20896737.070    20896744.4754
  21249866.169   -13521520.949 9 -10520436.79647  21249865.964    21249873.5544
 01  5 23  2 13  0.0000000  0  6 20 14 21 29 25 11
  23579958.201    -7587384.300 7  -5894762.38345  23579957.695    23579967.5674
  21888577.672   -17781508.957 9 -13198364.11547  21888577.503    21888584.9174
  22537069.380   -17271774.843 8 -12923291.64946  22537069.062    22537078.9094
  21281749.220   -17188224.079 9 -13365732.95547  21281749.311    21281756.7304
  20890676.868   -23339106.604 9 -17904276.62448  20890676.945    20890684.3844
  21244263.413   -13550963.580 9 -10543379.10247  21244263.223    21244270.7774
 01  5 23  2 13 30.0000000  0  6 20 14 21 29 25 11
  23563805.552    -7672267.304 8  -5960904.87845  23563804.987    23563814.8414
  21901871.902   -17711647.979 9 -13143927.03347  21901871.680    21901879.1254
  22548382.395   -17212324.622 8 -12876966.87246  22548382.110    22548392.0744
  21291952.071   -17134607.968 9 -13323954.20247  21291952.128    21291959.5674
  20884714.760   -23370437.986 9 -17928690.64848  20884714.793    20884722.2094
  21238764.402   -13579861.584 9 -10565897.02947  21238764.189    21238771.6574
 01  5 23  2 14  0.0000000  0  6 20 14 21 29 25 11
  23547656.321    -7757132.035 8  -6027033.14045  23547655.797    23547665.6664
  21915191.946   -17641650.603 8 -13089383.65547  21915191.738    21915199.1754
  22559744.948   -17152614.246 8 -12830439.36646  22559744.664    22559754.7294
  21302186.184   -17080827.262 9 -13282047.18847  21302186.273    21302193.7974
  20878850.923   -23401252.542 9 -17952701.95348  20878850.962    20878858.3614
  21233369.517   -13608212.155 9 -10587988.37947  21233369.274    21233376.7174
 01  5 23  2 14 30.0000000  0  6 20 14 21 29 25 11
  23531510.666    -7841977.578 8  -6093146.44545  23531510.244    23531520.1454
  21928537.753   -17571518.082 9 -13034734.97847  21928537.559    21928544.8744
  22571157.123   -17092643.374 8 -12783708.91646  22571156.823    22571166.9704
  21312451.483   -17026882.931 9 -13240012.67947  21312451.557    21312459.1464
  20873085.662   -23431549.312 9 -17976309.79148  20873085.664    20873093.0704
  21228078.943   -13636014.288 9 -10609652.37447  21228078.697    21228086.1914
 01  5 23  2 15  0.0000000  0  6 20 14 21 29 25 11
  23515368.501    -7926805.531 8  -6159246.03745  23515368.030    23515377.9644
  21941908.606   -17501254.587 9 -12979984.25347  21941908.373    21941915.5364
  22582618.513   -17032414.267 8 -12736777.22646  22582618.188    22582628.2664
  21322747.128   -16972779.291 9 -13197854.03847  21322747.209    21322754.7404
  20867418.521   -23461330.240 9 -17999515.68048  20867418.527    20867425.9634
  21222892.491   -13663269.192 9 -10630889.95847  21222892.257    21222899.7624
 01  5 23  2 15 30.0000000  0  6 20 14 21 29 25 11
  23499230.139    -8011613.261 8  -6225329.87845  23499229.612    23499239.4214
  21955304.371   -17430859.771 8 -12925131.20247  21955304.079    21955311.1724
  22594129.140   -16971925.250 8 -12689643.01746  22594128.850    22594138.8874
  21333073.201   -16918515.809 9 -13155570.84947  21333073.280    21333080.7064
  20861850.033   -23490592.459 9 -18022317.37348  20861850.042    20861857.4374
  21217810.695   -13689974.137 9 -10651699.01447  21217810.466    21217817.9674
 01  5 23  2 16  0.0000000  0  6 20 14 21 29 25 11
  23483096.115    -8096397.719 8  -6291395.58245  23483095.582    23483105.1404
  21968724.982   -17360333.301 8 -12870175.54447  21968724.758    21968732.0334
  22605689.600   -16911174.289 8 -12642304.68146  22605689.377    22605699.5344
  21343429.827   -16864091.743 9 -13113162.52047  21343429.901    21343437.2674
  20856380.793   -23519333.308 9 -18044712.80048  20856380.828    20856388.1174
  21212834.105   -13716126.019 9 -10672077.10147  21212833.931    21212841.4804
 01  5 23  2 16 30.0000000  0  6 20 14 21 29 25 11
  23466966.421    -8181158.579 8  -6357442.89745  23466965.928    23466975.5034
  21982170.164   -17289677.433 8 -12815119.07647  21982170.050    21982177.5434
  22617299.960   -16850161.884 8 -12594762.63846  22617299.749    22617309.9644
  21353816.587   -16809509.179 9 -13070630.68847  21353816.631    21353824.0874
  20851010.869   -23547552.436 9 -18066701.69648  20851010.866    20851018.1144
  21207962.915   -13741724.652 9 -10692024.09847  21207962.703    21207970.2154
 01  5 23  2 17  0.0000000  0  6 20 14 21 29 25 11
  23450841.218    -8265896.712 8  -6423472.49845  23450840.661    23450850.2554
  21995639.729   -17218895.349 8 -12759964.26147  21995639.575    21995647.1214
  22628959.897   -16788889.676 8 -12547018.15046  22628959.587    22628969.7444
  21364232.839   -16754771.429 9 -13027977.93847  21364232.899    21364240.4134
  20845739.841   -23575251.298 9 -18088285.19248  20845739.855    20845747.1474
  21203196.774   -13766770.927 9 -10711540.67347  21203196.552    21203204.0224
 01  5 23  2 17 30.0000000  0  6 20 14 21 29 25 11
  23434720.720    -8350609.812 8  -6489482.59345  23434720.161    23434729.9874
  22009133.320   -17147986.972 9 -12704711.03447  22009133.114    22009140.5264
  22640669.527   -16727355.931 8 -12499069.86446  22640669.191    22640679.3804
  21374678.687   -16699878.057 9 -12985203.92647  21374678.758    21374686.2224
  20840568.323   -23602427.560 9 -18109461.47248  20840568.365    20840575.6144
  21198536.276   -13791262.020 9 -10730624.63947  21198536.039    21198543.5774
 01  5 23  2 18  0.0000000  0  6 20 14 21 29 25 11
  23418604.778    -8435299.868 7  -6555474.71145  23418604.118    23418614.0014
  22022649.873   -17076957.106 8 -12649363.13547  22022649.607    22022656.9834
  22652428.245   -16665563.805 8 -12450920.24246  22652427.971    22652438.0814
  21385153.239   -16644833.938 9 -12942312.44347  21385153.296    21385160.7624
  20835495.804   -23629083.955 9 -18130232.65348  20835495.806    20835503.0974
  21193980.932   -13815200.364 9 -10749277.89847  21193980.762    21193988.2404
 01  5 23  2 18 30.0000000  0  6 20 14 21 29 25 11
  23402494.179    -8519960.613 7  -6621444.01445  23402493.611    23402503.5744
  22036190.044   -17005801.855 8 -12593917.54447  22036189.874    22036197.3304
  22664237.095   -16603507.923 8 -12402565.08546  22664236.836    22664246.9934
  21395657.321   -16589634.923 9 -12899300.27147  21395657.384    21395664.7994
  20830523.257   -23655214.460 9 -18150594.06048  20830523.309    20830530.6424
  21189531.998   -13838579.866 9 -10767495.70247  21189531.782    21189539.2244
 01  5 23  2 19  0.0000000  0  6 20 14 21 29 25 11
  23386388.457    -8604595.751 7  -6687393.35345  23386387.721    23386398.0384
  22049753.071   -16934527.238 8 -12538378.93347  22049752.964    22049760.5304
  22676095.306   -16541192.884 8 -12354008.00346  22676095.115    22676105.3864
  21406189.801   -16534287.019 9 -12856172.07847  21406189.843    21406197.2244
  20825650.123   -23680823.138 9 -18170548.83848  20825650.142    20825657.4964
  21185188.685   -13861403.998 9 -10785280.74247  21185188.479    21185195.8754
 01  5 23  2 19 30.0000000  0  6 20 14 21 29 25 11
  23370288.629    -8689199.762 7  -6753318.45845  23370288.056    23370298.0334
  22063339.634   -16863130.282 8 -12482745.00847  22063339.517    22063347.1574
  22688003.892   -16478614.227 8 -12305245.50546  22688003.562    22688013.8654
  21416751.162   -16478786.879 9 -12812925.26947  21416751.182    21416758.6624
  20820877.203   -23705904.751 9 -18190092.92648  20820877.247    20820884.6124
  21180952.034   -13883667.725 9 -10802629.11647  21180951.782    21180959.1104
 01  5 23  2 20  0.0000000  0  6 20 14 21 29 25 11
  23354194.353    -8773776.544 7  -6819222.32245  23354193.748    23354203.3234
  22076948.342   -16791617.321 8 -12427020.68647  22076948.107    22076955.7324
  22699961.423   -16415776.465 8 -12256281.10146  22699961.154    22699971.5984
  21427340.188   -16423140.666 9 -12769564.62147  21427340.261    21427347.8234
  20816204.002   -23730463.155 9 -18209229.31048  20816203.982    20816211.2934
  21176821.301   -13905374.594 9 -10819543.56547  21176821.102    21176828.4024
 01  5 23  2 20 30.0000000  0  6 20 14 21 29 25 11
  23338106.142    -8858321.370 7  -6885101.29245  23338105.425    23338114.6984
  22090579.309   -16719986.406 8 -12371204.43947  22090579.031    22090586.6614
  22711968.961   -16352676.427 8 -12207112.32046  22711968.711    22711979.1794
  21437957.514   -16367346.296 9 -12726088.53147  21437957.591    21437965.2014
  20811630.751   -23754495.095 9 -18227955.46848  20811630.778    20811638.0864
  21172797.465   -13926520.303 9 -10836020.74647  21172797.277    21172804.4964
 01  5 23  2 21  0.0000000  0  6 20 14 21 29 25 11
  23322023.482    -8942835.136 7  -6950956.07145  23322022.930    23322032.0594
  22104231.905   -16648240.613 8 -12315298.69247  22104231.749    22104239.4404
  22724026.249   -16289315.590 8 -12157740.31246  22724026.024    22724036.4214
  21448602.519   -16311406.909 9 -12682499.44847  21448602.581    21448610.2014
  20807157.581   -23778001.545 9 -18246272.15748  20807157.625    20807164.9104
  21168880.085   -13947105.953 9 -10852061.51147  21168879.939    21168887.2224
 01  5 23  2 21 30.0000000  0  6 20 14 21 29 25 11
  23305946.987    -9027315.082 7  -7016784.53845  23305946.499    23305955.9174
  22117906.587   -16576379.694 8 -12259303.23047  22117906.462    22117914.1854
  22736133.431   -16225692.159 8 -12108163.69146  22736133.153    22736143.5744
  21459275.109   -16255322.118 9 -12638797.06447  21459275.163    21459282.7584
  20802784.841   -23800980.307 9 -18264177.65248  20802784.872    20802792.1384
  21165069.842   -13967129.178 9 -10867664.03747  21165069.707    21165076.9704
 01  5 23  2 22  0.0000000  0  6 20 14 21 29 25 11
  23289877.450    -9111760.451 7  -7082586.04345  23289876.855    23289886.3684
  22131603.038   -16504405.280 8 -12203219.34147  22131602.890    22131610.5944
  22748290.400   -16161806.177 8 -12058382.50246  22748290.196    22748300.7094
  21469975.001   -16199093.432 9 -12594982.54747  21469975.046    21469982.6664
  20798512.594   -23823431.071 9 -18281671.72548  20798512.629    20798519.9354
  21161366.730   -13986589.293 9 -10882827.76747  21161366.571    21161373.8774
 01  5 23  2 22 30.0000000  0  6 20 14 21 29 25 11
  23273814.602    -9196172.037 7  -7148361.21045  23273814.293    23273823.1964
  22145320.323   -16432320.893 8 -12147049.74247  22145320.134    22145327.8814
  22760497.447   -16097660.009 8 -12008398.55746  22760497.135    22760507.5844
  21480701.692   -16142723.991 8 -12551058.35247  21480701.760    21480709.4494
  20794340.466   -23845355.341 9 -18298755.53648  20794340.528    20794347.8484
  21157770.372   -14005487.696 9 -10897553.79847  21157770.260    21157777.6334
 01  5 23  2 23  0.0000000  0  6 20 14 21 29 25 11
  23257758.181    -9280549.582 7  -7214109.88945  23257757.769    23257766.5504
  22159058.035   -16360128.540 8 -12090796.02947  22159057.863    22159065.6514
  22772753.788   -16033254.339 8 -11958212.41746  22772753.310    22772763.6724
  21491454.846   -16086215.991 9 -12507026.18447  21491454.955    21491462.5794
  20790268.481   -23866753.511 9 -18315429.40748  20790268.537    20790275.8614
  21154281.048   -14023824.123 9 -10911841.92947  21154280.956    21154288.3784
 01  5 23  2 23 30.0000000  0  6 20 14 21 29 25 11
  23241708.993    -9364888.835 7  -7279828.71245  23241708.450    23241717.2484
  22172816.792   -16287826.510 8 -12034456.85547  22172816.598    22172824.3314
  22785059.596   -15968585.900 8 -11907821.51046  22785059.232    22785069.6234
  21502235.000   -16029567.254 9 -12462884.35347  21502235.032    21502242.5714
  20786297.383   -23887621.650 9 -18331690.26348  20786297.436    20786304.7874
  21150899.418   -14041594.855 9 -10925689.26947  21150899.307    21150906.7224
 01  5 23  2 24  0.0000000  0  6 20 14 21 29 25 11
  23225666.988    -9449188.966 7  -7345517.08645  23225666.526    23225675.6094
  22186596.126   -16215416.181 8 -11978033.28447  22186595.899    22186603.6404
  22797415.611   -15903655.242 8 -11857226.28346  22797415.277    22797425.4494
  21513041.433   -15972779.396 9 -12418634.12147  21513041.461    21513049.0384
  20782427.154   -23907959.815 9 -18347538.15248  20782427.175    20782434.5194
  21147625.595   -14058799.360 9 -10939095.38447  21147625.414    21147632.8104
 01  5 23  2 24 30.0000000  0  6 20 14 21 29 25 11
  23209632.669    -9533449.958 8  -7411174.95445  23209632.186    23209641.4974
  22200395.532   -16142900.151 8 -11921527.35647  22200395.316    22200403.0544
  22809821.578   -15838463.011 8 -11806427.24646  22809821.119    22809831.2254
  21523873.896   -15915854.808 9 -12374277.34447  21523873.912    21523881.5274
  20778657.558   -23927768.927 9 -18362973.79348  20778657.605    20778664.9474
  21144459.266   -14075438.066 9 -10952060.61147  21144459.145    21144466.5854
 01  5 23  2 25  0.0000000  0  6 20 14 21 29 25 11
  23193606.202    -9617670.539 7  -7476801.32545  23193605.622    23193614.9084
  22214214.836   -16070279.884 8 -11864940.19446  22214214.609    22214222.2294
  22822276.938   -15773009.128 8 -11755424.30746  22822276.517    22822286.7534
  21534732.081   -15858794.458 9 -12329814.76947  21534732.125    21534739.7714
  20774988.821   -23947048.317 9 -18377996.66448  20774988.825    20774996.1284
  21141400.864   -14091510.296 9 -10964584.43547  21141400.703    21141408.1204
 01  5 23  2 25 30.0000000  0  6 20 14 21 29 25 11
  23177587.562    -9701848.885 7  -7542394.78345  23177586.871    23177596.2134
  22228053.816   -15997556.117 8 -11808272.40046  22228053.578    22228061.0094
  22834782.329   -15707293.568 8 -11704217.46546  22834781.929    22834792.2034
  21545615.995   -15801599.253 9 -12285247.11847  21545616.020    21545623.6194
  20771421.040   -23965796.863 9 -18392605.89448  20771421.074    20771428.3544
  21138450.472   -14107014.917 9 -10976665.96647  21138450.325    21138457.6734
 01  5 23  2 26  0.0000000  0  6 20 14 21 29 25 11
  23161576.894    -9785985.019 7  -7607955.35845  23161576.205    23161585.5934
  22241911.980   -15924731.101 8 -11751525.70046  22241911.715    22241919.0434
  22847337.615   -15641316.889 8 -11652807.15346  22847337.018    22847347.3454
  21556525.159   -15744271.371 9 -12240576.08247  21556525.228    21556532.7744
  20767954.121   -23984015.341 9 -18406802.08748  20767954.175    20767961.4484
  21135608.120   -14121952.091 9 -10988305.33047  21135607.893    21135615.1964
 01  5 23  2 26 30.0000000  0  6 20 14 21 29 25 11
  23145574.476    -9870076.626 7  -7673481.22545  23145573.863    23145583.3054
  22255789.253   -15851804.879 8 -11694700.13046  22255789.028    22255796.4694
  22859942.488   -15575077.904 8 -11601192.45646  22859941.931    22859952.3424
  21567459.592   -15686810.845 9 -12195801.69447  21567459.618    21567467.1694
  20764588.497   -24001702.321 9 -18420584.12048  20764588.524    20764595.7224
  21132873.906   -14136320.135 9 -10999501.21247  21132873.726    21132881.0234
 01  5 23  2 27  0.0000000  0  6 20 14 21 29 25 11
  23129580.941    -9954122.326 7  -7738971.34045  23129580.275    23129589.8694
  22269685.709   -15778778.614 8 -11637796.61346  22269685.527    22269693.0404
  22872597.211   -15508576.787 8 -11549373.49946  22872596.691    22872607.1844
  21578418.989   -15629218.589 8 -12150924.65747  21578419.031    21578426.6524
  20761324.090   -24018857.014 9 -18433951.38948  20761324.094    20761331.2234
  21130248.125   -14150118.449 9 -11010253.15847  21130247.924    21130255.3374
 01  5 23  2 27 30.0000000  0  6 20 14 21 29 25 11
  23113596.350   -10038121.600 8  -7804425.28245  23113595.711    23113605.2824
  22283601.035   -15705654.274 8 -11580816.68246  22283600.794    22283608.2614
  22885301.655   -15441814.519 8 -11497351.04446  22885301.115    22885311.7494
  21589403.103   -15571496.408 8 -12105946.36847  21589403.167    21589410.8904
  20758160.757   -24035480.085 9 -18446904.40048  20758160.774    20758167.8704
  21127730.869   -14163346.992 9 -11020561.12447  21127730.676    21127738.0674
 01  5 23  2 28  0.0000000  0  6 20 14 21 29 25 11
  23097620.871   -10122073.409 8  -7869842.23445  23097620.170    23097629.9194
  22297534.623   -15632433.306 8 -11523761.44946  22297534.358    22297541.7864
  22898055.884   -15374790.645 8 -11445124.75246  22898055.366    22898066.1194
  21600411.653   -15513645.639 9 -12060867.88047  21600411.746    21600419.5094
  20755098.587   -24051571.501 9 -18459443.14448  20755098.614    20755105.7674
  21125322.108   -14176005.387 9 -11030424.82247  21125321.884    21125329.2144
 01  5 23  2 28 30.0000000  0  6 20 14 21 29 25 11
  23081654.705   -10205976.733 8  -7935221.41745  23081654.004    23081663.6014
  22311486.201   -15559117.270 8 -11466632.12546  22311485.900    22311493.3864
  22910859.707   -15307505.515 8 -11392694.88046  22910859.242    22910870.0764
  21611444.539   -15455667.646 9 -12015690.27247  21611444.618    21611452.3134
  20752137.576   -24067131.462 9 -18471567.76948  20752137.614    20752144.8094
  21123021.832   -14188093.353 9 -11039844.01747  21123021.616    21123029.0454
 01  5 23  2 29  0.0000000  0  6 20 14 21 29 25 11
  23065698.113   -10289829.507 8  -8000561.21045  23065697.399    23065706.9804
  22325455.734   -15485706.578 8 -11409429.05346  22325455.509    22325462.9864
  22923713.430   -15239958.432 8 -11340060.89546  22923712.964    22923723.8344
  21622501.508   -15397562.947 9 -11970413.92847  21622501.584    21622509.3034
  20749278.079   -24082158.738 9 -18483277.30648  20749278.114    20749285.1954
  21120830.378   -14199609.591 9 -11048817.71647  21120830.184    21120837.6284
 01  5 23  2 29 30.0000000  0  6 20 14 21 29 25 11
  23049751.262   -10373631.274 8  -8065861.25345  23049750.470    23049759.9724
  22339443.095   -15412203.099 8 -11352153.68246  22339442.875    22339450.2764
  22936616.907   -15172150.330 8 -11287223.50346  22936616.480    22936627.3694
  21633582.223   -15339333.335 9 -11925040.23847  21633582.343    21633590.0874
  20746519.766   -24096653.997 9 -18494572.29248  20746519.783    20746526.8794
  21118747.617   -14210554.537 9 -11057346.24947  21118747.405    21118754.8914
 01  5 23  2 30  0.0000000  0  6 20 14 21 29 25 11
  23033813.999   -10457381.325 8  -8131121.00345  23033813.343    23033822.7424
  22353447.878   -15338608.650 8 -11294807.41546  22353447.620    22353454.8824
  22949570.060   -15104081.595 8 -11234183.03346  22949569.643    22949580.4674
  21644686.562   -15280980.230 9 -11879570.31747  21644686.645    21644694.4414
  20743862.728   -24110616.955 9 -18505452.48848  20743862.703    20743869.8014
  21116773.601   -14220928.101 9 -11065429.55547  21116773.402    21116780.8324
 01  5 23  2 30 30.0000000  0  6 20 14 21 29 25 11
  23017886.976   -10541077.461 8  -8196338.72345  23017886.329    23017895.8094
  22367469.685   -15264923.660 8 -11237390.61146  22367469.404    22367476.7594
  22962572.925   -15035751.506 8 -11180938.90946  22962572.521    22962583.2854
  21655814.274   -15222504.054 9 -11834004.50447  21655814.342    21655822.2194
  20741306.975   -24124046.723 9 -18515917.22048  20741306.992    20741314.1214
  21114908.581   -14230728.943 9 -11073066.58447  21114908.353    21114915.7744
 01  5 23  2 31  0.0000000  0  6 20 14 21 29 25 11
  23001970.511   -10624719.011 8  -8261513.89745  23001969.838    23001979.2734
  22381508.205   -15191149.818 8 -11179904.55146  22381507.945    22381515.6294
  22975625.337   -14967160.968 8 -11127491.84045  22975624.976    22975635.6924
  21666965.120   -15163906.400 9 -11788344.03747  21666965.182    21666972.9594
  20738852.699   -24136943.742 9 -18525966.82648  20738852.731    20738859.8514
  21113152.553   -14239957.159 9 -11080257.42047  21113152.309    21113159.7284
 01  5 23  2 31 30.0000000  0  6 20 14 21 29 25 11
  22986064.558   -10708303.966 8  -8326645.00345  22986064.039    22986073.5194
  22395563.602   -15117287.788 8 -11122349.78446  22395563.434    22395571.2454
  22988727.535   -14898308.888 8 -11073840.98245  22988727.145    22988737.9274
  21678138.985   -15105187.763 9 -11742589.29547  21678139.017    21678146.6714
  20736499.889   -24149307.714 9 -18535601.06548  20736499.930    20736507.0734
  21111505.665   -14248611.591 9 -11087001.14247  21111505.419    21111512.8164
 01  5 23  2 32  0.0000000  0  6 20 14 21 29 25 11
  22970169.727   -10791831.966 8  -8391731.69845  22970169.193    22970178.6934
  22409635.706   -15043339.461 8 -11064727.77946  22409635.512    22409643.1964
  23001879.298   -14829196.662 8 -11019987.39345  23001878.861    23001889.7444
  21689335.527   -15046350.018 9 -11696741.73847  21689335.526    21689343.1464
  20734248.473   -24161138.986 9 -18544820.21848  20734248.489    20734255.6634
  21109967.844   -14256692.890 9 -11093298.26347  21109967.594    21109975.0284
 01  5 23  2 32 30.0000000  0  7 20 14 21 01 29 25 11
  22954286.155   -10875301.110 8  -8456772.51545  22954285.519    22954294.9834
  22423724.079   -14969305.625 8 -11007039.14146  22423723.799    22423731.4034
  23015080.425   -14759824.186 8 -10965931.01345  23015080.042    23015090.9354
  23960683.850                                    23960679.896    23960697.4814
  21700554.484   -14987393.992 9 -11650802.01447  21700554.499    21700562.2114
  20732098.450   -24172436.930 9 -18553623.79348  20732098.487    20732105.6454
  21108539.166   -14264200.351 9 -11099148.23947  21108538.953    21108546.4624
 01  5 23  2 33  0.0000000  0  7 20 14 21 01 29 25 11
  22938413.996   -10958710.189 8  -8521766.52945  22938413.307    22938422.7114
  22437828.175   -14895187.453 8 -10949284.78446  22437827.925    22437835.6434
  23028331.204   -14690190.969 8 -10911671.49145  23028330.858    23028341.7434
  23946174.253                                    23946170.751    23946188.4824
  21711795.792   -14928320.482 9 -11604770.74547  21711795.837    21711803.6124
  20730049.990   -24183201.586 9 -18562011.81748  20730050.015    20730057.1604
  21107219.893   -14271133.518 9 -11104550.71847  21107219.676    21107227.0704
 01  5 23  2 33 30.0000000  0  7 20 14 21 01 29 25 11
  22922553.402   -11042058.059 8  -8586712.83045  22922552.776    22922562.0224
  22451948.040   -14820986.315 8 -10891465.76846  22451947.880    22451955.7774
  23041631.530   -14620297.954 8 -10857209.51345  23041631.170    23041641.9844
  23931696.125    -1372641.73755                  23931694.972    23931708.3604
  21723059.212   -14869130.884 8 -11558649.02347  21723059.239    21723067.0574
  20728103.097   -24193432.956 9 -18569984.29448  20728103.133    20728110.1394
  21106009.879   -14277492.304 9 -11109505.63547  21106009.624    21106016.9974
 01  5 23  2 34  0.0000000  0  7 20 14 21 01 29 25 11
  22906703.691   -11125348.409 8  -8651614.31045  22906703.139    22906712.3194
  22466082.813   -14746708.223 8 -10833586.79946  22466082.604    22466090.5594
  23054980.591   -14550149.537 8 -10802548.52145  23054980.249    23054990.8624
  23917248.791    -1848415.28917  -1431797.85045  23917247.524    23917262.4794
  21734343.528   -14809831.232 8 -11512441.54447  21734343.537    21734351.4024
  20726256.684   -24203135.977 9 -18577545.06948  20726256.681    20726263.6674
  21104908.179   -14283281.456 9 -11114016.67147  21104907.966    21104915.4204
 01  5 23  2 34 30.0000000  0  7 20 14 21 01 29 25 11
  22890865.696   -11208577.336 8  -8716467.93445  22890865.134    22890874.3374
  22480232.493   -14672352.013 8 -10775646.95646  22480232.179    22480240.1264
  23068378.640   -14479743.541 8 -10747686.81645  23068378.214    23068388.7944
  23902833.298    -1924167.804 7  -1490825.59745  23902833.343    23902846.6554
  21745649.112   -14750420.080 9 -11466147.17947  21745649.160    21745657.0214
  20724511.247   -24212308.370 9 -18584692.36948  20724511.240    20724518.2364
  21103915.507   -14288498.128 9 -11118081.62647  21103915.293    21103922.7214
 01  5 23  2 35  0.0000000  0  7 20 14 21 01 29 25 11
  22875039.912   -11291741.662 8  -8781271.22445  22875039.420    22875048.5484
  22494396.872   -14597916.745 8 -10717645.51246  22494396.643    22494404.6564
  23081825.908   -14409077.930 8 -10692622.81645  23081825.435    23081836.0644
  23888450.158    -1999753.315 7  -1549723.19245  23888450.040    23888463.1244
  21756976.312   -14690896.417 9 -11419765.14847  21756976.329    21756984.1404
  20722867.117   -24220948.156 9 -18591424.65548  20722867.118    20722874.1294
  21103032.163   -14293140.298 9 -11121698.91747  21103031.935    21103039.3394
 01  5 23  2 35 30.0000000  0  7 20 14 21 01 29 25 11
  22859227.205   -11374837.569 8  -8846021.18545  22859226.666    22859235.7764
  22508576.703   -14523400.940 8 -10659581.31046  22508576.557    22508584.5704
  23095323.063   -14338150.549 8 -10637354.84645  23095322.561    23095333.1654
  23874098.904    -2075169.273 7  -1608488.67745  23874098.835    23874111.8634
  21768325.134   -14631258.818 8 -11373294.34347  21768325.072    21768332.8794
  20721324.869   -24229052.799 9 -18597739.94548  20721324.845    20721331.9254
  21102258.664   -14297205.195 9 -11124866.38947  21102258.431    21102265.8304
 01  5 23  2 36  0.0000000  0  7 20 14 21 01 29 25 11
  22843427.796   -11457863.137 8  -8910716.32845  22843427.185    22843436.4674
  22522772.017   -14448805.462 8 -10601455.04146  22522771.799    22522779.7454
  23108869.808   -14266961.317 8 -10581882.83145  23108869.423    23108880.2124
  23859780.162    -2150414.905 7  -1667121.45745  23859780.048    23859792.9304
  21779695.238   -14571507.980 8 -11326735.28747  21779695.231    21779703.0614
  20719884.416   -24236621.641 9 -18603637.73048  20719884.433    20719891.6604
  21101595.079   -14300692.127 9 -11127583.48847  21101594.860    21101602.3004
 01  5 23  2 36 30.0000000  0  7 20 14 21 01 29 25 11
  22827641.981   -11540817.794 8  -8975356.22345  22827641.373    22827650.6134
  22536982.100   -14374132.238 8 -10543268.17546  22536981.782    22536989.7064
  23122466.323   -14195511.134 8 -10526207.45645  23122466.029    23122476.8464
  23845493.531    -2225491.012 7  -1725622.17045  23845493.479    23845506.2354
  21791086.638   -14511645.568 8 -11280089.29347  21791086.664    21791094.4824
  20718545.773   -24243655.682 9 -18609118.78748  20718545.819    20718553.0894
  21101041.423   -14303601.830 9 -11129850.80547  21101041.183    21101048.5834
 01  5 23  2 37  0.0000000  0  7 20 14 21 01 29 25 11
  22811869.873   -11623700.776 8  -9039940.26946  22811869.252    22811878.4474
  22551206.421   -14299382.980 8 -10485022.06046  22551206.135    22551214.1064
  23136112.664   -14123800.766 8 -10470329.38345  23136112.282    23136123.0324
  23831238.798    -2300398.098 7  -1783991.16645  23831238.907    23831251.7814
  21802499.088   -14451673.421 9 -11233357.79447  21802499.094    21802506.7734
  20717308.820   -24250156.086 9 -18614184.01248  20717308.865    20717316.0234
  21100597.470   -14305934.914 9 -11131668.80547  21100597.260    21100604.5774
 01  5 23  2 37 30.0000000  0  7 20 14 21 01 29 25 11
  22796111.500   -11706511.587 8  -9104468.06546  22796110.951    22796119.9994
  22565444.796   -14224559.464 8 -10426718.09446  22565444.558    22565452.5594
  23149808.061   -14051831.517 8 -10414249.55645  23149807.611    23149818.4364
  23817016.769    -2375136.675 8  -1842228.81345  23817016.632    23817029.2644
  21813932.132   -14391593.114 9 -11186542.01347  21813932.109    21813939.7284
  20716173.248   -24256123.683 9 -18618834.07648  20716173.262    20716180.3914
  21100263.163   -14307691.852 9 -11133037.85947  21100262.952    21100270.2604
 01  5 23  2 38  0.0000000  0  7 20 14 21 01 29 25 11
  22780366.859   -11789249.277 8  -9168938.89346  22780366.451    22780375.3914
  22579696.916   -14149663.510 8 -10368357.67246  22579696.741    22579704.8084
  23163552.396   -13979603.570 8 -10357968.16445  23163552.096    23163563.0484
  23802826.719    -2449706.834 8  -1900335.22745  23802826.357    23802838.9004
  21825385.314   -14331406.238 9 -11139643.18947  21825385.300    21825392.9934
  20715139.015   -24261558.677 9 -18623069.12448  20715139.048    20715146.1384
  21100038.416   -14308873.060 9 -11133958.28947  21100038.197    21100045.5304
 01  5 23  2 38 30.0000000  0  7 20 14 21 01 29 25 11
  22764636.550   -11871912.877 8  -9233351.97346  22764636.041    22764644.8964
  22593962.923   -14074696.607 8 -10309941.97746  22593962.674    22593970.5904
  23177346.191   -13907117.996 8 -10301486.01145  23177345.907    23177356.5374
  23788668.261    -2524109.158 7  -1958310.88745  23788667.999    23788680.7324
  21836858.474   -14271114.448 8 -11092662.61747  21836858.467    21836866.1414
  20714205.966   -24266462.029 9 -18626889.90248  20714205.984    20714213.0134
  21099923.075   -14309479.196 9 -11134430.61647  21099922.857    21099930.1954
 01  5 23  2 39  0.0000000  0  7 20 14 21 01 29 25 11
  22748920.711   -11954499.720 8  -9297705.24646  22748920.141    22748928.9504
  22608242.437   -13999658.609 8 -10251470.87946  22608242.139    22608249.8774
  23191189.093   -13834373.663 8 -10244802.23545  23191188.744    23191199.3784
  23774541.912    -2598342.036 7  -2016154.51945  23774541.717    23774554.6894
  21848351.702   -14210717.292 8 -11045599.95247  21848351.691    21848359.2494
  20713374.285   -24270832.731 9 -18630295.63448  20713374.289    20713381.2784
  21099917.441   -14309508.992 9 -11134453.85947  21099917.181    21099924.4524
 01  5 23  2 39 30.0000000  0  7 20 14 21 01 29 25 11
  22733219.823   -12037008.054 8  -9361997.35946  22733219.270    22733227.9764
  22622535.215   -13924550.025 8 -10192944.78046  22622534.905    22622542.5484
  23205081.252   -13761369.954 8 -10187916.32045  23205080.797    23205091.6564
  23760447.929    -2672404.890 7  -2073865.67845  23760447.695    23760460.9734
  21859864.889   -14150215.349 8 -10998455.63247  21859864.840    21859872.3734
  20712644.028   -24274670.264 9 -18633285.90548  20712644.035    20712650.9554
  21100021.500   -14308961.758 9 -11134027.46547  21100021.269    21100028.5744
 01  5 23  2 40  0.0000000  0  7 20 14 21 01 29 25 11
  22717533.762   -12119438.231 8  -9426228.56546  22717533.219    22717541.8404
  22636840.803   -13849373.843 8 -10134365.99846  22636840.481    22636848.1234
  23219022.204   -13688109.432 8 -10130830.28945  23219021.806    23219032.9074
  23746386.459    -2746299.601 8  -2131445.79745  23746386.089    23746399.0074
  21871397.449   -14089611.386 8 -10951231.80247  21871397.377    21871405.0234
  20712014.798   -24277977.041 9 -18635862.59748  20712014.781    20712021.6744
  21100235.007   -14307839.500 9 -11133152.99947  21100234.801    21100242.1524
 01  5 23  2 40 30.0000000  0  7 20 14 21 01 29 25 11
  22701863.074   -12201787.913 8  -9490397.07546  22701862.568    22701871.0624
  22651159.090   -13774130.202 8 -10075734.64946  22651158.809    22651166.5734
  23233012.382   -13614591.344 8 -10073543.58245  23233011.990    23233023.0924
  23732356.837    -2820024.867 7  -2188893.86645  23732356.452    23732369.2634
  21882949.382   -14028905.430 8 -10903928.49747  21882949.350    21882957.1084
  20711486.667   -24280752.193 9 -18638025.04348  20711486.646    20711493.5514
  21100558.195   -14306141.430 9 -11131829.85147  21100557.968    21100565.3304
 01  5 23  2 41  0.0000000  0  7 20 14 21 01 29 25 11
  22686207.698   -12284056.811 8  -9554502.62446  22686207.166    22686215.6934
  22665489.946   -13698821.021 8 -10017052.23846  22665489.688    22665497.5594
  23247051.547   -13540817.219 8 -10016057.36345  23247051.031    23247061.9164
  23718359.165    -2893581.782 8  -2246210.74945  23718358.822    23718371.5434
  21894520.305   -13968099.767 8 -10856547.50447  21894520.289    21894528.1494
  20711059.442   -24282996.874 9 -18639774.13048  20711059.432    20711066.3494
  21100990.668   -14303868.793 9 -11130058.98247  21100990.428    21100997.8604
 01  5 23  2 41 30.0000000  0  7 20 14 21 01 29 25 11
  22670568.173   -12366242.718 8  -9618543.50546  22670567.593    22670576.1874
  22679833.333   -13623446.994 8  -9958319.30146  22679833.018    22679840.8864
  23261139.172   -13466786.373 8  -9958371.11045  23261138.659    23261149.6444
  23704393.887    -2966969.378 7  -2303395.71745  23704393.460    23704405.8394
  21906110.290   -13907194.495 8 -10809088.90947  21906110.265    21906118.1364
  20710733.242   -24284710.913 9 -18641109.73148  20710733.208    20710740.1204
  21101532.650   -14301020.741 9 -11127839.74647  21101532.413    21101539.8334
 01  5 23  2 42  0.0000000  0  7 20 14 21 01 29 25 11
  22654944.685   -12448344.294 8  -9682518.66546  22654944.118    22654952.6534
  22694188.699   -13548009.072 8  -9899536.57946  22694188.400    22694196.3994
  23275275.401   -13392499.334 8  -9900485.19545  23275274.943    23275285.9744
  23690460.623    -3040187.559 7  -2360448.65145  23690460.396    23690472.5744
  21917719.053   -13846190.445 8 -10761553.34047  21917718.999    21917726.8404
  20710507.902   -24285894.999 9 -18642032.38148  20710507.913    20710514.7944
  21102184.040   -14297597.505 9 -11125172.31847  21102183.812    21102191.2184
 01  5 23  2 42 30.0000000  0  7 20 14 21 01 29 25 11
  22639338.033   -12530357.544 8  -9746425.00246  22639337.463    22639346.0024
  22708556.381   -13472505.738 8  -9840702.88346  22708556.114    22708564.2894
  23289460.856   -13317953.678 8  -9842397.77945  23289460.442    23289471.6474
  23676559.972    -3113233.845 7  -2417367.70145  23676559.779    23676572.5784
  21929346.758   -13785086.348 8 -10713939.81147  21929346.719    21929354.5914
  20710383.948   -24286546.902 9 -18642540.34248  20710383.919    20710390.7334
  21102945.360   -14293596.853 9 -11122054.95447  21102945.125    21102952.5534
 01  5 23  2 43  0.0000000  0  7 20 14 21 01 29 25 11
  22623747.826   -12612284.111 8  -9810263.81346  22623747.296    22623755.9034
  22722935.780   -13396941.206 8  -9781821.49346  22722935.568    22722943.6614
  23303695.136   -13243153.011 8  -9784111.65745  23303694.678    23303705.9394
  23662691.753    -3186111.212 8  -2474155.08345  23662691.480    23662704.5104
  21940992.782   -13723886.111 8 -10666251.35647  21940992.747    21941000.6984
  20710360.554   -24286669.873 9 -18642636.15348  20710360.486    20710367.3874
  21103815.898   -14289022.195 9 -11118490.29947  21103815.672    21103823.1494
 01  5 23  2 43 30.0000000  0  7 20 14 21 01 29 25 11
  22608174.201   -12694123.488 8  -9874034.68146  22608173.687    22608182.3274
  22737326.766   -13321317.440 8  -9722893.95746  22737326.456    22737334.2314
  23317977.507   -13168098.551 8  -9725627.76645  23317977.100    23317988.4564
  23648855.702    -3258820.513 7  -2530811.50745  23648855.169    23648868.0354
  21952656.696   -13662591.810 8 -10618489.60447  21952656.662    21952664.6914
  20710437.420   -24286265.394 9 -18642320.96548  20710437.432    20710444.3894
  21104795.465   -14283874.804 9 -11114479.36047  21104795.244    21104802.6414
 01  5 23  2 44  0.0000000  0  7 20 14 21 01 29 25 11
  22592618.083   -12775871.404 8  -9937734.28746  22592617.477    22592626.1304
  22751729.373   -13245632.644 8  -9663918.86446  22751729.026    22751736.5634
  23332308.765   -13092788.080 8  -9666944.39045  23332308.299    23332319.7904
  23635051.833    -3331359.014 8  -2587334.83945  23635051.494    23635064.0924
  21964338.886   -13601201.456 8 -10570653.01247  21964338.884    21964346.9784
  20710615.182   -24285331.244 9 -18641593.04448  20710615.150    20710622.1374
  21105884.540   -14278151.934 9 -11110019.99047  21105884.300    21105891.6474
 01  5 23  2 44 30.0000000  0  7 20 14 21 01 29 25 11
  22577079.306   -12857527.965 8 -10001362.70446  22577078.734    22577087.4204
  22766142.876   -13169889.539 8  -9604898.33646  22766142.497    22766150.1384
  23346687.975   -13017223.590 8  -9608063.07345  23346687.624    23346699.3884
  23621280.539    -3403728.235 7  -2643726.25445  23621280.028    23621292.4964
  21976038.969   -13539717.604 8 -10522743.58047  21976038.944    21976047.0034
  20710893.404   -24283868.948 9 -18640453.58848  20710893.407    20710900.3834
  21107082.765   -14271855.448 9 -11105113.65947  21107082.521    21107089.7964
 01  5 23  2 45  0.0000000  0  7 20 14 21 01 29 25 11
  22561558.301   -12939090.725 8 -10064918.02746  22561557.769    22561566.4414
  22780567.317   -13094088.098 8  -9545832.32246  22780566.961    22780574.9664
  23361116.076   -12941404.121 8  -9548983.07945  23361115.706    23361127.3934
  23607541.242    -3475926.782 7  -2699984.70245  23607540.780    23607553.4044
  21987756.863   -13478140.058 8 -10474761.14047  21987756.852    21987764.8134
  20711272.250   -24281878.181 9 -18638902.32848  20711272.235    20711279.2224
  21108390.261   -14264984.788 9 -11099759.91747  21108389.996    21108397.3114
 01  5 23  2 45 30.0000000  0  7 20 14 21 01 29 25 11
  22546055.396   -13020558.465 8 -10128399.29846  22546054.812    22546063.5284
  22795002.633   -13018229.318 8  -9486721.65946  22795002.378    22795010.5894
  23375592.518   -12865330.614 8  -9489705.13945  23375592.194    23375603.7304
  23593834.665    -3547955.155 8  -2756110.54045  23593834.288    23593846.6094
  21999492.327   -13416469.962 8 -10426706.57547  21999492.288    21999500.2254
  20711751.438   -24279359.845 9 -18636939.98648  20711751.423    20711758.4334
  21109806.875   -14257540.473 9 -11093959.16947  21109806.585    21109813.9674
 01  5 23  2 46  0.0000000  0  7 20 14 21 01 29 25 11
  22530570.631   -13101930.528 8 -10191806.00546  22530570.031    22530578.8274
  22809448.743   -12942315.330 8  -9427567.96846  22809448.447    22809456.6224
  23390117.282   -12789003.757 8  -9430229.76845  23390116.918    23390128.2784
  23580160.513    -3619814.075 7  -2812104.32545  23580160.055    23580172.1364
  22011244.815   -13354709.464 8 -10378581.55247  22011244.773    22011252.8484
  20712330.858   -24276315.405 9 -18634567.67848  20712330.812    20712337.7394
  21111332.403   -14249523.640 9 -11087712.30547  21111332.149    21111339.5464
 01  5 23  2 46 30.0000000  0  7 20 14 21 01 29 25 11
  22515104.429   -13183205.365 8 -10255136.98546  22515103.848    22515112.6814
  22823905.202   -12866346.994 8  -9368371.92946  22823904.859    22823912.8944
  23404689.782   -12712424.568 8  -9370557.76245  23404689.331    23404700.8774
  23566518.129    -3691503.527 7  -2867966.04745  23566517.870    23566529.9794
  22023014.374   -13292859.213 8 -10330386.61246  22023014.424    22023022.5944
  20713010.232   -24272745.137 9 -18631785.64148  20713010.181    20713017.1114
  21112966.816   -14240934.624 9 -11081019.57847  21112966.577    21112973.9934
 01  5 23  2 47  0.0000000  0  7 20 14 21 01 29 25 11
  22499657.426   -13264379.262 8 -10318389.31546  22499656.991    22499665.7844
  22838372.082   -12790323.088 8  -9309132.60246  22838371.754    22838379.7644
  23419310.447   -12635591.012 8  -9310687.53245  23419310.259    23419322.0044
  23552908.798    -3763021.094 7  -2923693.80345  23552908.421    23552920.6174
  22034801.664   -13230917.840 8 -10282120.67147  22034801.654    22034809.6454
  20713789.942   -24268647.252 9 -18628592.47548  20713789.932    20713796.8574
  21114710.456   -14231771.683 9 -11073879.64347  21114710.220    21114717.6424
 01  5 23  2 47 30.0000000  0  7 20 14 21 01 29 25 11
  22484229.726   -13345453.148 8 -10381563.71746  22484229.212    22484237.9294
  22852848.796   -12714247.060 8  -9249852.65046  22852848.472    22852856.5974
  23433979.410   -12558505.964 8  -9250621.36445  23433979.173    23433990.8744
  23539331.434    -3834369.253 7  -2979289.59045  23539331.160    23539343.3474
  22046605.606   -13168888.911 8 -10233786.48947  22046605.592    22046613.3764
  20714669.373   -24264025.162 9 -18624990.83748  20714669.393    20714676.3514
  21116562.733   -14222037.860 9 -11066294.86547  21116562.498    21116569.9134
 01  5 23  2 48  0.0000000  0  7 20 14 21 01 29 25 11
  22468821.670   -13426423.856 8 -10444657.73446  22468821.099    22468829.7294
  22867335.482   -12638118.492 8  -9190531.75046  22867335.174    22867343.4844
  23448696.499   -12481168.418 8  -9190358.42445  23448696.255    23448707.7334
  23525786.655    -3905546.473 8  -3034752.16545  23525786.497    23525798.5434
  22058426.173   -13106771.792 8 -10185383.59047  22058426.130    22058433.9714
  20715648.836   -24258878.310 9 -18620980.29148  20715648.825    20715655.7484
  21118523.909   -14211732.046 9 -11058264.37747  21118523.640    21118531.0944
 01  5 23  2 48 30.0000000  0  7 20 14 21 01 29 25 11
  22453433.321   -13507290.453 8 -10507670.62546  22453432.702    22453441.2794
  22881832.051   -12561938.486 8  -9131170.77246  22881831.777    22881840.1694
  23463461.415   -12403579.221 8  -9129899.41345  23463461.094    23463472.3734
  23512274.581    -3976553.064 7  -3090081.77745  23512274.361    23512286.2144
  22070263.101   -13044567.494 8 -10136912.76847  22070263.165    22070271.1404
  20716727.948   -24253207.081 9 -18616561.14848  20716727.978    20716734.8984
  21120593.664   -14200855.185 9 -11049788.91447  21120593.378    21120600.9204
 01  5 23  2 49  0.0000000  0  7 20 14 21 01 29 25 11
  22438064.676   -13588052.682 8 -10570602.18446  22438064.092    22438072.6554
  22896338.165   -12485709.285 8  -9071771.45546  22896337.915    22896346.2394
  23478273.892   -12325739.794 8  -9069245.39645  23478273.579    23478284.8724
  23498794.588    -4047390.092 7  -3145279.28945  23498794.373    23498806.2104
  22082116.335   -12982278.250 8 -10088375.73947  22082116.389    22082124.4084
  20717906.618   -24247013.364 9 -18611734.85948  20717906.622    20717913.5044
  21122771.747   -14189408.846 9 -11040869.69247  21122771.519    21122779.1744
 01  5 23  2 49 30.0000000  0  7 20 14 21 01 29 25 11
  22422716.497   -13668707.476 8 -10633450.03646  22422715.887    22422724.4224
  22910853.678   -12409430.603 8  -9012333.60246  22910853.396    22910861.6244
  23493134.042   -12247649.516 8  -9008395.92045  23493133.712    23493145.1914
  23485347.024    -4118056.495 7  -3200343.85345  23485346.783    23485358.8164
  22093985.933   -12919903.682 8 -10039772.24646  22093985.912    22093993.8954
  20719184.819   -24240296.756 9 -18606501.13048  20719184.787    20719191.6274
  21125058.569   -14177392.410 9 -11031506.26447  21125058.246    21125065.7984
 01  5 23  2 50  0.0000000  0  7 20 14 21 01 29 25 11
  22407388.911   -13749253.813 8 -10696213.38546  22407388.358    22407396.8174
  22925378.122   -12333103.739 8  -8952858.19246  22925377.871    22925386.0584
  23508041.813   -12169309.272 8  -8947351.62145  23508041.342    23508052.9044
  23471931.914    -4188552.603 7  -3255275.72845  23471931.462    23471943.7074
  22105871.557   -12857444.929 8  -9991103.15346  22105871.553    22105879.4014
  20720562.299   -24233058.358 9 -18600860.80848  20720562.233    20720569.0314
  21127453.525   -14164806.727 9 -11021699.25747  21127453.208    21127460.7114
 01  5 23  2 50 30.0000000  0  7 20 14 21 01 29 25 11
  22392082.578   -13829688.741 8 -10758889.93246  22392082.014    22392090.4854
  22939911.811   -12256728.412 8  -8893345.02746  22939911.620    22939919.8484
  23522997.381   -12090718.111 8  -8886111.86145  23522996.887    23523008.3684
  23458549.385    -4258877.070 7  -3310073.89145  23458549.026    23458561.2264
  22117773.298   -12794901.441 8  -9942368.02146  22117773.274    22117781.0674
  20722039.088   -24225297.586 9 -18594813.44148  20722039.061    20722045.8714
  21129956.954   -14151650.994 9 -11011448.04947  21129956.645    21129964.1584
 01  5 23  2 51  0.0000000  0  7 20 14 21 01 29 25 11
  22376797.422   -13910012.328 8 -10821479.70946  22376796.906    22376805.4184
  22954454.407   -12180307.100 8  -8833796.01746  22954454.142    22954462.3334
  23538000.465   -12011878.639 8  -8824678.60645  23537999.841    23538011.0064
  23445199.183    -4329031.719 8  -3364739.69545  23445198.896    23445210.9154
  22129690.446   -12732276.055 8  -9893569.07046  22129690.474    22129698.2894
  20723614.879   -24217016.503 9 -18588360.63948  20723614.850    20723621.7094
  21132568.442   -14137927.591 9 -11000754.49847  21132568.147    21132575.6684
 01  5 23  2 51 30.0000000  0  7 20 14 21 01 29 25 11
  22361533.930   -13990222.908 8 -10883981.44246  22361533.353    22361541.8814
  22969005.587   -12103840.532 8  -8774211.74946  22969005.318    22969013.4554
  23553050.093   -11932791.113 8  -8763052.05645  23553049.603    23553060.9744
  23431881.607    -4399016.220 8  -3419272.92045  23431881.296    23431892.9784
  22141623.013   -12669569.507 8  -9844706.87946  22141623.093    22141631.0364
  20725289.485   -24208215.980 9 -18581503.08048  20725289.481    20725296.3374
  21135287.885   -14123636.937 9 -10989618.93347  21135287.585    21135295.1464
 01  5 23  2 52  0.0000000  0  7 20 14 21 01 29 25 11
  22346292.304   -14070317.976 8 -10946393.15546  22346291.784    22346300.2324
  22983565.366   -12027328.857 8  -8714592.32946  22983565.129    22983573.1134
  23568147.220   -11853454.544 8  -8701231.47345  23568146.742    23568158.5014
  23418596.438    -4468829.980 8  -3473673.08345  23418596.153    23418607.5764
  22153571.227   -12606781.503 8  -9795781.21846  22153571.272    22153579.2204
  20727063.030   -24198895.685 9 -18574240.50548  20727063.023    20727069.8664
  21138115.261   -14108778.832 9 -10978041.19747  21138115.007    21138122.5594
 01  5 23  2 52 30.0000000  0  7 20 14 21 01 29 25 11
  22331073.206   -14150295.117 8 -11008712.98846  22331072.610    22331080.9644
  22998133.808   -11950772.008 8  -8654937.70846  22998133.503    22998141.4394
  23583291.460   -11773868.961 7  -8639216.80545  23583291.247    23583303.4474
  23405343.862    -4538472.061 8  -3527939.47145  23405343.549    23405354.9374
  22165534.946   -12543912.126 8  -9746792.13846  22165534.939    22165542.9084
  20728935.539   -24189055.563 9 -18566572.85948  20728935.527    20728942.3724
  21141050.620   -14093353.411 9 -10966021.40247  21141050.355    21141057.8924
 01  5 23  2 53  0.0000000  0  7 20 14 21 01 29 25 11
  22315876.391   -14230154.896 8 -11070941.37946  22315875.820    22315883.9904
  23012710.218   -11874173.242 8  -8595250.41546  23012709.823    23012717.8554
  23598483.126   -11694036.802 7  -8577010.02045  23598482.800    23598495.1554
  23392123.753    -4607944.401 8  -3582073.62145  23392123.340    23392134.7234
  22177513.550   -12480964.476 8  -9697742.06346  22177513.587    22177521.4644
  20730906.394   -24178698.733 9 -18558502.60048  20730906.362    20730913.2174
  21144093.367   -14077363.499 9 -10953561.74247  21144093.109    21144100.6364
 01  5 23  2 53 30.0000000  0  7 20 14 21 01 29 25 11
  22300702.476   -14309894.108 8 -11133075.81446  22300701.915    22300709.9894
  23027294.501   -11797531.765 8  -8535529.85346  23027294.186    23027302.4414
  23613722.169   -11613957.845 8  -8514610.94345  23613721.670    23613733.7054
  23378936.018    -4677245.690 8  -3636074.47545  23378935.590    23378947.1294
  22189507.322   -12417937.618 8  -9648630.27946  22189507.353    22189515.1754
  20732975.603   -24167824.865 9 -18550029.44248  20732975.550    20732982.4364
  21147243.766   -14060808.299 9 -10940661.60247  21147243.518    21147251.0134
 01  5 23  2 54  0.0000000  0  7 20 14 21 01 29 25 11
  22285551.590   -14389512.593 8 -11195116.16046  22285550.984    22285559.0864
  23041886.563   -11720849.795 8  -8475777.73446  23041886.283    23041894.5734
  23629007.559   -11533633.511 8  -8452020.67445  23629006.979    23629019.0744
  23365780.439    -4746377.270 8  -3689943.06945  23365780.077    23365791.7014
  22201515.677   -12354833.790 8  -9599458.51546  22201515.641    22201523.5544
  20735142.879   -24156435.804 9 -18541154.83448  20735142.849    20735149.7604
  21150501.432   -14043689.734 9 -10927322.48547  21150501.143    21150508.5824
 01  5 23  2 54 30.0000000  0  7 20 14 21 01 29 25 11
  22270424.154   -14469007.545 8 -11257060.24246  22270423.497    22270431.7314
  23056486.499   -11644127.056 8  -8415993.84446  23056486.177    23056494.4274
  23644339.643   -11453063.240 8  -8389238.74845  23644339.284    23644351.0784
  23352657.624    -4815338.049 8  -3743678.59245  23352657.211    23352668.6844
  22213538.559   -12291652.660 8  -9550226.50246  22213538.557    22213546.5924
  20737408.198   -24144531.250 9 -18531878.55148  20737408.171    20737415.1504
  21153866.189   -14026007.530 9 -10913544.15847  21153865.913    21153873.4104
 01  5 23  2 55  0.0000000  0  7 20 14 21 01 29 25 11
  22255320.519   -14548376.934 8 -11318906.48546  22255319.933    22255328.3074
  23071093.990   -11567364.259 8  -8356178.72346  23071093.704    23071101.9444
  23659718.558   -11372247.556 8  -8326265.61245  23659718.038    23659729.9214
  23339567.250    -4884128.084 8  -3797281.04845  23339566.744    23339578.1584
  22225576.214   -12228394.810 8  -9500934.71246  22225576.233    22225584.2244
  20739771.554   -24132111.887 9 -18522201.11148  20739771.545    20739778.4684
  21157338.085   -14007762.235 9 -10899327.05647  21157337.830    21157345.3504
 01  5 23  2 55 30.0000000  0  7 20 14 21 01 29 25 11
  22240240.974   -14627620.091 8 -11380654.36046  22240240.382    22240248.9354
  23085708.957   -11490562.971 8  -8296333.63446  23085708.596    23085716.9574
  23675143.650   -11291187.875 8  -8263102.31445  23675143.190    23675155.1724
  23326509.256    -4952747.945 8  -3850750.91945  23326508.735    23326520.0894
  22237628.286   -12165061.789 8  -9451584.35446  22237628.200    22237636.0814
  20742232.568   -24119179.490 9 -18512123.90948  20742232.501    20742239.3954
  21160916.879   -13988955.593 9 -10884672.54747  21160916.622    21160924.1504
 01  5 23  2 56  0.0000000  0  7 20 14 21 01 29 25 11
  22225186.142   -14706734.135 8 -11442301.62646  22225185.524    22225194.1004
  23100331.191   -11413722.749 8  -8236458.18646  23100330.793    23100339.3204
  23690615.506   -11209883.370 8  -8199748.26345  23690615.048    23690626.8464
  23313483.541    -5021196.540 8  -3904087.33945  23313483.211    23313494.5894
  22249694.468   -12101653.282 8  -9402175.16346  22249694.417    22249702.3244
  20744791.166   -24105733.679 9 -18501646.64348  20744791.150    20744798.0224
  21164602.652   -13969587.224 9 -10869580.32847  21164602.361    21164609.9144
 01  5 23  2 56 30.0000000  0  7 20 14 21 01 29 25 11
  22210155.993   -14785717.951 8 -11503847.42646  22210155.389    22210163.9624
  23114960.469   -11336845.050 8  -8176553.55246  23114960.176    23114968.6704
  23706133.540   -11128335.177 7  -8136204.30245  23706133.266    23706145.0064
  23300490.699    -5089474.310 8  -3957290.65045  23300490.236    23300501.7204
  22261774.851   -12038170.279 8  -9352707.92346  22261774.824    22261782.8144
  20747447.273   -24091776.003 9 -18490770.52348  20747447.201    20747454.0784
  21168395.028   -13949658.377 9 -10854051.37847  21168394.715    21168402.2114
 01  5 23  2 57  0.0000000  0  7 20 14 21 01 29 25 11
  22195150.914   -14864569.787 8 -11565290.36046  22195150.277    22195158.9024
  23129596.915   -11259930.698 8  -8116620.34846  23129596.623    23129604.9604
  23721697.744   -11046544.337 7  -8072471.28345  23721697.420    23721709.3604
  23287530.445    -5157581.317 8  -4010360.92045  23287529.829    23287541.2494
  22273869.214   -11974613.941 8  -9303183.54146  22273869.171    22273877.3514
  20750200.446   -24077307.586 9 -18479496.42448  20750200.395    20750207.2514
  21172293.758   -13929170.307 9 -10838086.67147  21172293.466    21172300.9354
 01  5 23  2 57 30.0000000  0  7 20 14 21 01 29 25 11
  22180171.205   -14943288.470 8 -11626629.54646  22180170.588    22180179.2124
  23144240.110   -11182980.823 8  -8056659.45246  23144239.726    23144248.0624
  23737308.327   -10964511.339 8  -8008549.56845  23737307.923    23737319.7184
  23274602.129    -5225518.168 8  -4063298.60245  23274601.739    23274613.1014
  22285977.240   -11910985.201 8  -9253602.73646  22285977.249    22285985.5204
  20753050.699   -24062329.381 9 -18467825.08548  20753050.672    20753057.4734
  21176298.778   -13908124.142 9 -10821687.08847  21176298.444    21176305.9274
 01  5 23  2 58  0.0000000  0  7 20 14 21 01 29 25 11
  22165217.048   -15021872.551 8 -11687863.83146  22165216.480    22165225.1034
  23158889.594   -11105996.795 8  -7996671.93946  23158889.265    23158897.6494
  23752964.715   -10882237.777 8  -7944440.40345  23752964.285    23752975.7824
  23261706.406    -5293285.383 8  -4116104.09145  23261705.996    23261717.2404
  22298098.923   -11847285.389 8  -9203966.55046  22298098.937    22298107.1734
  20755997.597   -24046843.192 9 -18455757.91848  20755997.562    20756004.3854
  21180409.678   -13886521.375 9 -10804853.78747  21180409.318    21180416.8444
 01  5 23  2 58 30.0000000  0  7 20 14 21 01 29 25 11
  22150288.848   -15100320.451 8 -11748992.00346  22150288.295    22150296.9264
  23173545.553   -11028979.088 8  -7936658.19146  23173545.239    23173553.6584
  23768666.849   -10799723.490 8  -7880143.65745  23768666.314    23768677.9104
  23248842.856    -5360882.617 8  -4168777.13945  23248842.342    23248853.7494
  22310234.171   -11783514.774 8  -9154275.20746  22310234.146    22310242.2804
  20759041.020   -24030849.610 9 -18443295.38048  20759040.985    20759047.8744
  21184626.413   -13864362.675 9 -10787587.30047  21184626.038    21184633.5264
 01  5 23  2 59  0.0000000  0  7 20 14 21 01 29 25 11
  22135387.302   -15178628.567 8 -11810011.25346  22135386.780    22135395.3594
  23188208.137   -10951927.083 8  -7876617.72546  23188207.828    23188216.2184
  23784414.761   -10716968.270 8  -7815659.15245  23784414.192    23784425.7054
  23236011.863    -5428308.797 8  -4221316.88445  23236011.554    23236022.7804
  22322382.829   -11719672.820 8  -9104528.25446  22322382.816    22322391.0714
  20762181.070   -24014348.196 9 -18430437.12748  20762181.041    20762187.9854
  21188949.004   -13841647.505 9 -10769887.19447  21188948.656    21188956.1344
 01  5 23  2 59 30.0000000  0  7 20 14 21 01 29 25 11
  22120512.549   -15256796.175 8 -11870921.00246  22120511.998    22120520.4664
  23202876.856   -10874842.250 8  -7816551.67246  23202876.573    23202885.0674
  23800208.053   -10633973.423 7  -7750987.93345  23800207.570    23800219.1184
  23223213.501    -5495564.480 8  -4273723.77045  23223213.114    23223224.3854
  22334544.678   -11655760.841 8  -9054726.73746  22334544.717    22334553.1744
  20765417.382   -23997340.932 9 -18417184.70648  20765417.361    20765424.3424
  21193376.979   -13818377.711 9 -10751754.90947  21193376.681    21193384.2894
 01  5 23  3  0  0.0000000  0  7 20 14 21 01 29 25 11
  22105664.948   -15334821.082 8 -11931719.55946  22105664.357    22105672.7234
  23217551.839   -10797725.036 8  -7756460.35946  23217551.483    23217560.1094
  23816046.994   -10550738.486 7  -7686129.64945  23816046.644    23816058.3094
  23210447.377    -5562649.550 8  -4325997.71945  23210447.043    23210458.2454
  22346720.000   -11591779.078 8  -9004870.84446  22346720.098    22346728.5444
  20768749.906   -23979828.231 9 -18403538.43348  20768749.914    20768756.8764
  21197910.525   -13794553.750 9 -10733190.80547  21197910.272    21197917.9024
 01  5 23  3  0 30.0000000  0  7 20 14 21 01 29 25 11
  22090844.328   -15412703.402 8 -11992406.98946  22090843.757    22090852.0514
  23232232.448   -10720578.012 8  -7696345.86146  23232232.130    23232240.7844
  23831931.500   -10467266.593 7  -7621086.72445  23831930.938    23831942.4744
  23197713.609    -5629565.925 8  -4378140.21945  23197713.177    23197724.2414
  22358908.320   -11527730.363 8  -8954962.79146  22358908.360    22358916.6014
  20772178.156   -23961812.942 9 -18389500.53648  20772178.170    20772185.0654
  21202549.035   -13770178.826 9 -10714197.38447  21202548.731    21202556.3214
 01  5 23  3  1  0.0000000  0  7 20 14 21 01 29 25 11
  22076051.385   -15490439.780 8 -12052980.69346  22076050.868    22076059.1954
  23246919.032   -10643400.243 8  -7636207.39246  23246918.783    23246927.0274
  23847860.833   -10383556.772 7  -7555858.39245  23847860.299    23847871.9334
  23185012.093    -5696311.843 8  -4430149.90045  23185011.771    23185022.9264
  22371109.622   -11463613.414 8  -8905001.56946  22371109.533    22371117.7424
  20775702.190   -23943294.530 9 -18375070.59648  20775702.171    20775708.9974
  21207292.413   -13745252.120 9 -10694774.00547  21207292.137    21207299.6244
 01  5 23  3  1 30.0000000  0  7 20 14 21 01 29 25 11
  22061286.813   -15568028.107 8 -12113439.04246  22061286.220    22061294.5374
  23261611.418   -10566191.945 8  -7576045.13946  23261611.132    23261619.2584
  23863835.373   -10299609.011 7  -7490444.66045  23863834.971    23863846.8034
  23172343.222    -5762887.081 8  -4482026.58046  23172342.871    23172353.9444
  22383323.494   -11399428.755 8  -8854987.58646  22383323.417    22383331.7534
  20779321.748   -23924273.688 9 -18360249.15448  20779321.685    20779328.5234
  21212140.621   -13719774.651 9 -10674921.45547  21212140.351    21212147.8374
 01  5 23  3  2  0.0000000  0  7 20 14 21 01 29 25 11
  22046550.576   -15645467.561 8 -12173781.38746  22046549.981    22046558.1704
  23276309.038   -10488955.180 8  -7515860.68946  23276308.717    23276316.9174
  23879855.056   -10215425.137 7  -7424846.92545  23879854.670    23879866.5524
  23159706.625    -5829292.865 8  -4533771.21446  23159706.159    23159717.3134
  22395549.931   -11335178.148 8  -8804922.20546  22395549.883    22395558.2744
  20783036.417   -23904752.571 9 -18345037.88548  20783036.403    20783043.2554
  21217093.264   -13693748.507 9 -10654641.36947  21217092.972    21217100.4594
 01  5 23  3  2 30.0000000  0  7 20 14 21 01 29 25 11
  22031843.185   -15722755.364 9 -12234005.56647  22031842.593    22031850.7524
  23291012.127   -10411689.281 8  -7455653.53346  23291011.848    23291020.3264
  23895919.527   -10131004.843 7  -7359064.97645  23895919.199    23895931.5044
  23147102.171    -5895528.032 8  -4585382.91146  23147101.845    23147113.0304
  22407789.134   -11270860.920 8  -8754804.93546  22407789.120    22407797.4744
  20786846.258   -23884731.594 9 -18329437.11348  20786846.236    20786853.0844
  21222150.351   -13667173.630 9 -10633933.69647  21222150.031    21222157.5584
 01  5 23  3  3  0.0000000  0  8 20 22 14 21 01 29 25 11
  22017164.503   -15799891.788 8 -12294111.78847  22017163.925    22017172.1964
  24391241.384    -4234822.083 7  -3285005.07545  24391240.915    24391257.1944
  23305720.451   -10334397.054 8  -7395425.87546  23305720.205    23305728.9134
  23912028.464   -10046350.761 7  -7293100.84845  23912028.437    23912040.8034
  23134530.154    -5961594.680 8  -4636863.27046  23134529.758    23134540.8044
  22420040.507   -11206479.776 8  -8704637.85346  22420040.459    22420048.8434
  20790750.697   -23864213.813 9 -18313449.22348  20790750.653    20790757.5424
  21227311.179   -13640053.197 9 -10612800.92347  21227310.888    21227318.4294
 01  5 23  3  3 30.0000000  0  8 20 22 14 21 01 29 25 11
  22002514.952   -15876875.241 8 -12354098.80947  22002514.366    22002522.6924
  24372868.871    -4331370.162 7  -3360236.93145  24372868.245    24372884.4574
  23320433.546   -10257079.568 8  -7335178.52846  23320433.200    23320441.9594
  23928182.588    -9961464.017 7  -7226955.41245  23928182.233    23928194.5024
  23121990.060    -6027493.160 8  -4688212.62246  23121989.600    23122000.5264
  22432303.717   -11142035.827 8  -8654421.82546  22432303.660    22432312.2154
  20794749.358   -23843200.661 9 -18297075.32648  20794749.325    20794756.2084
  21232575.559   -13612388.792 9 -10591244.27547  21232575.244    21232582.7524
 01  5 23  3  4  0.0000000  0  8 20 22 14 21 01 29 25 11
  21987895.732   -15953699.868 9 -12413962.07247  21987895.107    21987903.4024
  24354483.048    -4427988.364 7  -3435523.45345  24354482.154    24354498.1494
  23335151.943   -10179733.511 8  -7274908.91846  23335151.651    23335160.3214
  23944381.245    -9876341.480 8  -7160626.26645  23944380.850    23944392.9104
  23109482.599    -6093219.796 8  -4739428.06146  23109482.188    23109493.0204
  22444579.563   -11077525.589 8  -8604154.14946  22444579.521    22444588.0974
  20798842.882   -23821689.113 9 -18280313.07648  20798842.821    20798849.7314
  21237943.894   -13584177.629 9 -10569261.57247  21237943.618    21237951.2484
 01  5 23  3  4 30.0000000  0  8 20 22 14 21 01 29 25 11
  21973306.287   -16030367.418 8 -12473702.93447  21973305.667    21973313.9834
  24336083.656    -4524676.986 7  -3510864.83945  24336082.801    24336098.5634
  23349875.006   -10102363.183 8  -7214620.38946  23349874.688    23349883.3114
  23960624.024    -9790987.253 8  -7094116.57345  23960623.594    23960635.2904
  23097007.144    -6158777.939 8  -4790512.20346  23097006.755    23097017.5754
  22456867.455   -11012953.091 8  -8553837.96946  22456867.424    22456875.8294
  20803030.274   -23799684.058 9 -18263166.27148  20803030.242    20803037.1484
  21243415.511   -13555424.057 9 -10546856.22147  21243415.240    21243422.9054
 01  5 23  3  5  0.0000000  0  8 20 22 14 21 01 29 25 11
  21958747.339   -16106874.681 8 -12533318.90247  21958746.726    21958755.0044
  24317671.650    -4621432.118 7  -3586258.06745  24317670.817    24317686.3494
  23364602.953   -10024967.811 8  -7154312.35646  23364602.662    23364611.2634
  23976910.657    -9705401.206 7  -7027426.23345  23976910.121    23976921.6744
  23084563.964    -6224166.548 8  -4841464.24346  23084563.619    23084574.5484
  22469167.195   -10948317.811 8  -8503472.86446  22469167.110    22469175.5364
  20807311.700   -23777185.210 9 -18245634.69248  20807311.618    20807318.4904
  21248990.310   -13526128.635 9 -10524028.65847  21248990.030    21248997.5854
 01  5 23  3  5 30.0000000  0  8 20 22 14 21 01 29 25 11
  21944219.426   -16183218.830 8 -12592807.76547  21944218.834    21944227.0504
  24299247.453    -4718250.208 7  -3661700.36345  24299246.643    24299262.1904
  23379335.968    -9947546.931 8  -7093984.44646  23379335.542    23379344.2234
  23993241.164    -9619582.402 7  -6960554.53345  23993240.755    23993252.6864
  23072153.425    -6289384.589 8  -4892283.37946  23072153.090    23072163.8854
  22481478.835   -10883619.242 8  -8453058.43646  22481478.796    22481487.3974
  20811686.951   -23754192.960 9 -18227718.64748  20811686.869    20811693.7294
  21254668.211   -13496291.319 9 -10500778.83747  21254667.880    21254675.4414
 01  5 23  3  6  0.0000000  0  8 20 22 14 21 01 29 25 11
  21929722.533   -16259399.770 8 -12652169.46747  21929721.970    21929730.1654
  24280811.336    -4815129.987 7  -3737190.71345  24280810.606    24280826.1304
  23394073.150    -9870102.871 8  -7033638.47246  23394072.760    23394081.5384
  24009615.860    -9533533.353 8  -6893503.39945  24009615.439    24009627.3444
  23059774.827    -6354433.842 8  -4942970.98346  23059774.411    23059785.2824
  22493802.169   -10818859.657 8  -8402596.46546  22493802.135    22493810.8544
  20816155.508   -23730710.017 9 -18209420.24248  20816155.465    20816162.3454
  21260448.656   -13465914.967 9 -10477108.97347  21260448.318    21260455.9184
 01  5 23  3  6 30.0000000  0  8 20 22 14 21 01 29 25 11
  21915257.227   -16335415.129 8 -12711402.14747  21915256.634    21915264.8144
  24262364.126    -4912067.922 7  -3812726.38245  24262363.426    24262379.0404
  23408814.475    -9792635.853 8  -6973274.59446  23408814.135    23408823.0024
  24026034.659    -9447254.473 7  -6826273.20445  24026034.002    24026045.6904
  23047428.466    -6419314.033 8  -4993526.86646  23047428.097    23047438.8114
  22506137.154   -10754039.142 8  -8352087.02346  22506137.125    22506145.8144
  20820717.343   -23706737.400 9 -18190740.27248  20820717.307    20820724.1744
  21266331.507   -13435000.754 9 -10453020.00147  21266331.135    21266338.8084
 01  5 23  3  7  0.0000000  0  8 20 22 14 21 01 29 25 11
  21900823.729   -16411263.106 9 -12770504.40447  21900823.146    21900831.3194
  24243906.607    -5009060.759 7  -3888304.84345  24243905.914    24243921.4094
  23423560.093    -9715146.428 8  -6912893.27546  23423559.767    23423568.6454
  24042496.667    -9360746.884 8  -6758864.76945  24042495.895    24042507.7454
  23035114.301    -6484025.240 8  -5043951.06346  23035113.923    23035124.6604
  22518483.656   -10689158.448 8  -8301530.68346  22518483.578    22518492.0764
  20825372.163   -23682276.600 9 -18171679.89848  20825372.095    20825378.9494
  21272316.421   -13403549.833 9 -10428512.81647  21272316.052    21272323.7194
 01  5 23  3  7 30.0000000  0  8 20 22 14 21 01 29 25 11
  21886422.554   -16486941.719 9 -12829474.69047  21886421.975    21886430.0694
  24225439.085    -5106105.968 7  -3963924.10745  24225438.509    24225453.7794
  23438309.950    -9637635.495 8  -6852495.20146  23438309.685    23438318.5194
  24059002.325    -9274011.208 7  -6691278.63745  24059001.609    24059012.9314
  23022832.305    -6548567.652 8  -5094243.73746  23022831.856    23022842.5074
  22530841.397   -10624218.023 8  -8250927.80046  22530841.372    22530849.7604
  20830119.588   -23657328.543 9 -18152239.84648  20830119.508    20830126.4104
  21278403.242   -13371563.420 9 -10403588.36647  21278402.928    21278410.4974
 01  5 23  3  8  0.0000000  0  8 20 22 14 21 01 29 25 11
  21872053.843   -16562450.089 9 -12888312.32347  21872053.213    21872061.1794
  24206962.299    -5203201.521 7  -4039582.60045  24206961.560    24206976.7864
  23453063.999    -9560104.044 8  -6792081.14246  23453063.582    23453072.3634
  24075551.087    -9187048.504 7  -6623515.58645  24075550.093    24075561.3124
  23010582.070    -6612941.975 8  -5144405.42046  23010581.677    23010592.3134
  22543210.458   -10559219.043 8  -8200279.29946  22543210.410    22543218.6084
  20834959.398   -23631894.931 9 -18132421.44048  20834959.358    20834966.3224
  21284591.600   -13339043.524 9 -10378248.20747  21284591.264    21284598.8674
 01  5 23  3  8 30.0000000  0  8 20 22 14 21 01 29 25 11
  21857717.920   -16637786.257 9 -12947015.78347  21857717.247    21857725.0464
  24188476.580    -5300344.547 7  -4115278.09145  24188475.627    24188490.7434
  23467821.373    -9482553.078 8  -6731651.87345  23467820.956    23467829.8714
  24092141.919    -9099860.028 7  -6555576.57245  24092141.179    24092152.7094
  22998363.836    -6677148.513 8  -5194436.37446  22998363.465    22998373.8874
  22555590.286   -10494162.356 8  -8149585.82446  22555590.230    22555598.4964
  20839891.274   -23605977.561 9 -18112226.07648  20839891.243    20839898.1694
  21290881.147   -13305992.063 9 -10352493.85247  21290880.820    21290888.3334
 01  5 23  3  9  0.0000000  0  8 20 22 14 21 01 29 25 11
  21843415.831   -16712943.878 9 -13005580.11447  21843415.169    21843422.9394
  24169982.951    -5397527.163 7  -4191004.45045  24169982.240    24169997.0744
  23482583.328    -9404978.523 8  -6671204.21345  23482582.946    23482591.8054
  24108776.742    -9012442.109 7  -6487458.80045  24108776.102    24108788.1644
  22986178.405    -6741182.815 8  -5244333.12846  22986178.040    22986188.4954
  22567981.767   -10429043.914 8  -8098844.22246  22567981.831    22567990.3034
  20844915.893   -23579573.146 9 -18091651.19648  20844915.845    20844922.7424
  21297272.468   -13272405.996 9 -10326322.91947  21297272.075    21297279.5074
 01  5 23  3  9 30.0000000  0  8 20 22 14 21 01 29 25 11
  21829147.046   -16787926.762 9 -13064008.27947  21829146.366    21829154.1314
  24151481.355    -5494752.156 7  -4266763.81445  24151480.729    24151495.3224
  23497348.719    -9327386.704 8  -6610743.10345  23497348.235    23497357.1454
  24125454.238    -8924801.294 7  -6419167.33245  24125453.436    24125465.8904
  22974024.669    -6805050.649 8  -5294100.17846  22974024.264    22974034.8254
  22580384.152   -10363870.061 8  -8048059.44446  22580384.125    22580392.6744
  20850031.919   -23552688.365 9 -18070702.01748  20850031.863    20850038.6924
  21303764.058   -13238292.040 9 -10299740.63447  21303763.721    21303771.2194
 01  5 23  3 10  0.0000000  0  8 20 22 14 21 01 29 25 11
  21814912.275   -16862730.677 9 -13122296.98547  21814911.631    21814919.4704
  24132972.931    -5592014.780 7  -4342552.49545  24132972.191    24132986.3084
  23512117.541    -9249775.953 8  -6550267.24745  23512117.060    23512126.0364
  24142174.473    -8836935.984 7  -6350700.94545  24142173.740    24142186.1384
  22961902.963    -6868749.873 8  -5343735.83646  22961902.615    22961913.1994
  22592797.517   -10298638.799 8  -7997229.94146  22592797.412    22592805.8614
  20855239.395   -23525323.251 9 -18049378.53848  20855239.328    20855246.0154
  21310356.332   -13203649.655 9 -10272746.58847  21310355.968    21310363.5304
 01  5 23  3 10 30.0000000  0  8 20 22 14 21 01 29 25 11
  21800711.910   -16937353.990 9 -13180444.96947  21800711.252    21800719.1494
  24114457.456    -5689312.406 7  -4418368.47645  24114456.621    24114470.9224
  23526889.493    -9172147.109 8  -6489777.26645  23526889.173    23526898.4234
  24158937.045    -8748847.515 7  -6282060.64545  24158936.299    24158948.9164
  22949813.522    -6932280.911 8  -5393240.43346  22949813.025    22949823.5714
  22605221.253   -10233351.247 8  -7946356.57246  22605221.171    22605229.6454
  20860537.936   -23497479.122 9 -18027681.81048  20860537.860    20860544.5694
  21317048.730   -13168480.531 9 -10245342.09647  21317048.385    21317056.0624
 01  5 23  3 11  0.0000000  0  8 20 22 14 21 01 29 25 11
  21786546.241   -17011794.613 9 -13238450.60247  21786545.608    21786553.5514
  24095935.873    -5786641.269 7  -4494208.79645  24095935.062    24095949.7144
  23541665.097    -9094500.567 8  -6429273.52145  23541664.894    23541674.0964
  24175741.890    -8660536.395 7  -6213246.86245  24175741.242    24175753.9884
  22937755.852    -6995643.645 8  -5442613.88446  22937755.412    22937765.9244
  22617655.690   -10168007.368 8  -7895439.30246  22617655.653    22617664.1684
  20865927.357   -23469157.152 9 -18005612.73348  20865927.309    20865934.0444
  21323841.156   -13132786.132 9 -10217528.30547  21323840.802    21323848.5144
 01  5 23  3 11 30.0000000  0  8 20 22 14 21 01 29 25 11
  21772415.795   -17086050.473 9 -13296312.27047  21772415.191    21772423.1064
  24077408.844    -5883998.368 7  -4570071.13345  24077408.158    24077423.1154
  23556444.179    -9016836.834 8  -6368756.38345  23556443.843    23556453.0244
  24192589.344    -8572003.570 7  -6144260.29645  24192588.859    24192601.2254
  22925730.141    -7058838.332 8  -5491856.37746  22925729.797    22925740.1454
  22630100.923   -10102607.845 8  -7844478.68446  22630100.867    22630109.2794
  20871407.611   -23440358.225 9 -17983171.99948  20871407.516    20871414.3174
  21330733.324   -13096567.675 9 -10189306.16347  21330732.941    21330740.6504
 01  5 23  3 12  0.0000000  0  8 20 22 14 21 01 29 25 11
  21758320.549   -17160120.961 9 -13354029.48547  21758319.949    21758327.9154
  24058877.203    -5981382.052 7  -4645954.17345  24058876.337    24058891.2544
  23571225.976    -8939157.666 8  -6308227.20045  23571225.710    23571234.9034
  24209478.728    -8483250.911 7  -6075102.48145  24209478.147    24209490.2684
  22913736.276    -7121866.241 8  -5540968.94446  22913735.852    22913746.2124
  22642556.448   -10037154.403 8  -7793476.04846  22642556.294    22642564.5814
  20876977.943   -23411085.297 9 -17960361.91848  20876977.919    20876984.7944
  21337724.634   -13059828.151 9 -10160677.98947  21337724.291    21337731.9504
 01  5 23  3 12 30.0000000  0  8 20 22 14 21 01 29 25 11
  21744261.022   -17234003.552 9 -13411600.29047  21744260.442    21744268.4674
  24040341.412    -6078789.154 7  -4721855.44645  24040340.318    24040354.8864
  23586011.136    -8861462.818 8  -6247685.81445  23586010.784    23586019.6294
  24226409.618    -8394278.807 7  -6005773.63345  24226409.077    24226420.8464
  22901774.194    -7184726.754 8  -5589951.05346  22901773.812    22901784.1654
  22655021.998    -9971646.855 8  -7742431.23946  22655021.905    22655030.1844
  20882638.384   -23381339.364 9 -17937183.26648  20882638.330    20882645.2464
  21344814.989   -13022568.409 9 -10131644.45047  21344814.642    21344822.2344
 01  5 23  3 13  0.0000000  0  8 20 22 14 21 01 29 25 11
  21730237.659   -17307696.493 9 -13469023.30147  21730237.070    21730245.1164
  24021801.452    -6176216.634 7  -4797772.61845  24021800.364    24021814.6334
  23600799.092    -8783753.062 8  -6187132.80845  23600798.667    23600807.1564
  24243382.025    -8305088.486 7  -5936274.71345  24243381.486    24243393.2504
  22889843.954    -7247420.165 8  -5638802.96146  22889843.511    22889853.8434
  22667497.809    -9906085.888 8  -7691344.80646  22667497.728    22667506.1144
  20888388.623   -23351121.767 9 -17913637.08248  20888388.579    20888395.4564
  21352004.009   -12984790.173 9 -10102206.89447  21352003.645    21352011.2414
 01  5 23  3 13 30.0000000  0  8 20 22 14 21 01 29 25 11
  21716251.063   -17381196.177 9 -13526295.73247  21716250.473    21716258.5134
  24003258.203    -6273659.288 7  -4873701.64145  24003257.351    24003271.2854
  23615589.807    -8706027.332 8  -6126567.35145  23615589.458    23615597.9254
  24260396.145    -8215678.935 7  -5866605.01245  24260395.568    24260407.2224
  22877945.602    -7309945.098 8  -5687523.59046  22877945.288    22877955.5174
  22679984.058    -9840470.326 8  -7640215.84246  22679983.963    22679992.3974
  20894228.692   -23320432.245 9 -17889723.16848  20894228.616    20894235.4724
  21359291.609   -12946493.430 9 -10072365.30347  21359291.260    21359298.9214
 01  5 23  3 14  0.0000000  0  8 20 22 14 21 01 29 25 11
  21702301.500   -17454501.435 9 -13583416.65947  21702300.870    21702308.9334
  23984713.031    -6371115.171 8  -4949640.92745  23984711.970    23984725.6794
  23630383.122    -8628287.317 8  -6065990.73645  23630382.806    23630391.4984
  24277451.234    -8126051.958 7  -5796765.85545  24277450.820    24277462.7614
  22866079.248    -7372302.741 8  -5736113.84246  22866078.923    22866089.1754
  22692480.464    -9774801.682 8  -7589045.51246  22692480.412    22692488.7844
  20900157.975   -23289273.664 9 -17865443.75548  20900157.902    20900164.7674
  21366677.373   -12907680.934 9 -10042121.82947  21366677.017    21366684.6624
 01  5 23  3 14 30.0000000  0  8 20 22 14 21 01 29 25 11
  21688389.258   -17527610.571 9 -13640384.74847  21688388.591    21688396.6594
  23966165.772    -6468581.854 7  -5025588.65245  23966164.620    23966178.2694
  23645179.157    -8550533.424 8  -6005403.32945  23645178.793    23645187.6814
  24294548.025    -8036208.674 7  -5726758.17845  24294547.604    24294559.5484
  22854244.871    -7434493.179 8  -5784573.81146  22854244.456    22854254.6294
  22704986.953    -9709080.375 8  -7537834.14346  22704986.844    22704995.1024
  20906176.288   -23257647.492 9 -17840799.97548  20906176.185    20906183.0384
  21374160.985   -12868354.303 9 -10011477.72947  21374160.676    21374168.2694
 01  5 23  3 15  0.0000000  0  7 20 22 14 01 29 25 11
  21674514.323   -17600523.343 9 -13697199.83847  21674513.677    21674521.8314
  23947616.343    -6566058.053 7  -5101543.81145  23947615.241    23947628.7664
  23659977.437    -8472768.077 8  -5944806.97445  23659977.058    23659985.8534
  22842441.797    -7496518.342 8  -5832905.00346  22842441.417    22842451.5424
  22717503.095    -9643308.723 8  -7486583.55346  22717502.949    22717511.1364
  20912282.911   -23225556.820 9 -17815794.26148  20912282.818    20912289.6814
  21381741.855   -12828516.954 9  -9980435.67047  21381741.508    21381749.0794
 01  5 23  3 15 30.0000000  0  7 20 22 14 01 29 25 11
  21660677.602   -17673235.655 9 -13753858.72347  21660676.985    21660685.1614
  23929065.974    -6663538.149 7  -5177501.99045  23929065.094    23929078.4604
  23674778.343    -8394989.291 8  -5884200.17145  23674777.972    23674786.6014
  22830670.682    -7558376.173 8  -5881105.78946  22830670.236    22830680.2024
  22730028.907    -9577484.898 8  -7435292.29446  22730028.809    22730037.1614
  20918478.045   -23193001.121 9 -17790426.17948  20918477.979    20918484.8144
  21389419.954   -12788168.398 9  -9948995.26347  21389419.593    21389427.2594
 01  5 23  3 16  0.0000000  0  7 20 22 14 01 29 25 11
  21646879.368   -17745745.744 9 -13810360.03547  21646878.748    21646886.8924
  23910515.537    -6761019.204 7  -5253460.92545  23910514.666    23910527.8504
  23689581.746    -8317198.105 8  -5823583.69645  23689581.265    23689589.8874
  22818931.133    -7620067.202 8  -5929176.59646  22818930.714    22818940.6614
  22742564.421    -9511609.753 8  -7383961.03446  22742564.320    22742572.9504
  20924761.462   -23159981.931 9 -17764696.93648  20924761.359    20924768.1414
  21397194.841   -12747310.688 9  -9917158.10547  21397194.491    21397202.2764
 01  5 23  3 16 30.0000000  0  7 20 22 14 01 29 25 11
  21633120.015   -17818051.419 9 -13866702.05747  21633119.433    21633127.5314
  23891965.419    -6858498.176 7  -5329418.22845  23891964.539    23891977.8484
  23704387.010    -8239394.801 8  -5762957.77545  23704386.506    23704395.4734
  22807223.297    -7681591.329 8  -5977117.34946  22807222.928    22807233.0244
  22755109.731    -9445683.662 8  -7332590.08246  22755109.605    22755118.3334
  20931132.725   -23126500.800 9 -17738607.74247  20931132.619    20931139.3254
  21405066.356   -12705945.546 9  -9884925.56147  21405066.041    21405073.7754
 01  5 23  3 17  0.0000000  0  7 20 22 14 01 29 25 11
  21619400.308   -17890149.295 9 -13922882.15047  21619399.721    21619407.7294
  23873416.520    -6955970.838 7  -5405370.63945  23873415.829    23873429.1164
  23719194.765    -8161578.414 8  -5702321.65745  23719194.353    23719203.5244
  22795547.512    -7742947.255 8  -6024927.03946  22795547.101    22795557.3244
  22767665.041    -9379705.390 8  -7281178.48146  22767664.854    22767673.5134
  20937591.909   -23092557.872 9 -17712158.70548  20937591.797    20937598.4244
  21413034.581   -12664073.092 9  -9852297.70347  21413034.195    21413041.8004
 01  5 23  3 17 30.0000000  0  7 20 22 14 01 29 25 11
  21605719.968   -17962040.284 9 -13978901.03547  21605719.332    21605727.2454
  23854869.119    -7053436.967 8  -5481317.94345  23854868.429    23854881.7534
  23734004.866    -8083752.050 8  -5641677.78845  23734004.480    23734013.2564
  22783903.328    -7804138.052 8  -6072608.03346  22783902.853    22783912.8674
  22780229.494    -9313678.206 8  -7229728.76446  22780229.346    22780238.0504
  20944138.087   -23058157.534 9 -17685353.24847  20944137.955    20944144.5314
  21421098.277   -12621697.815 9  -9819278.02347  21421097.893    21421105.5864
 01  5 23  3 18  0.0000000  0  7 20 22 14 01 29 25 11
  21592079.215   -18033722.842 9 -14034757.51247  21592078.555    21592086.4174
  23836323.489    -7150893.484 8  -5557257.76445  23836322.768    23836336.1094
  23748816.907    -8005916.979 8  -5581027.13745  23748816.396    23748824.6924
  22772290.159    -7865164.444 8  -6120160.93146  22772289.762    22772299.7564
  22792803.030    -9247603.047 8  -7178241.64946  22792802.971    22792811.7974
  20950770.864   -23023302.144 9 -17658193.19847  20950770.713    20950777.2534
  21429257.121   -12578822.228 9  -9785868.48947  21429256.804    21429264.6054
 01  5 23  3 18 30.0000000  0  7 20 22 14 01 29 25 11
  21578478.842   -18105192.747 9 -14090448.27547  21578478.191    21578486.0874
  23817780.710    -7248334.945 8  -5633185.87445  23817779.985    23817793.2774
  23763630.457    -7928071.191 8  -5520368.10145  23763629.881    23763638.4724
  22760708.781    -7926024.171 8  -6167583.96446  22760708.439    22760718.4344
  22805386.333    -9181478.188 8  -7126715.81046  22805386.229    22805394.9034
  20957490.417   -22987990.626 9 -17630677.73347  20957490.281    20957496.7644
  21437511.429   -12535445.816 9  -9752068.71247  21437511.090    21437518.9134
 01  5 23  3 19  0.0000000  0  7 20 22 14 01 29 25 11
  21564919.179   -18176448.613 9 -14145972.26147  21564918.548    21564926.4694
  23799241.029    -7345759.363 7  -5709100.67345  23799240.360    23799253.8414
  23778445.582    -7850215.978 8  -5459701.72545  23778445.105    23778454.0184
  22749159.207    -7986718.130 8  -6214877.83446  22749158.716    22749168.7224
  22817978.821    -9115304.660 8  -7075152.05346  22817978.742    22817987.3914
  20964296.332   -22952225.514 9 -17602808.81247  20964296.180    20964302.6254
  21445860.556   -12491571.149 9  -9717880.67747  21445860.220    21445868.0104
 01  5 23  3 19 30.0000000  0  7 20 22 14 01 29 25 11
  21551400.562   -18247488.984 9 -14201328.32347  21551399.926    21551407.8304
  23780705.437    -7443164.419 8  -5785000.40745  23780704.830    23780717.9404
  23793262.611    -7772352.224 8  -5399028.70745  23793262.167    23793271.0994
  22737640.708    -8047247.054 8  -6262043.09946  22737640.319    22737650.4044
  22830580.337    -9049083.402 8  -7023551.08946  22830580.258    22830588.9764
  20971187.985   -22916009.312 9 -17574588.39647  20971187.829    20971194.3914
  21454304.004   -12447200.721 9  -9683306.34547  21454303.635    21454311.4494
 01  5 23  3 20  0.0000000  0  7 20 22 14 01 29 25 11
  21537923.405   -18318311.558 9 -14256514.67447  21537922.767    21537930.6914
  23762174.522    -7540546.390 8  -5860882.15445  23762173.700    23762186.3794
  23808081.234    -7694480.150 8  -5338349.20345  23808080.848    23808089.6624
  22726153.747    -8107610.882 8  -6309079.71346  22726153.451    22726163.3304
  22843190.808    -8982814.662 8  -6971913.11146  22843190.778    22843199.6694
  20978165.269   -22879342.707 9 -17546017.01047  20978165.189    20978171.8714
  21462841.576   -12402335.854 9  -9648346.73247  21462841.164    21462848.9984
 01  5 23  3 20 30.0000000  0  7 20 22 14 01 29 25 11
  21524487.966   -18388914.886 9 -14311530.18747  21524487.338    21524495.2004
  23743648.275    -7637902.487 8  -5936743.75845  23743647.376    23743659.6584
  23822901.264    -7616600.628 8  -5277663.89045  23822900.819    23822909.7174
  22714698.202    -8167810.462 8  -6355988.32446  22714697.812    22714707.6404
  22855810.322    -8916499.250 8  -6920238.78746  22855810.281    22855818.9974
  20985227.899   -22842228.351 9 -17517096.72047  20985227.779    20985234.5174
  21471472.611   -12356979.195 9  -9613003.90947  21471472.249    21471480.1054
 01  5 23  3 21  0.0000000  0  7 20 22 14 01 29 25 11
  21511094.798   -18459296.448 9 -14366372.89847  21511094.119    21511101.8884
  23725127.341    -7735228.872 8  -6012582.21645  23725126.477    23725138.6624
  23837722.656    -7538713.626 8  -5216972.75145  23837722.178    23837731.1854
  22703273.899    -8227845.287 8  -6402768.57146  22703273.471    22703283.2434
  22868438.801    -8850136.975 8  -6868527.93446  22868438.650    22868447.0524
  20992375.513   -22804667.087 9 -17487828.19647  20992375.411    20992382.2534
  21480197.097   -12311132.153 9  -9577278.97747  21480196.719    21480204.5044
 01  5 23  3 21 30.0000000  0  7 20 22 14 01 29 25 11
  21497744.335   -18529453.260 9 -14421040.47847  21497743.692    21497751.4264
  23706612.824    -7832522.321 8  -6088395.03445  23706611.954    23706623.9864
  23852545.480    -7460818.864 8  -5156275.57745  23852545.037    23852554.1004
  22691880.920    -8287714.724 8  -6449419.94446  22691880.618    22691890.2194
  22881076.022    -8783727.450 8  -6816780.26046  22881075.882    22881084.2374
  20999608.008   -22766660.152 9 -17458212.40047  20999607.904    20999614.7824
  21489014.647   -12264795.882 9  -9541172.82047  21489014.285    21489022.0544
 01  5 23  3 22  0.0000000  0  7 20 22 14 01 29 25 11
  21484436.852   -18599384.170 9 -14475532.02847  21484436.214    21484443.9634
  23688105.210    -7929780.418 8  -6164180.29745  23688104.286    23688116.0924
  23867369.649    -7382917.532 8  -5095573.27545  23867369.184    23867377.9764
  22680519.409    -8347419.695 8  -6495943.15846  22680519.024    22680528.5704
  22893721.891    -8717271.940 8  -6764996.74746  22893721.906    22893730.3424
  21006924.862   -22728209.876 9 -17428251.13947  21006924.729    21006931.6244
  21497924.786   -12217972.913 9  -9504687.41747  21497924.397    21497932.1664
 01  5 23  3 22 30.0000000  0  7 20 22 14 01 29 25 11
  21471172.703   -18669087.200 9 -14529846.01947  21471172.077    21471179.8504
  23669604.800    -8026999.514 8  -6239935.17745  23669603.785    23669615.6544
  23882194.879    -7305009.938 8  -5034866.08145  23882194.461    23882203.1084
  22669189.020    -8406960.639 8  -6542338.56046  22669188.618    22669198.2334
  22906376.764    -8650770.688 8  -6713177.58946  22906376.755    22906385.1644
  21014325.772   -22689317.553 9 -17397945.42347  21014325.675    21014332.5554
  21506927.022   -12170665.419 9  -9467824.46147  21506926.684    21506934.4694
 01  5 23  3 23  0.0000000  0  7 20 22 14 01 29 25 11
  21457952.618   -18738558.977 9 -14583979.81547  21457951.989    21457959.7984
  23651112.503    -8124174.991 8  -6315656.07145  23651111.577    23651123.5554
  23897021.493    -7227095.239 8  -4974153.35345  23897021.087    23897029.8534
  22657889.976    -8466336.368 8  -6588605.24046  22657889.660    22657899.2924
  22919040.564    -8584222.735 8  -6661322.06246  22919040.508    22919048.7314
  21021810.658   -22649984.270 9 -17367296.10647  21021810.583    21021817.3974
  21516021.524   -12122874.097 9  -9430584.48947  21516021.168    21516028.9254
 01  5 23  3 23 30.0000000  0  7 20 22 14 01 29 25 11
  21444776.666   -18807798.832 9 -14637932.89847  21444776.021    21444783.8184
  23632628.989    -8221305.361 7  -6391341.81445  23632628.102    23632639.9174
  23911849.357    -7149175.191 8  -4913436.45745  23911848.950    23911857.5494
  22646622.182    -8525548.435 8  -6634744.38246  22646621.861    22646631.4654
  22931712.732    -8517629.945 8  -6609431.57346  22931712.686    22931720.8094
  21029378.908   -22610212.724 9 -17336305.28847  21029378.844    21029385.6684
  21525207.436   -12074602.242 9  -9392970.09147  21525207.029    21525214.7724
 01  5 23  3 24  0.0000000  0  7 20 22 14 01 29 25 11
  21431644.999   -18876805.808 9 -14691704.50547  21431644.371    21431652.1624
  23614154.214    -8318389.012 7  -6466991.17045  23614153.382    23614165.3214
  23926678.204    -7071251.190 8  -4852716.48945  23926677.566    23926686.0664
  22635385.272    -8584598.072 8  -6680756.97146  22635384.939    22635394.5554
  22944393.363    -8450993.646 8  -6557507.19946  22944393.237    22944401.3024
  21037030.056   -22570005.573 9 -17304975.03447  21037029.977    21037036.7784
  21534484.074   -12025852.888 9  -9354983.60447  21534483.717    21534491.4934
 01  5 23  3 24 30.0000000  0  7 20 22 14 01 29 25 11
  21418558.546   -18945575.490 9 -14745291.21347  21418557.921    21418565.6624
  23595689.280    -8415420.193 7  -6542599.64745  23595688.436    23595700.6184
  23941507.456    -6993321.423 8  -4791992.02245  23941506.880    23941515.5964
  22624179.674    -8643483.320 8  -6726641.46946  22624179.347    22624188.9914
  22957082.493    -8384312.126 8  -6505547.57946  22957082.372    22957090.5174
  21044764.209   -22529362.503 9 -17273305.10447  21044764.113    21044770.8794
  21543851.657   -11976625.941 9  -9316624.97147  21543851.282    21543859.0774
 01  5 23  3 25  0.0000000  0  7 20 22 14 01 29 25 11
  21405517.635   -19014106.183 9 -14798691.70047  21405516.979    21405524.6764
  23577235.304    -8512395.419 8  -6618164.51245  23577234.441    23577246.6874
  23956337.804    -6915386.696 8  -4731263.67945  23956337.232    23956346.1754
  22613005.459    -8702204.255 8  -6772397.92246  22613005.092    22613014.6544
  22969780.165    -8317585.598 8  -6453552.90146  22969780.022    22969788.2324
  21052580.893   -22488285.466 9 -17241297.02147  21052580.772    21052587.5744
  21553309.709   -11926923.587 9  -9277895.89447  21553309.334    21553317.1514
 01  5 23  3 25 30.0000000  0  7 20 22 14 01 29 25 11
  21392522.337   -19082396.742 9 -14851905.07247  21392521.676    21392529.3734
  23558792.524    -8609312.495 7  -6693684.06245  23558791.658    23558803.7134
  23971169.115    -6837448.137 8  -4670532.35545  23971168.645    23971177.4194
  22601862.222    -8760762.094 8  -6818027.30446  22601861.817    22601871.3644
  22982485.905    -8250815.613 8  -6401524.34946  22982485.836    22982494.1604
  21060479.583   -22446777.293 9 -17208952.98747  21060479.523    21060486.2844
  21562857.682   -11876748.879 9  -9238798.75247  21562857.314    21562865.1094
 01  5 23  3 26  0.0000000  0  7 20 22 14 01 29 25 11
  21379573.161   -19150444.542 9 -14904929.28247  21379572.560    21379580.2424
  23540361.317    -8706168.356 8  -6769155.92945  23540360.408    23540372.3564
  23986001.382    -6759505.709 8  -4609798.01945  23986000.827    23986009.4684
  22590749.888    -8819156.871 8  -6863529.61646  22590749.550    22590759.0734
  22995199.995    -8184001.870 8  -6349461.69446  22995199.944    22995208.4614
  21068460.177   -22404839.405 9 -17176274.10447  21068460.118    21068466.7434
  21572495.180   -11826103.622 9  -9199334.95247  21572494.773    21572502.5704
 01  5 23  3 26 30.0000000  0  7 20 22 14 01 29 25 11
  21366670.420   -19218248.504 9 -14957763.48947  21366669.822    21366677.5434
  23521941.840    -8802960.894 8  -6844578.45845  23521941.180    23521953.0454
  24000833.801    -6681560.617 8  -4549061.59945  24000833.308    24000842.0994
  22579668.522    -8877389.732 8  -6908905.75846  22579668.181    22579677.6074
  23007922.139    -8117145.709 8  -6297366.00846  23007922.107    23007930.7754
  21076522.054   -22362474.303 9 -17143262.33647  21076521.947    21076528.5044
  21582221.510   -11774990.826 9  -9159506.82547  21582221.169    21582229.0274
 01  5 23  3 27  0.0000000  0  7 20 22 14 01 29 25 11
  21353814.857   -19285804.714 9 -15010404.64647  21353814.292    21353821.9884
  23503535.991    -8899684.466 8  -6919947.25245  23503535.211    23503546.9664
  24015667.022    -6603611.486 8  -4488322.02845  24015666.541    24015675.4724
  22568618.326    -8935458.765 8  -6954154.24346  22568617.901    22568627.3484
  23020652.777    -8050245.570 8  -6245236.05446  23020652.763    23020661.3454
  21084665.224   -22319682.012 9 -17109917.68847  21084665.080    21084671.6224
  21592036.931   -11723410.748 9  -9119314.59047  21592036.574    21592044.4374
 01  5 23  3 27 30.0000000  0  7 20 22 14 01 29 25 11
  21341006.601   -19353113.004 9 -15062852.62047  21341005.979    21341013.5514
  23485143.672    -8996337.609 8  -6995261.14945  23485142.694    23485154.2564
  24030500.415    -6525660.615 8  -4427581.12445  24030500.052    24030509.0034
  22557598.659    -8993366.429 8  -6999276.99246  22557598.280    22557607.8474
  23033391.528    -7983303.661 8  -6193073.54946  23033391.505    23033399.9174
  21092888.833   -22276466.352 9 -17076243.14647  21092888.697    21092895.2404
  21601940.466   -11671367.340 9  -9078761.31347  21601940.128    21601948.0144
 01  5 23  3 28  0.0000000  0  7 20 22 14 01 29 25 11
  21328245.929   -19420170.946 9 -15115105.51147  21328245.293    21328252.7794
  23466765.149    -9092916.930 8  -7070517.52445  23466764.197    23466775.5654
  24045334.417    -6447707.828 8  -4366838.73045  24045333.961    24045342.6884
  22546609.886    -9051112.532 8  -7044273.85546  22546609.507    22546619.0314
  23046138.073    -7916320.088 8  -6140878.57146  23046138.090    23046146.5974
  21101192.675   -22232828.905 9 -17042239.93747  21101192.588    21101199.1384
  21611931.852   -11618862.619 9  -9037848.56747  21611931.451    21611939.4064
 01  5 23  3 28 30.0000000  0  7 20 22 14 01 29 25 11
  21315534.658   -19486968.804 9 -15167155.74147  21315534.013    21315541.5004
  23448402.472    -9189412.072 8  -7145708.31645  23448401.579    23448412.7414
  24060170.140    -6369745.865 8  -4306089.15945  24060169.612    24060178.2904
  22535653.228    -9108689.497 8  -7089138.93046  22535652.843    22535662.3224
  23058894.162    -7849287.430 8  -6088645.34046  23058894.130    23058902.6994
  21109578.053   -22188763.530 9 -17007903.28047  21109577.963    21109584.4874
  21622011.997   -11565890.892 9  -8996571.92147  21622011.603    21622019.6724
 01  5 23  3 29  0.0000000  0  7 20 22 14 01 29 25 11
  21302871.540   -19553513.604 9 -15219008.78747  21302870.929    21302878.3714
  23430054.833    -9285828.825 8  -7220838.02045  23430053.882    23430064.9644
  24075005.654    -6291784.168 8  -4245339.79945  24075005.240    24075014.0294
  22524727.048    -9166106.614 8  -7133879.45346  22524726.666    22524736.1084
  23071657.826    -7782214.842 8  -6036381.01046  23071657.703    23071666.1884
  21118042.736   -22144281.514 9 -16973241.96447  21118042.623    21118049.1224
  21632178.849   -11512463.497 9  -8954940.21347  21632178.484    21632186.5374
 01  5 23  3 29 30.0000000  0  7 20 22 14 01 29 25 11
  21290257.088   -19619803.398 9 -15270663.12447  21290256.412    21290263.7824
  23411722.683    -9382163.740 8  -7295903.96745  23411721.763    23411732.9124
  24089841.058    -6213823.401 8  -4184591.16445  24089840.660    24089849.5614
  22513831.153    -9223364.572 8  -7178495.95246  22513830.779    22513840.2424
  23084428.672    -7715103.166 8  -5984086.21346  23084428.543    23084436.9394
  21126586.289   -22099384.905 9 -16938257.59247  21126586.149    21126592.6734
  21642432.052   -11458582.920 9  -8912955.38147  21642431.676    21642439.5964
 01  5 23  3 30  0.0000000  0  7 20 22 14 01 29 25 11
  21277691.762   -19685834.177 9 -15322115.62647  21277691.131    21277698.5014
  23393407.199    -9478411.444 8  -7370901.95845  23393406.242    23393417.3994
  24104676.529    -6135861.819 8  -4123841.88545  24104676.150    24104685.0114
  22502965.902    -9280461.371 8  -7222986.89146  22502965.531    22502974.9624
  23097207.307    -7647950.474 8  -5931759.45446  23097207.256    23097215.6804
  21135208.723   -22054073.463 9 -16902949.97547  21135208.629    21135215.1884
  21652771.481   -11404249.487 9  -8870617.67447  21652771.048    21652778.9074
 01  5 23  3 30 30.0000000  0  7 20 22 14 01 29 25 11
  21265176.119   -19751604.311 9 -15373365.03047  21265175.466    21265182.7894
  23375108.656    -9574569.531 8  -7445830.09845  23375107.800    23375118.8884
  24119512.294    -6057900.208 8  -4063092.58545  24119511.760    24119520.5964
  22492131.151    -9337397.735 8  -7267352.80346  22492130.842    22492140.1684
  23109993.845    -7580757.531 8  -5879401.34046  23109993.675    23110002.1994
  21143909.761   -22008349.385 9 -16867320.81647  21143909.596    21143916.2434
  21663196.519   -11349465.769 9  -8827929.09047  21663196.091    21663204.0094
 01  5 23  3 31  0.0000000  0  7 20 22 14 01 29 25 11
  21252710.359   -19817112.025 9 -15424409.94847  21252709.705    21252716.9854
  23356827.782    -9670635.368 8  -7520686.36045  23356826.925    23356837.9694
  24134347.828    -5979939.130 8  -4002343.70445  24134347.278    24134356.2554
  22481326.923    -9394174.159 8  -7311594.08246  22481326.572    22481335.8894
  23122787.761    -7513525.026 8  -5827012.39846  23122787.568    23122796.2554
  21152688.727   -21962215.119 9 -16831372.03647  21152688.608    21152695.3594
  21673706.664   -11294234.634 9  -8784891.88047  21673706.235    21673714.1274
 01  5 23  3 31 30.0000000  0  7 20 22 14 01 29 25 11
  21240295.017   -19882354.843 9 -15475248.45747  21240294.350    21240301.5934
  23338565.041    -9766604.879 8  -7595467.58545  23338564.238    23338575.4454
  24149183.294    -5901978.588 8  -3941595.22545  24149182.848    24149191.8724
  22470553.094    -9450790.463 8  -7355710.59846  22470552.730    22470562.0934
  23135589.018    -7446252.747 8  -5774592.43846  23135588.855    23135597.6634
  21161545.582   -21915672.029 9 -16795104.68347  21161545.447    21161552.2564
  21684301.536   -11238557.820 9  -8741507.37347  21684301.240    21684309.0914
 01  5 23  3 32  0.0000000  0  7 20 22 14 01 29 25 11
  21227930.843   -19947328.609 9 -15525877.31847  21227930.170    21227937.3794
  23320321.782    -9862472.518 8  -7670169.43545  23320321.028    23320332.4214
  24164018.841    -5824016.673 8  -3880845.69245  24164018.468    24164027.5084
  22459810.094    -9507244.841 8  -7399700.92046  22459809.817    22459819.0414
  23148398.481    -7378938.910 8  -5722140.11246  23148398.377    23148406.9614
  21170480.233   -21868720.008 9 -16758518.69247  21170480.092    21170486.9334
  21694981.307   -11182435.580 9  -8697775.78547  21694980.987    21694988.9074
 01  5 23  3 32 30.0000000  0  7 20 22 14 01 29 25 11
  21215617.731   -20012034.240 9 -15576297.24047  21215617.034    21215624.2404
  23302098.122    -9958238.155 8  -7744791.78645  23302097.255    23302108.7124
  24178854.081    -5746056.948 8  -3820097.86345  24178853.698    24178862.6794
  22449097.274    -9563540.698 8  -7443567.75046  22449096.944    22449106.2604
  23161215.359    -7311586.720 8  -5669657.90846  23161215.194    23161223.5984
  21179491.751   -21821363.915 9 -16721617.84147  21179491.653    21179498.4664
  21705744.834   -11125873.190 9  -8653701.23147  21705744.486    21705752.4304
 01  5 23  3 33  0.0000000  0  7 20 22 14 01 29 25 11
  21203356.493   -20076467.089 9 -15626504.59747  21203355.802    21203363.1114
  23283894.612   -10053896.566 8  -7819330.59945  23283893.876    23283905.2964
  24193689.494    -5668097.275 8  -3759350.07045  24193689.047    24193697.8024
  22438415.089    -9619675.638 8  -7487309.18546  22438414.729    22438424.0444
  23174039.570    -7244194.209 8  -5617144.25846  23174039.476    23174048.0354
  21188580.309   -21773603.343 9 -16684401.80847  21188580.191    21188586.9534
  21716592.190   -11068870.554 9  -8609283.63247  21716591.766    21716599.6694
 01  5 23  3 33 30.0000000  0  7 20 22 14 01 29 25 11
  21191147.380   -20140625.820 9 -15676498.35247  21191146.665    21191154.0454
  23265712.174   -10149445.146 8  -7893783.84045  23265711.403    23265722.7804
  24208524.787    -5590138.382 8  -3698602.88545  24208524.297    24208532.8844
  22427763.453    -9675650.520 8  -7530925.89346  22427763.043    22427772.2734
  23186871.391    -7176762.071 8  -5564599.75846  23186871.383    23186880.0194
  21197745.247   -21725440.830 9 -16646872.58147  21197745.176    21197751.9244
  21727522.527   -11011430.799 9  -8564525.41147  21727522.119    21727530.0434
 01  5 23  3 34  0.0000000  0  7 20 22 14 01 29 25 11
  21178990.669   -20204509.413 9 -15726277.71947  21178989.990    21178997.4114
  23247551.212   -10244881.236 8  -7968149.41745  23247550.326    23247561.6044
  24223359.609    -5512181.740 8  -3637857.46545  24223359.048    24223367.3344
  22417141.909    -9731466.643 8  -7574418.90046  22417141.516    22417150.7284
  23199710.791    -7109291.835 8  -5512025.55846  23199710.645    23199719.0414
  21206986.122   -21676879.309 9 -16609032.43947  21206986.099    21206992.8634
  21738535.475   -10953557.337 9  -8519429.24047  21738535.135    21738543.0124
 01  5 23  3 34 30.0000000  0  7 20 22 14 01 29 25 11
  21166887.120   -20268114.361 9 -15775839.97547  21166886.390    21166893.7324
  23229412.412   -10340199.974 8  -8042423.57145  23229411.673    23229422.7114
  24238193.833    -5434226.305 8  -3577112.97045  24238193.468    24238201.7384
  22406550.930    -9787122.940 8  -7617787.36146  22406550.458    22406559.6004
  23212557.623    -7041782.132 8  -5459420.61246  23212557.461    23212565.6424
  21216302.869   -21627919.565 9 -16570881.99047  21216302.839    21216309.6204
  21749631.032   -10895250.957 9  -8473995.74447  21749630.564    21749638.3654
 01  5 23  3 35  0.0000000  0  7 20 22 14 01 29 25 11
  21154836.802   -20331439.031 9 -15825183.81947  21154836.072    21154843.3494
  23211296.444   -10435399.058 8  -8116604.46445  23211295.625    23211306.5984
  24253027.863    -5356272.844 7  -3516370.01845  24253027.349    24253035.8054
  22395990.080    -9842620.163 8  -7661031.86046  22395989.620    22395998.6914
  23225411.666    -6974233.820 8  -5406785.56446  23225411.512    23225419.7964
  21225695.031   -21578563.781 9 -16532422.93247  21225694.927    21225701.7114
  21760808.149   -10836514.569 9  -8428227.16347  21760807.706    21760815.5484
 01  5 23  3 35 30.0000000  0  7 20 22 14 01 29 25 11
  21142840.560   -20394479.547 9 -15874306.25847  21142839.867    21142847.0654
  23193204.012   -10530473.742 8  -8190688.43945  23193203.230    23193214.1374
  24267861.586    -5278319.842 7  -3455627.41745  24267861.139    24267869.9114
  22385459.678    -9897957.027 8  -7704151.40646  22385459.259    22385468.3424
  23238273.308    -6906645.452 8  -5354119.30846  23238273.169    23238281.5654
  21235162.358   -21528812.692 9 -16493655.85347  21235162.223    21235169.0294
  21772066.788   -10777349.324 9  -8382124.40747  21772066.422    21772074.4174
 01  5 23  3 36  0.0000000  0  7 20 22 14 01 29 25 11
  21130898.543   -20457235.155 9 -15923206.67647  21130897.824    21130905.0314
  23175135.809   -10625421.548 8  -8264673.55345  23175135.128    23175145.8394
  24282695.012    -5200368.717 7  -3394886.28345  24282694.660    24282703.4064
  22374959.722    -9953134.875 8  -7747147.03946  22374959.278    22374968.3354
  23251142.267    -6839018.280 8  -5301422.82446  23251142.159    23251150.6344
  21244704.404   -21478668.857 9 -16454582.73647  21244704.307    21244711.0904
  21783406.626   -10717758.426 9  -8335689.98147  21783406.232    21783414.2114
 01  5 23  3 36 30.0000000  0  7 20 22 14 01 29 25 11
  21119011.038   -20519703.820 9 -15971883.50247  21119010.373    21119017.5724
  23157092.404   -10720239.236 8  -8338557.25445  23157091.690    23157102.3384
  24297528.044    -5122420.084 7  -3334147.08345  24297527.742    24297536.7844
  22364489.775   -10008154.098 8  -7790019.06046  22364489.367    22364498.3804
  23264018.487    -6771352.934 8  -5248696.58546  23264018.426    23264026.7934
  21254320.794   -21428134.777 9 -16415205.52947  21254320.650    21254327.3854
  21794826.937   -10657744.617 9  -8288926.00947  21794826.516    21794834.3814
 01  5 23  3 37  0.0000000  0  7 20 22 14 01 29 25 11
  21107178.613   -20581883.457 9 -16020335.11347  21107177.935    21107185.1594
  23139074.238   -10814923.462 8  -8412336.99145  23139073.603    23139084.3234
  24312360.554    -5044474.150 7  -3273409.98545  24312360.244    24312369.6274
  22354050.075   -10063015.051 8  -7832767.76646  22354049.654    22354058.5764
  23276902.077    -6703649.612 8  -5195940.75546  23276901.996    23276910.2474
  21264010.932   -21377212.738 9 -16375526.01947  21264010.792    21264017.4944
  21806327.168   -10597310.550 9  -8241834.56747  21806326.764    21806334.5784
 01  5 23  3 37 30.0000000  0  7 20 22 14 01 29 25 11
  21095401.606   -20643772.177 9 -16068560.04247  21095400.888    21095408.0904
  23121082.356   -10909471.565 8  -8486010.65645  23121081.668    23121092.2664
  24327192.579    -4966531.359 7  -3212675.32945  24327192.324    24327201.7664
  22343640.470   -10117717.825 8  -7875393.21146  22343640.020    22343648.9704
  23289792.853    -6635908.527 8  -5143155.51645  23289792.691    23289800.9674
  21273774.571   -21325904.534 9 -16335545.60147  21273774.432    21273781.1274
  21817906.922   -10536458.691 9  -8194417.57247  21817906.537    21817914.3994
 01  5 23  3 38  0.0000000  0  7 20 22 14 01 29 25 11
  21083680.336   -20705367.622 9 -16116556.45247  21083679.612    21083686.7464
  23103117.236   -11003880.193 8  -8559575.62545  23103116.375    23103126.7484
  24342024.363    -4888591.817 7  -3151943.25445  24342023.957    24342032.9544
  22333260.800   -10172262.535 8  -7917895.50646  22333260.376    22333269.3474
  23302690.475    -6568129.829 8  -5090340.95445  23302690.433    23302698.8484
  21283611.371   -21274211.996 9 -16295265.70247  21283611.222    21283617.8924
  21829565.779   -10475191.270 9  -8146676.75747  21829565.426    21829573.2744
 01  5 23  3 38 30.0000000  0  7 20 22 14 01 29 25 11
  21072015.184   -20766668.206 9 -16164323.09447  21072014.488    21072021.5644
  23085179.213   -11098146.092 8  -8633029.38445  23085178.264    23085188.2634
  24356855.167    -4810655.996 7  -3091214.04945  24356854.690    24356863.6084
  22322911.122   -10226650.087 8  -7960275.33846  22322910.721    22322919.6024
  23315595.443    -6500314.220 8  -5037497.64446  23315595.399    23315603.8134
  21293520.711   -21222137.874 9 -16254688.46347  21293520.592    21293527.2314
  21841303.012   -10413511.419 9  -8098614.58047  21841302.681    21841310.5164
 01  5 23  3 39  0.0000000  0  7 20 22 14 01 29 25 11
  21060406.575   -20827671.829 9 -16211858.33847  21060405.864    21060412.9074
  23067268.856   -11192265.581 8  -8706369.05545  23067267.824    23067277.8034
  24371684.880    -4732724.215 7  -3030487.99245  24371684.494    24371693.6554
  22312591.415   -10280880.518 8  -8002532.74546  22312590.955    22312599.8044
  23328507.470    -6432461.695 8  -4984625.55846  23328507.301    23328515.8194
  21303502.231   -21169684.133 9 -16213815.42047  21303502.093    21303508.8084
  21853118.369   -10351421.515 9  -8050232.87747  21853118.011    21853125.8914
 01  5 23  3 39 30.0000000  0  7 20 22 14 01 29 25 11
  21048855.208   -20888374.642 9 -16259159.18247  21048854.511    21048861.5184
  23049386.674   -11286234.032 8  -8779591.06945  23049385.843    23049396.0754
  24386514.156    -4654795.272 7  -2969764.14545  24386513.868    24386522.9504
  22302301.783   -10334952.489 8  -8044666.67546  22302301.318    22302310.2204
  23341426.409    -6364571.019 8  -4931723.73645  23341426.337    23341435.0654
  21313555.903   -21116851.064 9 -16172646.79547  21313555.822    21313562.5814
  21865011.508   -10288922.382 9  -8001532.28347  21865011.168    21865019.1764
 01  5 23  3 40  0.0000000  0  7 20 22 14 01 29 25 11
  21037361.373   -20948774.918 9 -16306224.28747  21037360.678    21037367.7324
  23031533.858   -11380049.021 8  -8852693.50045  23031533.162    23031543.5164
  24401342.850    -4576869.740 7  -2909042.97645  24401342.612    24401351.6284
  22292042.254   -10388866.599 8  -8086677.58746  22292041.811    22292050.5634
  23354352.628    -6296642.613 8  -4878792.52545  23354352.688    23354361.4154
  21323681.506   -21063640.824 9 -16131184.26047  21323681.432    21323688.1534
  21876982.087   -10226017.063 9  -7952515.19147  21876981.710    21876989.7674
 01  5 23  3 40 30.0000000  0  7 20 22 14 01 29 25 11
  21025925.333   -21008871.321 9 -16353052.61047  21025924.645    21025931.6964
  23013711.052   -11473707.770 8  -8925674.17045  23013710.261    23013720.6564
  24416170.859    -4498948.329 8  -2848324.99945  24416170.607    24416179.7034
  22281812.437   -10442623.948 8  -8128566.34547  22281812.013    22281820.7584
  23367286.352    -6228677.410 8  -4825832.65045  23367286.285    23367294.7544
  21333878.350   -21010056.608 9 -16089430.33047  21333878.233    21333884.9424
  21889029.249   -10162708.805 9  -7903184.11847  21889028.921    21889036.9464
 01  5 23  3 41  0.0000000  0  7 20 22 14 01 29 25 11
  21014547.548   -21068661.699 9 -16399642.47547  21014546.872    21014553.8894
  22995918.670   -11567206.434 8  -8998530.11045  22995917.947    22995928.2844
  24430998.002    -4421031.414 8  -2787610.54745  24430997.732    24431006.9274
  22271612.365   -10496224.907 8  -8170333.24547  22271611.984    22271620.8264
  23380226.679    -6160675.680 8  -4772844.30645  23380226.527    23380234.9624
  21344145.924   -20956100.461 9 -16047386.58047  21344145.765    21344152.4464
  21901152.552   -10099000.291 9  -7853541.15547  21901152.258    21901160.2954
 01  5 23  3 41 30.0000000  0  7 20 22 14 01 29 25 11
  21003228.283   -21128144.443 9 -16445992.60847  21003227.618    21003234.7084
  22978157.573   -11660542.216 8  -9071259.12345  22978156.763    22978166.9314
  24445824.289    -4343119.669 7  -2726900.11545  24445823.899    24445833.2274
  22261442.033   -10549669.977 8  -8211978.65747  22261441.655    22261450.4964
  23393173.423    -6092637.968 8  -4719827.89945  23393173.453    23393182.1494
  21354483.803   -20901774.560 9 -16005054.70547  21354483.669    21354490.3274
  21913351.533   -10034894.501 9  -7803588.62647  21913351.252    21913359.2954
